<?xml version="1.0" encoding="UTF-8" standalone="no" ?>
<gpx xmlns="http://www.topografix.com/GPX/1/1" xmlns:xsi="http://www.w3.org/2001/XMLSchema-instance" xsi:schemaLocation="http://www.topografix.com/GPX/1/1 http://www.topografix.com/GPX/1/1/gpx.xsd" version="1.1" creator="VisuGPX - https://www.visugpx.com">
  <metadata>
    <name>trace vtt départ stade a cote piscine Clermont herault 35km 496M</name>
    <desc><![CDATA[trace vtt départ Clermont Hérault 35km]]></desc>
  </metadata>
  <trk>
    <name><![CDATA[12/12/2019 13:28:01]]></name>
    <trkseg>
      <trkpt lat="43.63531" lon="3.44368">
        <ele>84.199996948242</ele>
        <time>2019-12-12T12:28:01Z</time>
      </trkpt>
      <trkpt lat="43.63531" lon="3.44368">
        <ele>84.199996948242</ele>
        <time>2019-12-12T12:28:02Z</time>
      </trkpt>
      <trkpt lat="43.63416" lon="3.43644">
        <ele>97.199996948242</ele>
        <time>2019-12-12T12:43:04Z</time>
      </trkpt>
      <trkpt lat="43.63418" lon="3.43639">
        <ele>97.199996948242</ele>
        <time>2019-12-12T12:43:05Z</time>
      </trkpt>
      <trkpt lat="43.63428" lon="3.43613">
        <ele>97.400001525879</ele>
        <time>2019-12-12T12:43:10Z</time>
      </trkpt>
      <trkpt lat="43.63431" lon="3.4361">
        <ele>97.400001525879</ele>
        <time>2019-12-12T12:43:11Z</time>
      </trkpt>
      <trkpt lat="43.63446" lon="3.43611">
        <ele>97.800003051758</ele>
        <time>2019-12-12T12:43:14Z</time>
      </trkpt>
      <trkpt lat="43.6345" lon="3.43614">
        <ele>97.800003051758</ele>
        <time>2019-12-12T12:43:15Z</time>
      </trkpt>
      <trkpt lat="43.63455" lon="3.43616">
        <ele>98</ele>
        <time>2019-12-12T12:43:17Z</time>
      </trkpt>
      <trkpt lat="43.63466" lon="3.43622">
        <ele>98</ele>
        <time>2019-12-12T12:43:19Z</time>
      </trkpt>
      <trkpt lat="43.63466" lon="3.43622">
        <ele>98</ele>
        <time>2019-12-12T12:43:20Z</time>
      </trkpt>
      <trkpt lat="43.63502" lon="3.43646">
        <ele>98.199996948242</ele>
        <time>2019-12-12T12:43:28Z</time>
      </trkpt>
      <trkpt lat="43.63506" lon="3.43649">
        <ele>98.199996948242</ele>
        <time>2019-12-12T12:43:29Z</time>
      </trkpt>
      <trkpt lat="43.63523" lon="3.43658">
        <ele>98.400001525879</ele>
        <time>2019-12-12T12:43:34Z</time>
      </trkpt>
      <trkpt lat="43.63533" lon="3.43657">
        <ele>98.400001525879</ele>
        <time>2019-12-12T12:43:36Z</time>
      </trkpt>
      <trkpt lat="43.63544" lon="3.43644">
        <ele>98.599998474121</ele>
        <time>2019-12-12T12:43:39Z</time>
      </trkpt>
      <trkpt lat="43.63556" lon="3.43636">
        <ele>98.800003051758</ele>
        <time>2019-12-12T12:43:41Z</time>
      </trkpt>
      <trkpt lat="43.63559" lon="3.43633">
        <ele>99</ele>
        <time>2019-12-12T12:43:43Z</time>
      </trkpt>
      <trkpt lat="43.63566" lon="3.43625">
        <ele>98.800003051758</ele>
        <time>2019-12-12T12:43:44Z</time>
      </trkpt>
      <trkpt lat="43.63588" lon="3.43603">
        <ele>99.599998474121</ele>
        <time>2019-12-12T12:43:51Z</time>
      </trkpt>
      <trkpt lat="43.63591" lon="3.43599">
        <ele>100</ele>
        <time>2019-12-12T12:43:53Z</time>
      </trkpt>
      <trkpt lat="43.63596" lon="3.43572">
        <ele>100.40000152588</ele>
        <time>2019-12-12T12:43:57Z</time>
      </trkpt>
      <trkpt lat="43.63596" lon="3.4356">
        <ele>100.59999847412</ele>
        <time>2019-12-12T12:44:00Z</time>
      </trkpt>
      <trkpt lat="43.63599" lon="3.43545">
        <ele>100.59999847412</ele>
        <time>2019-12-12T12:44:03Z</time>
      </trkpt>
      <trkpt lat="43.63602" lon="3.43542">
        <ele>100.80000305176</ele>
        <time>2019-12-12T12:44:04Z</time>
      </trkpt>
      <trkpt lat="43.6362" lon="3.43542">
        <ele>100.80000305176</ele>
        <time>2019-12-12T12:44:08Z</time>
      </trkpt>
      <trkpt lat="43.63645" lon="3.43545">
        <ele>101.19999694824</ele>
        <time>2019-12-12T12:44:16Z</time>
      </trkpt>
      <trkpt lat="43.6365" lon="3.43541">
        <ele>101.40000152588</ele>
        <time>2019-12-12T12:44:18Z</time>
      </trkpt>
      <trkpt lat="43.63652" lon="3.43538">
        <ele>101.40000152588</ele>
        <time>2019-12-12T12:44:19Z</time>
      </trkpt>
      <trkpt lat="43.63654" lon="3.43517">
        <ele>101.59999847412</ele>
        <time>2019-12-12T12:44:23Z</time>
      </trkpt>
      <trkpt lat="43.63655" lon="3.43512">
        <ele>101.59999847412</ele>
        <time>2019-12-12T12:44:24Z</time>
      </trkpt>
      <trkpt lat="43.63658" lon="3.43461">
        <ele>102.19999694824</ele>
        <time>2019-12-12T12:44:33Z</time>
      </trkpt>
      <trkpt lat="43.63657" lon="3.43439">
        <ele>102.59999847412</ele>
        <time>2019-12-12T12:44:37Z</time>
      </trkpt>
      <trkpt lat="43.63656" lon="3.43408">
        <ele>103.19999694824</ele>
        <time>2019-12-12T12:44:43Z</time>
      </trkpt>
      <trkpt lat="43.63655" lon="3.43386">
        <ele>103.59999847412</ele>
        <time>2019-12-12T12:44:48Z</time>
      </trkpt>
      <trkpt lat="43.63657" lon="3.43383">
        <ele>103.59999847412</ele>
        <time>2019-12-12T12:44:49Z</time>
      </trkpt>
      <trkpt lat="43.63668" lon="3.43383">
        <ele>103.80000305176</ele>
        <time>2019-12-12T12:44:52Z</time>
      </trkpt>
      <trkpt lat="43.63698" lon="3.43388">
        <ele>103.80000305176</ele>
        <time>2019-12-12T12:44:58Z</time>
      </trkpt>
      <trkpt lat="43.63724" lon="3.43391">
        <ele>102.59999847412</ele>
        <time>2019-12-12T12:45:03Z</time>
      </trkpt>
      <trkpt lat="43.63734" lon="3.43393">
        <ele>102</ele>
        <time>2019-12-12T12:45:05Z</time>
      </trkpt>
      <trkpt lat="43.63766" lon="3.43399">
        <ele>101.59999847412</ele>
        <time>2019-12-12T12:45:12Z</time>
      </trkpt>
      <trkpt lat="43.63803" lon="3.43405">
        <ele>103.19999694824</ele>
        <time>2019-12-12T12:45:21Z</time>
      </trkpt>
      <trkpt lat="43.63815" lon="3.43408">
        <ele>103.59999847412</ele>
        <time>2019-12-12T12:45:23Z</time>
      </trkpt>
      <trkpt lat="43.63836" lon="3.43411">
        <ele>104.80000305176</ele>
        <time>2019-12-12T12:45:29Z</time>
      </trkpt>
      <trkpt lat="43.63845" lon="3.43413">
        <ele>105</ele>
        <time>2019-12-12T12:45:31Z</time>
      </trkpt>
      <trkpt lat="43.63861" lon="3.43415">
        <ele>105.80000305176</ele>
        <time>2019-12-12T12:45:35Z</time>
      </trkpt>
      <trkpt lat="43.63873" lon="3.43417">
        <ele>106.80000305176</ele>
        <time>2019-12-12T12:45:38Z</time>
      </trkpt>
      <trkpt lat="43.63888" lon="3.4342">
        <ele>108</ele>
        <time>2019-12-12T12:45:42Z</time>
      </trkpt>
      <trkpt lat="43.63892" lon="3.4342">
        <ele>108.19999694824</ele>
        <time>2019-12-12T12:45:43Z</time>
      </trkpt>
      <trkpt lat="43.63913" lon="3.43424">
        <ele>109</ele>
        <time>2019-12-12T12:45:48Z</time>
      </trkpt>
      <trkpt lat="43.63931" lon="3.43424">
        <ele>109.19999694824</ele>
        <time>2019-12-12T12:45:52Z</time>
      </trkpt>
      <trkpt lat="43.63936" lon="3.43423">
        <ele>109.19999694824</ele>
        <time>2019-12-12T12:45:53Z</time>
      </trkpt>
      <trkpt lat="43.63958" lon="3.43413">
        <ele>109.19999694824</ele>
        <time>2019-12-12T12:45:57Z</time>
      </trkpt>
      <trkpt lat="43.63966" lon="3.43405">
        <ele>109.19999694824</ele>
        <time>2019-12-12T12:46:00Z</time>
      </trkpt>
      <trkpt lat="43.63976" lon="3.4339">
        <ele>109.19999694824</ele>
        <time>2019-12-12T12:46:03Z</time>
      </trkpt>
      <trkpt lat="43.63979" lon="3.43384">
        <ele>109.19999694824</ele>
        <time>2019-12-12T12:46:04Z</time>
      </trkpt>
      <trkpt lat="43.63991" lon="3.43349">
        <ele>109.40000152588</ele>
        <time>2019-12-12T12:46:10Z</time>
      </trkpt>
      <trkpt lat="43.64003" lon="3.43321">
        <ele>109.40000152588</ele>
        <time>2019-12-12T12:46:14Z</time>
      </trkpt>
      <trkpt lat="43.64012" lon="3.43308">
        <ele>109.59999847412</ele>
        <time>2019-12-12T12:46:17Z</time>
      </trkpt>
      <trkpt lat="43.64036" lon="3.43285">
        <ele>110</ele>
        <time>2019-12-12T12:46:24Z</time>
      </trkpt>
      <trkpt lat="43.64039" lon="3.43283">
        <ele>110.19999694824</ele>
        <time>2019-12-12T12:46:25Z</time>
      </trkpt>
      <trkpt lat="43.64054" lon="3.43277">
        <ele>111</ele>
        <time>2019-12-12T12:46:30Z</time>
      </trkpt>
      <trkpt lat="43.64057" lon="3.43276">
        <ele>111.19999694824</ele>
        <time>2019-12-12T12:46:31Z</time>
      </trkpt>
      <trkpt lat="43.64067" lon="3.43274">
        <ele>112.19999694824</ele>
        <time>2019-12-12T12:46:34Z</time>
      </trkpt>
      <trkpt lat="43.64078" lon="3.43273">
        <ele>112.59999847412</ele>
        <time>2019-12-12T12:46:37Z</time>
      </trkpt>
      <trkpt lat="43.64082" lon="3.43273">
        <ele>112.80000305176</ele>
        <time>2019-12-12T12:46:38Z</time>
      </trkpt>
      <trkpt lat="43.64091" lon="3.43275">
        <ele>112.80000305176</ele>
        <time>2019-12-12T12:46:41Z</time>
      </trkpt>
      <trkpt lat="43.64102" lon="3.43283">
        <ele>112.80000305176</ele>
        <time>2019-12-12T12:46:43Z</time>
      </trkpt>
      <trkpt lat="43.64112" lon="3.43295">
        <ele>113</ele>
        <time>2019-12-12T12:46:46Z</time>
      </trkpt>
      <trkpt lat="43.64118" lon="3.43304">
        <ele>113</ele>
        <time>2019-12-12T12:46:48Z</time>
      </trkpt>
      <trkpt lat="43.64122" lon="3.43308">
        <ele>113</ele>
        <time>2019-12-12T12:46:49Z</time>
      </trkpt>
      <trkpt lat="43.64125" lon="3.43311">
        <ele>113</ele>
        <time>2019-12-12T12:46:51Z</time>
      </trkpt>
      <trkpt lat="43.64134" lon="3.43315">
        <ele>113</ele>
        <time>2019-12-12T12:46:53Z</time>
      </trkpt>
      <trkpt lat="43.64139" lon="3.43315">
        <ele>113</ele>
        <time>2019-12-12T12:46:54Z</time>
      </trkpt>
      <trkpt lat="43.64151" lon="3.43313">
        <ele>113</ele>
        <time>2019-12-12T12:46:57Z</time>
      </trkpt>
      <trkpt lat="43.64159" lon="3.43311">
        <ele>113.40000152588</ele>
        <time>2019-12-12T12:46:59Z</time>
      </trkpt>
      <trkpt lat="43.64173" lon="3.43305">
        <ele>114.59999847412</ele>
        <time>2019-12-12T12:47:03Z</time>
      </trkpt>
      <trkpt lat="43.64187" lon="3.43298">
        <ele>115.59999847412</ele>
        <time>2019-12-12T12:47:07Z</time>
      </trkpt>
      <trkpt lat="43.64198" lon="3.43291">
        <ele>116.80000305176</ele>
        <time>2019-12-12T12:47:10Z</time>
      </trkpt>
      <trkpt lat="43.64216" lon="3.43281">
        <ele>117.80000305176</ele>
        <time>2019-12-12T12:47:15Z</time>
      </trkpt>
      <trkpt lat="43.64231" lon="3.43275">
        <ele>118.59999847412</ele>
        <time>2019-12-12T12:47:19Z</time>
      </trkpt>
      <trkpt lat="43.64234" lon="3.43273">
        <ele>118.80000305176</ele>
        <time>2019-12-12T12:47:20Z</time>
      </trkpt>
      <trkpt lat="43.64252" lon="3.43265">
        <ele>120</ele>
        <time>2019-12-12T12:47:25Z</time>
      </trkpt>
      <trkpt lat="43.6426" lon="3.43262">
        <ele>120.40000152588</ele>
        <time>2019-12-12T12:47:27Z</time>
      </trkpt>
      <trkpt lat="43.64268" lon="3.43261">
        <ele>121</ele>
        <time>2019-12-12T12:47:29Z</time>
      </trkpt>
      <trkpt lat="43.64286" lon="3.43258">
        <ele>122.40000152588</ele>
        <time>2019-12-12T12:47:34Z</time>
      </trkpt>
      <trkpt lat="43.64294" lon="3.43257">
        <ele>123</ele>
        <time>2019-12-12T12:47:36Z</time>
      </trkpt>
      <trkpt lat="43.64302" lon="3.43256">
        <ele>123.59999847412</ele>
        <time>2019-12-12T12:47:38Z</time>
      </trkpt>
      <trkpt lat="43.64321" lon="3.43254">
        <ele>124.59999847412</ele>
        <time>2019-12-12T12:47:43Z</time>
      </trkpt>
      <trkpt lat="43.64332" lon="3.43253">
        <ele>125.19999694824</ele>
        <time>2019-12-12T12:47:46Z</time>
      </trkpt>
      <trkpt lat="43.64343" lon="3.43252">
        <ele>125.80000305176</ele>
        <time>2019-12-12T12:47:49Z</time>
      </trkpt>
      <trkpt lat="43.64357" lon="3.43251">
        <ele>126.80000305176</ele>
        <time>2019-12-12T12:47:53Z</time>
      </trkpt>
      <trkpt lat="43.64361" lon="3.43251">
        <ele>127</ele>
        <time>2019-12-12T12:47:54Z</time>
      </trkpt>
      <trkpt lat="43.64373" lon="3.43252">
        <ele>127.59999847412</ele>
        <time>2019-12-12T12:47:58Z</time>
      </trkpt>
      <trkpt lat="43.64374" lon="3.43255">
        <ele>127.80000305176</ele>
        <time>2019-12-12T12:47:59Z</time>
      </trkpt>
      <trkpt lat="43.64368" lon="3.43261">
        <ele>128.80000305176</ele>
        <time>2019-12-12T12:48:02Z</time>
      </trkpt>
      <trkpt lat="43.64362" lon="3.43263">
        <ele>129.39999389648</ele>
        <time>2019-12-12T12:48:04Z</time>
      </trkpt>
      <trkpt lat="43.6435" lon="3.43266">
        <ele>130</ele>
        <time>2019-12-12T12:48:08Z</time>
      </trkpt>
      <trkpt lat="43.6434" lon="3.43269">
        <ele>131</ele>
        <time>2019-12-12T12:48:11Z</time>
      </trkpt>
      <trkpt lat="43.64337" lon="3.4327">
        <ele>131.19999694824</ele>
        <time>2019-12-12T12:48:12Z</time>
      </trkpt>
      <trkpt lat="43.64318" lon="3.43278">
        <ele>132.19999694824</ele>
        <time>2019-12-12T12:48:18Z</time>
      </trkpt>
      <trkpt lat="43.64312" lon="3.43281">
        <ele>132.60000610352</ele>
        <time>2019-12-12T12:48:20Z</time>
      </trkpt>
      <trkpt lat="43.64296" lon="3.43288">
        <ele>133.39999389648</ele>
        <time>2019-12-12T12:48:25Z</time>
      </trkpt>
      <trkpt lat="43.64281" lon="3.43295">
        <ele>134.60000610352</ele>
        <time>2019-12-12T12:48:30Z</time>
      </trkpt>
      <trkpt lat="43.64269" lon="3.43303">
        <ele>135.60000610352</ele>
        <time>2019-12-12T12:48:34Z</time>
      </trkpt>
      <trkpt lat="43.6426" lon="3.43309">
        <ele>136.19999694824</ele>
        <time>2019-12-12T12:48:37Z</time>
      </trkpt>
      <trkpt lat="43.64251" lon="3.43317">
        <ele>136.80000305176</ele>
        <time>2019-12-12T12:48:40Z</time>
      </trkpt>
      <trkpt lat="43.64234" lon="3.43333">
        <ele>138</ele>
        <time>2019-12-12T12:48:46Z</time>
      </trkpt>
      <trkpt lat="43.6423" lon="3.43335">
        <ele>138.19999694824</ele>
        <time>2019-12-12T12:48:47Z</time>
      </trkpt>
      <trkpt lat="43.64216" lon="3.43349">
        <ele>139.19999694824</ele>
        <time>2019-12-12T12:48:52Z</time>
      </trkpt>
      <trkpt lat="43.64201" lon="3.43362">
        <ele>140.39999389648</ele>
        <time>2019-12-12T12:48:57Z</time>
      </trkpt>
      <trkpt lat="43.64198" lon="3.43365">
        <ele>140.60000610352</ele>
        <time>2019-12-12T12:48:58Z</time>
      </trkpt>
      <trkpt lat="43.64184" lon="3.43379">
        <ele>141.60000610352</ele>
        <time>2019-12-12T12:49:03Z</time>
      </trkpt>
      <trkpt lat="43.64175" lon="3.43387">
        <ele>142.19999694824</ele>
        <time>2019-12-12T12:49:06Z</time>
      </trkpt>
      <trkpt lat="43.64164" lon="3.43399">
        <ele>142.60000610352</ele>
        <time>2019-12-12T12:49:10Z</time>
      </trkpt>
      <trkpt lat="43.64151" lon="3.43416">
        <ele>144</ele>
        <time>2019-12-12T12:49:15Z</time>
      </trkpt>
      <trkpt lat="43.64148" lon="3.4343">
        <ele>144.80000305176</ele>
        <time>2019-12-12T12:49:18Z</time>
      </trkpt>
      <trkpt lat="43.6415" lon="3.43436">
        <ele>145</ele>
        <time>2019-12-12T12:49:19Z</time>
      </trkpt>
      <trkpt lat="43.64161" lon="3.4344">
        <ele>145.60000610352</ele>
        <time>2019-12-12T12:49:22Z</time>
      </trkpt>
      <trkpt lat="43.64168" lon="3.43436">
        <ele>145.80000305176</ele>
        <time>2019-12-12T12:49:24Z</time>
      </trkpt>
      <trkpt lat="43.64171" lon="3.43434">
        <ele>146</ele>
        <time>2019-12-12T12:49:25Z</time>
      </trkpt>
      <trkpt lat="43.64174" lon="3.43431">
        <ele>146.19999694824</ele>
        <time>2019-12-12T12:49:26Z</time>
      </trkpt>
      <trkpt lat="43.64193" lon="3.43419">
        <ele>147.60000610352</ele>
        <time>2019-12-12T12:49:32Z</time>
      </trkpt>
      <trkpt lat="43.64203" lon="3.43414">
        <ele>148.60000610352</ele>
        <time>2019-12-12T12:49:35Z</time>
      </trkpt>
      <trkpt lat="43.64212" lon="3.4341">
        <ele>149.19999694824</ele>
        <time>2019-12-12T12:49:38Z</time>
      </trkpt>
      <trkpt lat="43.64215" lon="3.4341">
        <ele>149.60000610352</ele>
        <time>2019-12-12T12:49:39Z</time>
      </trkpt>
      <trkpt lat="43.64232" lon="3.43406">
        <ele>150.80000305176</ele>
        <time>2019-12-12T12:49:45Z</time>
      </trkpt>
      <trkpt lat="43.64241" lon="3.43404">
        <ele>151.80000305176</ele>
        <time>2019-12-12T12:49:48Z</time>
      </trkpt>
      <trkpt lat="43.64254" lon="3.43402">
        <ele>152.80000305176</ele>
        <time>2019-12-12T12:49:52Z</time>
      </trkpt>
      <trkpt lat="43.64259" lon="3.43401">
        <ele>153.39999389648</ele>
        <time>2019-12-12T12:49:54Z</time>
      </trkpt>
      <trkpt lat="43.64273" lon="3.43398">
        <ele>154.60000610352</ele>
        <time>2019-12-12T12:49:58Z</time>
      </trkpt>
      <trkpt lat="43.64286" lon="3.43397">
        <ele>155.80000305176</ele>
        <time>2019-12-12T12:50:02Z</time>
      </trkpt>
      <trkpt lat="43.6429" lon="3.43397">
        <ele>156</ele>
        <time>2019-12-12T12:50:03Z</time>
      </trkpt>
      <trkpt lat="43.64303" lon="3.43398">
        <ele>157</ele>
        <time>2019-12-12T12:50:07Z</time>
      </trkpt>
      <trkpt lat="43.64316" lon="3.43401">
        <ele>158</ele>
        <time>2019-12-12T12:50:11Z</time>
      </trkpt>
      <trkpt lat="43.64319" lon="3.43402">
        <ele>158.19999694824</ele>
        <time>2019-12-12T12:50:12Z</time>
      </trkpt>
      <trkpt lat="43.64332" lon="3.43404">
        <ele>159</ele>
        <time>2019-12-12T12:50:16Z</time>
      </trkpt>
      <trkpt lat="43.64347" lon="3.43408">
        <ele>160.19999694824</ele>
        <time>2019-12-12T12:50:21Z</time>
      </trkpt>
      <trkpt lat="43.64359" lon="3.43412">
        <ele>161.39999389648</ele>
        <time>2019-12-12T12:50:25Z</time>
      </trkpt>
      <trkpt lat="43.64374" lon="3.43419">
        <ele>162.60000610352</ele>
        <time>2019-12-12T12:50:30Z</time>
      </trkpt>
      <trkpt lat="43.6438" lon="3.43422">
        <ele>163.19999694824</ele>
        <time>2019-12-12T12:50:32Z</time>
      </trkpt>
      <trkpt lat="43.64386" lon="3.43425">
        <ele>163.80000305176</ele>
        <time>2019-12-12T12:50:34Z</time>
      </trkpt>
      <trkpt lat="43.64399" lon="3.43434">
        <ele>165</ele>
        <time>2019-12-12T12:50:39Z</time>
      </trkpt>
      <trkpt lat="43.64405" lon="3.43438">
        <ele>165.60000610352</ele>
        <time>2019-12-12T12:50:41Z</time>
      </trkpt>
      <trkpt lat="43.64414" lon="3.43444">
        <ele>166.19999694824</ele>
        <time>2019-12-12T12:50:44Z</time>
      </trkpt>
      <trkpt lat="43.6443" lon="3.43456">
        <ele>167.39999389648</ele>
        <time>2019-12-12T12:50:50Z</time>
      </trkpt>
      <trkpt lat="43.64444" lon="3.43465">
        <ele>168.60000610352</ele>
        <time>2019-12-12T12:50:55Z</time>
      </trkpt>
      <trkpt lat="43.64449" lon="3.43469">
        <ele>169</ele>
        <time>2019-12-12T12:50:57Z</time>
      </trkpt>
      <trkpt lat="43.64455" lon="3.43472">
        <ele>169.60000610352</ele>
        <time>2019-12-12T12:50:59Z</time>
      </trkpt>
      <trkpt lat="43.64467" lon="3.43479">
        <ele>170.60000610352</ele>
        <time>2019-12-12T12:51:03Z</time>
      </trkpt>
      <trkpt lat="43.64473" lon="3.43482">
        <ele>171.19999694824</ele>
        <time>2019-12-12T12:51:05Z</time>
      </trkpt>
      <trkpt lat="43.64482" lon="3.43488">
        <ele>172</ele>
        <time>2019-12-12T12:51:08Z</time>
      </trkpt>
      <trkpt lat="43.64492" lon="3.43495">
        <ele>173.19999694824</ele>
        <time>2019-12-12T12:51:12Z</time>
      </trkpt>
      <trkpt lat="43.64506" lon="3.43504">
        <ele>174.39999389648</ele>
        <time>2019-12-12T12:51:17Z</time>
      </trkpt>
      <trkpt lat="43.6451" lon="3.43509">
        <ele>175</ele>
        <time>2019-12-12T12:51:19Z</time>
      </trkpt>
      <trkpt lat="43.64512" lon="3.43517">
        <ele>175.60000610352</ele>
        <time>2019-12-12T12:51:21Z</time>
      </trkpt>
      <trkpt lat="43.64513" lon="3.43526">
        <ele>176</ele>
        <time>2019-12-12T12:51:23Z</time>
      </trkpt>
      <trkpt lat="43.64513" lon="3.43541">
        <ele>176.80000305176</ele>
        <time>2019-12-12T12:51:26Z</time>
      </trkpt>
      <trkpt lat="43.64513" lon="3.43565">
        <ele>178</ele>
        <time>2019-12-12T12:51:31Z</time>
      </trkpt>
      <trkpt lat="43.64514" lon="3.4357">
        <ele>178.19999694824</ele>
        <time>2019-12-12T12:51:32Z</time>
      </trkpt>
      <trkpt lat="43.64514" lon="3.4359">
        <ele>179.19999694824</ele>
        <time>2019-12-12T12:51:36Z</time>
      </trkpt>
      <trkpt lat="43.64514" lon="3.43604">
        <ele>179.80000305176</ele>
        <time>2019-12-12T12:51:39Z</time>
      </trkpt>
      <trkpt lat="43.64514" lon="3.43613">
        <ele>180.39999389648</ele>
        <time>2019-12-12T12:51:41Z</time>
      </trkpt>
      <trkpt lat="43.64514" lon="3.43636">
        <ele>181.39999389648</ele>
        <time>2019-12-12T12:51:46Z</time>
      </trkpt>
      <trkpt lat="43.64514" lon="3.43641">
        <ele>181.60000610352</ele>
        <time>2019-12-12T12:51:47Z</time>
      </trkpt>
      <trkpt lat="43.64516" lon="3.43668">
        <ele>182</ele>
        <time>2019-12-12T12:51:52Z</time>
      </trkpt>
      <trkpt lat="43.64518" lon="3.43674">
        <ele>182</ele>
        <time>2019-12-12T12:51:53Z</time>
      </trkpt>
      <trkpt lat="43.6453" lon="3.43692">
        <ele>182</ele>
        <time>2019-12-12T12:51:57Z</time>
      </trkpt>
      <trkpt lat="43.64555" lon="3.43705">
        <ele>181.39999389648</ele>
        <time>2019-12-12T12:52:03Z</time>
      </trkpt>
      <trkpt lat="43.6456" lon="3.43706">
        <ele>181</ele>
        <time>2019-12-12T12:52:04Z</time>
      </trkpt>
      <trkpt lat="43.6458" lon="3.43715">
        <ele>180.60000610352</ele>
        <time>2019-12-12T12:52:08Z</time>
      </trkpt>
      <trkpt lat="43.64591" lon="3.43718">
        <ele>180.39999389648</ele>
        <time>2019-12-12T12:52:10Z</time>
      </trkpt>
      <trkpt lat="43.64613" lon="3.43719">
        <ele>179.80000305176</ele>
        <time>2019-12-12T12:52:14Z</time>
      </trkpt>
      <trkpt lat="43.64619" lon="3.43719">
        <ele>179.60000610352</ele>
        <time>2019-12-12T12:52:15Z</time>
      </trkpt>
      <trkpt lat="43.64647" lon="3.43724">
        <ele>177.60000610352</ele>
        <time>2019-12-12T12:52:18Z</time>
      </trkpt>
      <trkpt lat="43.64655" lon="3.43726">
        <ele>177</ele>
        <time>2019-12-12T12:52:19Z</time>
      </trkpt>
      <trkpt lat="43.64662" lon="3.43729">
        <ele>176.60000610352</ele>
        <time>2019-12-12T12:52:20Z</time>
      </trkpt>
      <trkpt lat="43.64679" lon="3.43737">
        <ele>175.19999694824</ele>
        <time>2019-12-12T12:52:23Z</time>
      </trkpt>
      <trkpt lat="43.64703" lon="3.4375">
        <ele>173.80000305176</ele>
        <time>2019-12-12T12:52:25Z</time>
      </trkpt>
      <trkpt lat="43.64712" lon="3.43755">
        <ele>171.80000305176</ele>
        <time>2019-12-12T12:52:27Z</time>
      </trkpt>
      <trkpt lat="43.64729" lon="3.43761">
        <ele>170.19999694824</ele>
        <time>2019-12-12T12:52:29Z</time>
      </trkpt>
      <trkpt lat="43.64738" lon="3.43763">
        <ele>169.39999389648</ele>
        <time>2019-12-12T12:52:30Z</time>
      </trkpt>
      <trkpt lat="43.64748" lon="3.43765">
        <ele>168.80000305176</ele>
        <time>2019-12-12T12:52:31Z</time>
      </trkpt>
      <trkpt lat="43.64796" lon="3.43767">
        <ele>167</ele>
        <time>2019-12-12T12:52:35Z</time>
      </trkpt>
      <trkpt lat="43.64804" lon="3.43765">
        <ele>165.39999389648</ele>
        <time>2019-12-12T12:52:37Z</time>
      </trkpt>
      <trkpt lat="43.64821" lon="3.43762">
        <ele>164.39999389648</ele>
        <time>2019-12-12T12:52:38Z</time>
      </trkpt>
      <trkpt lat="43.64821" lon="3.43762">
        <ele>163.60000610352</ele>
        <time>2019-12-12T12:52:39Z</time>
      </trkpt>
      <trkpt lat="43.64844" lon="3.43753">
        <ele>162.80000305176</ele>
        <time>2019-12-12T12:52:41Z</time>
      </trkpt>
      <trkpt lat="43.64851" lon="3.4375">
        <ele>162.39999389648</ele>
        <time>2019-12-12T12:52:43Z</time>
      </trkpt>
      <trkpt lat="43.64898" lon="3.43731">
        <ele>162.39999389648</ele>
        <time>2019-12-12T12:52:49Z</time>
      </trkpt>
      <trkpt lat="43.64939" lon="3.43714">
        <ele>162.60000610352</ele>
        <time>2019-12-12T12:52:55Z</time>
      </trkpt>
      <trkpt lat="43.64987" lon="3.43693">
        <ele>162.19999694824</ele>
        <time>2019-12-12T12:53:01Z</time>
      </trkpt>
      <trkpt lat="43.65004" lon="3.43684">
        <ele>161.19999694824</ele>
        <time>2019-12-12T12:53:03Z</time>
      </trkpt>
      <trkpt lat="43.65021" lon="3.43676">
        <ele>159.80000305176</ele>
        <time>2019-12-12T12:53:05Z</time>
      </trkpt>
      <trkpt lat="43.65047" lon="3.43663">
        <ele>158</ele>
        <time>2019-12-12T12:53:08Z</time>
      </trkpt>
      <trkpt lat="43.65064" lon="3.43655">
        <ele>156.80000305176</ele>
        <time>2019-12-12T12:53:10Z</time>
      </trkpt>
      <trkpt lat="43.65081" lon="3.43646">
        <ele>155.60000610352</ele>
        <time>2019-12-12T12:53:12Z</time>
      </trkpt>
      <trkpt lat="43.65105" lon="3.43633">
        <ele>153.80000305176</ele>
        <time>2019-12-12T12:53:15Z</time>
      </trkpt>
      <trkpt lat="43.6513" lon="3.4362">
        <ele>152.60000610352</ele>
        <time>2019-12-12T12:53:18Z</time>
      </trkpt>
      <trkpt lat="43.65139" lon="3.43616">
        <ele>151.39999389648</ele>
        <time>2019-12-12T12:53:20Z</time>
      </trkpt>
      <trkpt lat="43.65172" lon="3.436">
        <ele>150</ele>
        <time>2019-12-12T12:53:23Z</time>
      </trkpt>
      <trkpt lat="43.6518" lon="3.43595">
        <ele>149</ele>
        <time>2019-12-12T12:53:25Z</time>
      </trkpt>
      <trkpt lat="43.65196" lon="3.43584">
        <ele>147.80000305176</ele>
        <time>2019-12-12T12:53:27Z</time>
      </trkpt>
      <trkpt lat="43.65218" lon="3.43565">
        <ele>146.60000610352</ele>
        <time>2019-12-12T12:53:29Z</time>
      </trkpt>
      <trkpt lat="43.65239" lon="3.43545">
        <ele>145.39999389648</ele>
        <time>2019-12-12T12:53:32Z</time>
      </trkpt>
      <trkpt lat="43.65268" lon="3.4352">
        <ele>144.39999389648</ele>
        <time>2019-12-12T12:53:36Z</time>
      </trkpt>
      <trkpt lat="43.65282" lon="3.43507">
        <ele>144.19999694824</ele>
        <time>2019-12-12T12:53:38Z</time>
      </trkpt>
      <trkpt lat="43.65298" lon="3.43496">
        <ele>143.39999389648</ele>
        <time>2019-12-12T12:53:40Z</time>
      </trkpt>
      <trkpt lat="43.65314" lon="3.43486">
        <ele>141.80000305176</ele>
        <time>2019-12-12T12:53:42Z</time>
      </trkpt>
      <trkpt lat="43.65322" lon="3.43483">
        <ele>141.19999694824</ele>
        <time>2019-12-12T12:53:43Z</time>
      </trkpt>
      <trkpt lat="43.65331" lon="3.4348">
        <ele>140.39999389648</ele>
        <time>2019-12-12T12:53:44Z</time>
      </trkpt>
      <trkpt lat="43.6534" lon="3.43477">
        <ele>140</ele>
        <time>2019-12-12T12:53:45Z</time>
      </trkpt>
      <trkpt lat="43.65348" lon="3.43474">
        <ele>139.19999694824</ele>
        <time>2019-12-12T12:53:46Z</time>
      </trkpt>
      <trkpt lat="43.65366" lon="3.43468">
        <ele>137.60000610352</ele>
        <time>2019-12-12T12:53:48Z</time>
      </trkpt>
      <trkpt lat="43.65374" lon="3.43465">
        <ele>137</ele>
        <time>2019-12-12T12:53:49Z</time>
      </trkpt>
      <trkpt lat="43.65374" lon="3.43465">
        <ele>136.39999389648</ele>
        <time>2019-12-12T12:53:50Z</time>
      </trkpt>
      <trkpt lat="43.65383" lon="3.4346">
        <ele>136.19999694824</ele>
        <time>2019-12-12T12:53:51Z</time>
      </trkpt>
      <trkpt lat="43.65398" lon="3.43448">
        <ele>135.80000305176</ele>
        <time>2019-12-12T12:53:53Z</time>
      </trkpt>
      <trkpt lat="43.65412" lon="3.43436">
        <ele>135.19999694824</ele>
        <time>2019-12-12T12:53:55Z</time>
      </trkpt>
      <trkpt lat="43.65435" lon="3.43421">
        <ele>134</ele>
        <time>2019-12-12T12:53:57Z</time>
      </trkpt>
      <trkpt lat="43.65435" lon="3.43421">
        <ele>133.19999694824</ele>
        <time>2019-12-12T12:53:58Z</time>
      </trkpt>
      <trkpt lat="43.65444" lon="3.43418">
        <ele>132.60000610352</ele>
        <time>2019-12-12T12:53:59Z</time>
      </trkpt>
      <trkpt lat="43.6548" lon="3.43413">
        <ele>131.39999389648</ele>
        <time>2019-12-12T12:54:02Z</time>
      </trkpt>
      <trkpt lat="43.65517" lon="3.43399">
        <ele>130.19999694824</ele>
        <time>2019-12-12T12:54:06Z</time>
      </trkpt>
      <trkpt lat="43.65526" lon="3.43394">
        <ele>129.39999389648</ele>
        <time>2019-12-12T12:54:07Z</time>
      </trkpt>
      <trkpt lat="43.65534" lon="3.43389">
        <ele>128.60000610352</ele>
        <time>2019-12-12T12:54:08Z</time>
      </trkpt>
      <trkpt lat="43.65543" lon="3.43383">
        <ele>127.19999694824</ele>
        <time>2019-12-12T12:54:10Z</time>
      </trkpt>
      <trkpt lat="43.65551" lon="3.43378">
        <ele>126</ele>
        <time>2019-12-12T12:54:11Z</time>
      </trkpt>
      <trkpt lat="43.6556" lon="3.43374">
        <ele>125.40000152588</ele>
        <time>2019-12-12T12:54:12Z</time>
      </trkpt>
      <trkpt lat="43.65578" lon="3.43368">
        <ele>124.80000305176</ele>
        <time>2019-12-12T12:54:13Z</time>
      </trkpt>
      <trkpt lat="43.65612" lon="3.43352">
        <ele>123.40000152588</ele>
        <time>2019-12-12T12:54:18Z</time>
      </trkpt>
      <trkpt lat="43.65628" lon="3.43342">
        <ele>123</ele>
        <time>2019-12-12T12:54:19Z</time>
      </trkpt>
      <trkpt lat="43.65636" lon="3.43337">
        <ele>122.19999694824</ele>
        <time>2019-12-12T12:54:21Z</time>
      </trkpt>
      <trkpt lat="43.65651" lon="3.43324">
        <ele>122</ele>
        <time>2019-12-12T12:54:22Z</time>
      </trkpt>
      <trkpt lat="43.65658" lon="3.43317">
        <ele>121.40000152588</ele>
        <time>2019-12-12T12:54:24Z</time>
      </trkpt>
      <trkpt lat="43.65672" lon="3.43306">
        <ele>120.80000305176</ele>
        <time>2019-12-12T12:54:25Z</time>
      </trkpt>
      <trkpt lat="43.65678" lon="3.433">
        <ele>120</ele>
        <time>2019-12-12T12:54:26Z</time>
      </trkpt>
      <trkpt lat="43.65678" lon="3.433">
        <ele>119.59999847412</ele>
        <time>2019-12-12T12:54:27Z</time>
      </trkpt>
      <trkpt lat="43.65683" lon="3.43293">
        <ele>119</ele>
        <time>2019-12-12T12:54:28Z</time>
      </trkpt>
      <trkpt lat="43.65687" lon="3.43274">
        <ele>118.40000152588</ele>
        <time>2019-12-12T12:54:29Z</time>
      </trkpt>
      <trkpt lat="43.65687" lon="3.43252">
        <ele>117.40000152588</ele>
        <time>2019-12-12T12:54:31Z</time>
      </trkpt>
      <trkpt lat="43.65684" lon="3.4323">
        <ele>116.40000152588</ele>
        <time>2019-12-12T12:54:33Z</time>
      </trkpt>
      <trkpt lat="43.65682" lon="3.43218">
        <ele>116.19999694824</ele>
        <time>2019-12-12T12:54:34Z</time>
      </trkpt>
      <trkpt lat="43.65672" lon="3.43185">
        <ele>115.59999847412</ele>
        <time>2019-12-12T12:54:37Z</time>
      </trkpt>
      <trkpt lat="43.65662" lon="3.43165">
        <ele>115.19999694824</ele>
        <time>2019-12-12T12:54:39Z</time>
      </trkpt>
      <trkpt lat="43.65659" lon="3.43143">
        <ele>114.19999694824</ele>
        <time>2019-12-12T12:54:41Z</time>
      </trkpt>
      <trkpt lat="43.6566" lon="3.43132">
        <ele>113.19999694824</ele>
        <time>2019-12-12T12:54:42Z</time>
      </trkpt>
      <trkpt lat="43.65661" lon="3.43121">
        <ele>112.19999694824</ele>
        <time>2019-12-12T12:54:44Z</time>
      </trkpt>
      <trkpt lat="43.65666" lon="3.43104">
        <ele>111.59999847412</ele>
        <time>2019-12-12T12:54:45Z</time>
      </trkpt>
      <trkpt lat="43.65666" lon="3.43104">
        <ele>111.19999694824</ele>
        <time>2019-12-12T12:54:46Z</time>
      </trkpt>
      <trkpt lat="43.65671" lon="3.431">
        <ele>110.59999847412</ele>
        <time>2019-12-12T12:54:47Z</time>
      </trkpt>
      <trkpt lat="43.65679" lon="3.43104">
        <ele>110.19999694824</ele>
        <time>2019-12-12T12:54:48Z</time>
      </trkpt>
      <trkpt lat="43.6568" lon="3.43109">
        <ele>109.80000305176</ele>
        <time>2019-12-12T12:54:49Z</time>
      </trkpt>
      <trkpt lat="43.6568" lon="3.43117">
        <ele>109.40000152588</ele>
        <time>2019-12-12T12:54:50Z</time>
      </trkpt>
      <trkpt lat="43.6568" lon="3.43117">
        <ele>109.19999694824</ele>
        <time>2019-12-12T12:54:51Z</time>
      </trkpt>
      <trkpt lat="43.65682" lon="3.43134">
        <ele>109</ele>
        <time>2019-12-12T12:54:52Z</time>
      </trkpt>
      <trkpt lat="43.65686" lon="3.43153">
        <ele>108.80000305176</ele>
        <time>2019-12-12T12:54:54Z</time>
      </trkpt>
      <trkpt lat="43.65694" lon="3.43171">
        <ele>108.59999847412</ele>
        <time>2019-12-12T12:54:56Z</time>
      </trkpt>
      <trkpt lat="43.65704" lon="3.43189">
        <ele>108.19999694824</ele>
        <time>2019-12-12T12:54:58Z</time>
      </trkpt>
      <trkpt lat="43.6572" lon="3.43217">
        <ele>107.40000152588</ele>
        <time>2019-12-12T12:55:01Z</time>
      </trkpt>
      <trkpt lat="43.65737" lon="3.43244">
        <ele>106</ele>
        <time>2019-12-12T12:55:04Z</time>
      </trkpt>
      <trkpt lat="43.65743" lon="3.43254">
        <ele>105.59999847412</ele>
        <time>2019-12-12T12:55:05Z</time>
      </trkpt>
      <trkpt lat="43.65749" lon="3.43265">
        <ele>104.59999847412</ele>
        <time>2019-12-12T12:55:07Z</time>
      </trkpt>
      <trkpt lat="43.6576" lon="3.43286">
        <ele>103.19999694824</ele>
        <time>2019-12-12T12:55:09Z</time>
      </trkpt>
      <trkpt lat="43.65769" lon="3.43311">
        <ele>101</ele>
        <time>2019-12-12T12:55:11Z</time>
      </trkpt>
      <trkpt lat="43.65775" lon="3.43335">
        <ele>98.800003051758</ele>
        <time>2019-12-12T12:55:13Z</time>
      </trkpt>
      <trkpt lat="43.65786" lon="3.43361">
        <ele>97.800003051758</ele>
        <time>2019-12-12T12:55:15Z</time>
      </trkpt>
      <trkpt lat="43.65797" lon="3.43366">
        <ele>96</ele>
        <time>2019-12-12T12:55:17Z</time>
      </trkpt>
      <trkpt lat="43.65803" lon="3.43365">
        <ele>95</ele>
        <time>2019-12-12T12:55:18Z</time>
      </trkpt>
      <trkpt lat="43.65808" lon="3.43363">
        <ele>94.199996948242</ele>
        <time>2019-12-12T12:55:19Z</time>
      </trkpt>
      <trkpt lat="43.65808" lon="3.43363">
        <ele>93.800003051758</ele>
        <time>2019-12-12T12:55:20Z</time>
      </trkpt>
      <trkpt lat="43.65835" lon="3.4335">
        <ele>93.199996948242</ele>
        <time>2019-12-12T12:55:24Z</time>
      </trkpt>
      <trkpt lat="43.65841" lon="3.43347">
        <ele>93.199996948242</ele>
        <time>2019-12-12T12:55:25Z</time>
      </trkpt>
      <trkpt lat="43.65877" lon="3.43325">
        <ele>93</ele>
        <time>2019-12-12T12:55:31Z</time>
      </trkpt>
      <trkpt lat="43.65889" lon="3.43318">
        <ele>92.800003051758</ele>
        <time>2019-12-12T12:55:33Z</time>
      </trkpt>
      <trkpt lat="43.65903" lon="3.43304">
        <ele>92.800003051758</ele>
        <time>2019-12-12T12:55:36Z</time>
      </trkpt>
      <trkpt lat="43.65926" lon="3.43273">
        <ele>93.199996948242</ele>
        <time>2019-12-12T12:55:42Z</time>
      </trkpt>
      <trkpt lat="43.65948" lon="3.43242">
        <ele>93.599998474121</ele>
        <time>2019-12-12T12:55:49Z</time>
      </trkpt>
      <trkpt lat="43.65978" lon="3.432">
        <ele>93.800003051758</ele>
        <time>2019-12-12T12:55:56Z</time>
      </trkpt>
      <trkpt lat="43.65981" lon="3.43194">
        <ele>94</ele>
        <time>2019-12-12T12:55:57Z</time>
      </trkpt>
      <trkpt lat="43.65988" lon="3.43167">
        <ele>94</ele>
        <time>2019-12-12T12:56:01Z</time>
      </trkpt>
      <trkpt lat="43.65991" lon="3.43149">
        <ele>94</ele>
        <time>2019-12-12T12:56:04Z</time>
      </trkpt>
      <trkpt lat="43.65991" lon="3.43145">
        <ele>94</ele>
        <time>2019-12-12T12:56:05Z</time>
      </trkpt>
      <trkpt lat="43.65995" lon="3.43132">
        <ele>94.199996948242</ele>
        <time>2019-12-12T12:56:08Z</time>
      </trkpt>
      <trkpt lat="43.65997" lon="3.43127">
        <ele>94.199996948242</ele>
        <time>2019-12-12T12:56:09Z</time>
      </trkpt>
      <trkpt lat="43.6601" lon="3.43121">
        <ele>94.199996948242</ele>
        <time>2019-12-12T12:56:12Z</time>
      </trkpt>
      <trkpt lat="43.66015" lon="3.43119">
        <ele>94.199996948242</ele>
        <time>2019-12-12T12:56:13Z</time>
      </trkpt>
      <trkpt lat="43.66029" lon="3.43113">
        <ele>94.199996948242</ele>
        <time>2019-12-12T12:56:16Z</time>
      </trkpt>
      <trkpt lat="43.66042" lon="3.43101">
        <ele>94.199996948242</ele>
        <time>2019-12-12T12:56:19Z</time>
      </trkpt>
      <trkpt lat="43.66046" lon="3.43097">
        <ele>94.199996948242</ele>
        <time>2019-12-12T12:56:20Z</time>
      </trkpt>
      <trkpt lat="43.66062" lon="3.4307">
        <ele>94.400001525879</ele>
        <time>2019-12-12T12:56:25Z</time>
      </trkpt>
      <trkpt lat="43.6607" lon="3.43058">
        <ele>94.400001525879</ele>
        <time>2019-12-12T12:56:27Z</time>
      </trkpt>
      <trkpt lat="43.6608" lon="3.43049">
        <ele>94.199996948242</ele>
        <time>2019-12-12T12:56:29Z</time>
      </trkpt>
      <trkpt lat="43.66091" lon="3.43045">
        <ele>94.199996948242</ele>
        <time>2019-12-12T12:56:31Z</time>
      </trkpt>
      <trkpt lat="43.66101" lon="3.43046">
        <ele>94</ele>
        <time>2019-12-12T12:56:33Z</time>
      </trkpt>
      <trkpt lat="43.66126" lon="3.43056">
        <ele>94</ele>
        <time>2019-12-12T12:56:38Z</time>
      </trkpt>
      <trkpt lat="43.66157" lon="3.43061">
        <ele>93.599998474121</ele>
        <time>2019-12-12T12:56:44Z</time>
      </trkpt>
      <trkpt lat="43.66168" lon="3.43065">
        <ele>93.599998474121</ele>
        <time>2019-12-12T12:56:46Z</time>
      </trkpt>
      <trkpt lat="43.66187" lon="3.43073">
        <ele>93.400001525879</ele>
        <time>2019-12-12T12:56:50Z</time>
      </trkpt>
      <trkpt lat="43.66229" lon="3.43088">
        <ele>93.400001525879</ele>
        <time>2019-12-12T12:56:58Z</time>
      </trkpt>
      <trkpt lat="43.66263" lon="3.43096">
        <ele>93.199996948242</ele>
        <time>2019-12-12T12:57:04Z</time>
      </trkpt>
      <trkpt lat="43.66305" lon="3.43105">
        <ele>92.800003051758</ele>
        <time>2019-12-12T12:57:11Z</time>
      </trkpt>
      <trkpt lat="43.66352" lon="3.43108">
        <ele>92.800003051758</ele>
        <time>2019-12-12T12:57:19Z</time>
      </trkpt>
      <trkpt lat="43.6638" lon="3.43111">
        <ele>93.400001525879</ele>
        <time>2019-12-12T12:57:25Z</time>
      </trkpt>
      <trkpt lat="43.66385" lon="3.43114">
        <ele>93.400001525879</ele>
        <time>2019-12-12T12:57:26Z</time>
      </trkpt>
      <trkpt lat="43.66397" lon="3.4313">
        <ele>93.599998474121</ele>
        <time>2019-12-12T12:57:29Z</time>
      </trkpt>
      <trkpt lat="43.66411" lon="3.43142">
        <ele>93.800003051758</ele>
        <time>2019-12-12T12:57:32Z</time>
      </trkpt>
      <trkpt lat="43.66443" lon="3.43154">
        <ele>94</ele>
        <time>2019-12-12T12:57:37Z</time>
      </trkpt>
      <trkpt lat="43.66474" lon="3.43155">
        <ele>94.599998474121</ele>
        <time>2019-12-12T12:57:44Z</time>
      </trkpt>
      <trkpt lat="43.66489" lon="3.43152">
        <ele>95</ele>
        <time>2019-12-12T12:57:46Z</time>
      </trkpt>
      <trkpt lat="43.66518" lon="3.43147">
        <ele>95.599998474121</ele>
        <time>2019-12-12T12:57:52Z</time>
      </trkpt>
      <trkpt lat="43.66528" lon="3.43144">
        <ele>95.800003051758</ele>
        <time>2019-12-12T12:57:54Z</time>
      </trkpt>
      <trkpt lat="43.66537" lon="3.43139">
        <ele>96.199996948242</ele>
        <time>2019-12-12T12:57:57Z</time>
      </trkpt>
      <trkpt lat="43.66541" lon="3.43134">
        <ele>96.400001525879</ele>
        <time>2019-12-12T12:57:58Z</time>
      </trkpt>
      <trkpt lat="43.66549" lon="3.4311">
        <ele>96.400001525879</ele>
        <time>2019-12-12T12:58:02Z</time>
      </trkpt>
      <trkpt lat="43.6655" lon="3.43096">
        <ele>96.599998474121</ele>
        <time>2019-12-12T12:58:04Z</time>
      </trkpt>
      <trkpt lat="43.66549" lon="3.43065">
        <ele>96.599998474121</ele>
        <time>2019-12-12T12:58:08Z</time>
      </trkpt>
      <trkpt lat="43.66546" lon="3.43014">
        <ele>96.800003051758</ele>
        <time>2019-12-12T12:58:15Z</time>
      </trkpt>
      <trkpt lat="43.66551" lon="3.42944">
        <ele>97</ele>
        <time>2019-12-12T12:58:23Z</time>
      </trkpt>
      <trkpt lat="43.6656" lon="3.42915">
        <ele>97</ele>
        <time>2019-12-12T12:58:27Z</time>
      </trkpt>
      <trkpt lat="43.66562" lon="3.42908">
        <ele>97.199996948242</ele>
        <time>2019-12-12T12:58:28Z</time>
      </trkpt>
      <trkpt lat="43.66567" lon="3.42893">
        <ele>97.199996948242</ele>
        <time>2019-12-12T12:58:30Z</time>
      </trkpt>
      <trkpt lat="43.66569" lon="3.42886">
        <ele>97.199996948242</ele>
        <time>2019-12-12T12:58:32Z</time>
      </trkpt>
      <trkpt lat="43.66571" lon="3.42855">
        <ele>97.199996948242</ele>
        <time>2019-12-12T12:58:35Z</time>
      </trkpt>
      <trkpt lat="43.66568" lon="3.42808">
        <ele>97.199996948242</ele>
        <time>2019-12-12T12:58:41Z</time>
      </trkpt>
      <trkpt lat="43.66568" lon="3.428">
        <ele>97.199996948242</ele>
        <time>2019-12-12T12:58:42Z</time>
      </trkpt>
      <trkpt lat="43.66568" lon="3.42722">
        <ele>97.199996948242</ele>
        <time>2019-12-12T12:58:52Z</time>
      </trkpt>
      <trkpt lat="43.66574" lon="3.42676">
        <ele>97.400001525879</ele>
        <time>2019-12-12T12:58:58Z</time>
      </trkpt>
      <trkpt lat="43.66593" lon="3.42613">
        <ele>96.800003051758</ele>
        <time>2019-12-12T12:59:06Z</time>
      </trkpt>
      <trkpt lat="43.66601" lon="3.4259">
        <ele>96.599998474121</ele>
        <time>2019-12-12T12:59:09Z</time>
      </trkpt>
      <trkpt lat="43.66605" lon="3.42574">
        <ele>96.400001525879</ele>
        <time>2019-12-12T12:59:11Z</time>
      </trkpt>
      <trkpt lat="43.66606" lon="3.42557">
        <ele>96.199996948242</ele>
        <time>2019-12-12T12:59:13Z</time>
      </trkpt>
      <trkpt lat="43.66608" lon="3.42539">
        <ele>95.800003051758</ele>
        <time>2019-12-12T12:59:15Z</time>
      </trkpt>
      <trkpt lat="43.66608" lon="3.42539">
        <ele>95.599998474121</ele>
        <time>2019-12-12T12:59:16Z</time>
      </trkpt>
      <trkpt lat="43.66613" lon="3.42523">
        <ele>95.400001525879</ele>
        <time>2019-12-12T12:59:17Z</time>
      </trkpt>
      <trkpt lat="43.66619" lon="3.42509">
        <ele>94.800003051758</ele>
        <time>2019-12-12T12:59:20Z</time>
      </trkpt>
      <trkpt lat="43.66626" lon="3.42496">
        <ele>94.599998474121</ele>
        <time>2019-12-12T12:59:21Z</time>
      </trkpt>
      <trkpt lat="43.66634" lon="3.42473">
        <ele>94.199996948242</ele>
        <time>2019-12-12T12:59:24Z</time>
      </trkpt>
      <trkpt lat="43.66641" lon="3.42451">
        <ele>94.199996948242</ele>
        <time>2019-12-12T12:59:27Z</time>
      </trkpt>
      <trkpt lat="43.66655" lon="3.42398">
        <ele>94</ele>
        <time>2019-12-12T12:59:35Z</time>
      </trkpt>
      <trkpt lat="43.66664" lon="3.42342">
        <ele>93.800003051758</ele>
        <time>2019-12-12T12:59:42Z</time>
      </trkpt>
      <trkpt lat="43.66676" lon="3.42295">
        <ele>93.800003051758</ele>
        <time>2019-12-12T12:59:48Z</time>
      </trkpt>
      <trkpt lat="43.66688" lon="3.42248">
        <ele>93.400001525879</ele>
        <time>2019-12-12T12:59:54Z</time>
      </trkpt>
      <trkpt lat="43.6669" lon="3.42239">
        <ele>93</ele>
        <time>2019-12-12T12:59:55Z</time>
      </trkpt>
      <trkpt lat="43.6669" lon="3.4223">
        <ele>93</ele>
        <time>2019-12-12T12:59:56Z</time>
      </trkpt>
      <trkpt lat="43.6669" lon="3.42182">
        <ele>92.599998474121</ele>
        <time>2019-12-12T13:00:00Z</time>
      </trkpt>
      <trkpt lat="43.6669" lon="3.42162">
        <ele>92.199996948242</ele>
        <time>2019-12-12T13:00:03Z</time>
      </trkpt>
      <trkpt lat="43.66693" lon="3.42106">
        <ele>91</ele>
        <time>2019-12-12T13:00:09Z</time>
      </trkpt>
      <trkpt lat="43.66703" lon="3.42063">
        <ele>89.800003051758</ele>
        <time>2019-12-12T13:00:14Z</time>
      </trkpt>
      <trkpt lat="43.66724" lon="3.41996">
        <ele>89.199996948242</ele>
        <time>2019-12-12T13:00:22Z</time>
      </trkpt>
      <trkpt lat="43.66735" lon="3.41938">
        <ele>89.599998474121</ele>
        <time>2019-12-12T13:00:30Z</time>
      </trkpt>
      <trkpt lat="43.66745" lon="3.41873">
        <ele>90.400001525879</ele>
        <time>2019-12-12T13:00:40Z</time>
      </trkpt>
      <trkpt lat="43.66751" lon="3.41844">
        <ele>91</ele>
        <time>2019-12-12T13:00:44Z</time>
      </trkpt>
      <trkpt lat="43.66762" lon="3.41809">
        <ele>91.400001525879</ele>
        <time>2019-12-12T13:00:48Z</time>
      </trkpt>
      <trkpt lat="43.66776" lon="3.41776">
        <ele>92</ele>
        <time>2019-12-12T13:00:54Z</time>
      </trkpt>
      <trkpt lat="43.6678" lon="3.41762">
        <ele>92</ele>
        <time>2019-12-12T13:00:56Z</time>
      </trkpt>
      <trkpt lat="43.66791" lon="3.4171">
        <ele>92.800003051758</ele>
        <time>2019-12-12T13:01:03Z</time>
      </trkpt>
      <trkpt lat="43.66796" lon="3.41673">
        <ele>93.199996948242</ele>
        <time>2019-12-12T13:01:07Z</time>
      </trkpt>
      <trkpt lat="43.66806" lon="3.41616">
        <ele>94.199996948242</ele>
        <time>2019-12-12T13:01:16Z</time>
      </trkpt>
      <trkpt lat="43.66809" lon="3.41595">
        <ele>94.599998474121</ele>
        <time>2019-12-12T13:01:18Z</time>
      </trkpt>
      <trkpt lat="43.66816" lon="3.41567">
        <ele>95</ele>
        <time>2019-12-12T13:01:22Z</time>
      </trkpt>
      <trkpt lat="43.66821" lon="3.41553">
        <ele>95.199996948242</ele>
        <time>2019-12-12T13:01:25Z</time>
      </trkpt>
      <trkpt lat="43.66848" lon="3.41499">
        <ele>95.199996948242</ele>
        <time>2019-12-12T13:01:32Z</time>
      </trkpt>
      <trkpt lat="43.66882" lon="3.41445">
        <ele>94.400001525879</ele>
        <time>2019-12-12T13:01:41Z</time>
      </trkpt>
      <trkpt lat="43.66893" lon="3.41432">
        <ele>94.400001525879</ele>
        <time>2019-12-12T13:01:42Z</time>
      </trkpt>
      <trkpt lat="43.66898" lon="3.41426">
        <ele>94.199996948242</ele>
        <time>2019-12-12T13:01:44Z</time>
      </trkpt>
      <trkpt lat="43.66917" lon="3.41408">
        <ele>93.800003051758</ele>
        <time>2019-12-12T13:01:46Z</time>
      </trkpt>
      <trkpt lat="43.66941" lon="3.41384">
        <ele>93</ele>
        <time>2019-12-12T13:01:50Z</time>
      </trkpt>
      <trkpt lat="43.66946" lon="3.41379">
        <ele>91.800003051758</ele>
        <time>2019-12-12T13:01:52Z</time>
      </trkpt>
      <trkpt lat="43.66962" lon="3.41363">
        <ele>91.400001525879</ele>
        <time>2019-12-12T13:01:54Z</time>
      </trkpt>
      <trkpt lat="43.66994" lon="3.41331">
        <ele>91.199996948242</ele>
        <time>2019-12-12T13:02:02Z</time>
      </trkpt>
      <trkpt lat="43.67019" lon="3.41308">
        <ele>92.199996948242</ele>
        <time>2019-12-12T13:02:09Z</time>
      </trkpt>
      <trkpt lat="43.67026" lon="3.413">
        <ele>93.199996948242</ele>
        <time>2019-12-12T13:02:12Z</time>
      </trkpt>
      <trkpt lat="43.67034" lon="3.4129">
        <ele>94.400001525879</ele>
        <time>2019-12-12T13:02:16Z</time>
      </trkpt>
      <trkpt lat="43.67037" lon="3.41283">
        <ele>95.400001525879</ele>
        <time>2019-12-12T13:02:18Z</time>
      </trkpt>
      <trkpt lat="43.67038" lon="3.41278">
        <ele>95.800003051758</ele>
        <time>2019-12-12T13:02:19Z</time>
      </trkpt>
      <trkpt lat="43.67037" lon="3.41273">
        <ele>96.199996948242</ele>
        <time>2019-12-12T13:02:20Z</time>
      </trkpt>
      <trkpt lat="43.67035" lon="3.41269">
        <ele>96.599998474121</ele>
        <time>2019-12-12T13:02:21Z</time>
      </trkpt>
      <trkpt lat="43.67033" lon="3.41265">
        <ele>96.800003051758</ele>
        <time>2019-12-12T13:02:22Z</time>
      </trkpt>
      <trkpt lat="43.67023" lon="3.41253">
        <ele>97.400001525879</ele>
        <time>2019-12-12T13:02:25Z</time>
      </trkpt>
      <trkpt lat="43.67023" lon="3.41253">
        <ele>97.599998474121</ele>
        <time>2019-12-12T13:02:26Z</time>
      </trkpt>
      <trkpt lat="43.67021" lon="3.4125">
        <ele>98</ele>
        <time>2019-12-12T13:02:27Z</time>
      </trkpt>
      <trkpt lat="43.67016" lon="3.41239">
        <ele>99.199996948242</ele>
        <time>2019-12-12T13:02:30Z</time>
      </trkpt>
      <trkpt lat="43.67018" lon="3.41231">
        <ele>99.599998474121</ele>
        <time>2019-12-12T13:02:31Z</time>
      </trkpt>
      <trkpt lat="43.67021" lon="3.41224">
        <ele>100.40000152588</ele>
        <time>2019-12-12T13:02:33Z</time>
      </trkpt>
      <trkpt lat="43.67027" lon="3.41209">
        <ele>101.80000305176</ele>
        <time>2019-12-12T13:02:37Z</time>
      </trkpt>
      <trkpt lat="43.67031" lon="3.41199">
        <ele>103</ele>
        <time>2019-12-12T13:02:40Z</time>
      </trkpt>
      <trkpt lat="43.67035" lon="3.41189">
        <ele>104.19999694824</ele>
        <time>2019-12-12T13:02:43Z</time>
      </trkpt>
      <trkpt lat="43.67039" lon="3.41177">
        <ele>105.19999694824</ele>
        <time>2019-12-12T13:02:47Z</time>
      </trkpt>
      <trkpt lat="43.6704" lon="3.41174">
        <ele>105.80000305176</ele>
        <time>2019-12-12T13:02:48Z</time>
      </trkpt>
      <trkpt lat="43.67043" lon="3.41169">
        <ele>106.59999847412</ele>
        <time>2019-12-12T13:02:51Z</time>
      </trkpt>
      <trkpt lat="43.67045" lon="3.41166">
        <ele>107.40000152588</ele>
        <time>2019-12-12T13:02:54Z</time>
      </trkpt>
      <trkpt lat="43.67045" lon="3.41166">
        <ele>107.80000305176</ele>
        <time>2019-12-12T13:02:55Z</time>
      </trkpt>
      <trkpt lat="43.67047" lon="3.41164">
        <ele>108</ele>
        <time>2019-12-12T13:02:56Z</time>
      </trkpt>
      <trkpt lat="43.67053" lon="3.41157">
        <ele>108.40000152588</ele>
        <time>2019-12-12T13:03:01Z</time>
      </trkpt>
      <trkpt lat="43.67063" lon="3.41146">
        <ele>108.59999847412</ele>
        <time>2019-12-12T13:03:07Z</time>
      </trkpt>
      <trkpt lat="43.67079" lon="3.41128">
        <ele>108.19999694824</ele>
        <time>2019-12-12T13:03:15Z</time>
      </trkpt>
      <trkpt lat="43.67104" lon="3.41101">
        <ele>107.80000305176</ele>
        <time>2019-12-12T13:03:24Z</time>
      </trkpt>
      <trkpt lat="43.67129" lon="3.41073">
        <ele>107.59999847412</ele>
        <time>2019-12-12T13:03:32Z</time>
      </trkpt>
      <trkpt lat="43.67135" lon="3.41064">
        <ele>107.59999847412</ele>
        <time>2019-12-12T13:03:34Z</time>
      </trkpt>
      <trkpt lat="43.67145" lon="3.41042">
        <ele>107.59999847412</ele>
        <time>2019-12-12T13:03:38Z</time>
      </trkpt>
      <trkpt lat="43.67164" lon="3.40997">
        <ele>108.19999694824</ele>
        <time>2019-12-12T13:03:46Z</time>
      </trkpt>
      <trkpt lat="43.67176" lon="3.4097">
        <ele>108.80000305176</ele>
        <time>2019-12-12T13:03:51Z</time>
      </trkpt>
      <trkpt lat="43.6719" lon="3.40944">
        <ele>109.19999694824</ele>
        <time>2019-12-12T13:03:56Z</time>
      </trkpt>
      <trkpt lat="43.67208" lon="3.40912">
        <ele>109.80000305176</ele>
        <time>2019-12-12T13:04:02Z</time>
      </trkpt>
      <trkpt lat="43.67219" lon="3.40889">
        <ele>110.40000152588</ele>
        <time>2019-12-12T13:04:06Z</time>
      </trkpt>
      <trkpt lat="43.67233" lon="3.40842">
        <ele>110.40000152588</ele>
        <time>2019-12-12T13:04:13Z</time>
      </trkpt>
      <trkpt lat="43.67247" lon="3.40803">
        <ele>110.19999694824</ele>
        <time>2019-12-12T13:04:18Z</time>
      </trkpt>
      <trkpt lat="43.67252" lon="3.40796">
        <ele>110</ele>
        <time>2019-12-12T13:04:19Z</time>
      </trkpt>
      <trkpt lat="43.67278" lon="3.40772">
        <ele>108.59999847412</ele>
        <time>2019-12-12T13:04:23Z</time>
      </trkpt>
      <trkpt lat="43.673" lon="3.40765">
        <ele>107.19999694824</ele>
        <time>2019-12-12T13:04:26Z</time>
      </trkpt>
      <trkpt lat="43.67307" lon="3.40765">
        <ele>106.59999847412</ele>
        <time>2019-12-12T13:04:27Z</time>
      </trkpt>
      <trkpt lat="43.67315" lon="3.40764">
        <ele>106</ele>
        <time>2019-12-12T13:04:28Z</time>
      </trkpt>
      <trkpt lat="43.67327" lon="3.40758">
        <ele>104.80000305176</ele>
        <time>2019-12-12T13:04:30Z</time>
      </trkpt>
      <trkpt lat="43.67337" lon="3.40745">
        <ele>103.40000152588</ele>
        <time>2019-12-12T13:04:32Z</time>
      </trkpt>
      <trkpt lat="43.67339" lon="3.4074">
        <ele>103</ele>
        <time>2019-12-12T13:04:33Z</time>
      </trkpt>
      <trkpt lat="43.67344" lon="3.4073">
        <ele>102.40000152588</ele>
        <time>2019-12-12T13:04:37Z</time>
      </trkpt>
      <trkpt lat="43.67345" lon="3.40728">
        <ele>102.19999694824</ele>
        <time>2019-12-12T13:04:38Z</time>
      </trkpt>
      <trkpt lat="43.67344" lon="3.40727">
        <ele>102</ele>
        <time>2019-12-12T13:04:40Z</time>
      </trkpt>
      <trkpt lat="43.67345" lon="3.40725">
        <ele>102</ele>
        <time>2019-12-12T13:05:04Z</time>
      </trkpt>
      <trkpt lat="43.6735" lon="3.40716">
        <ele>102</ele>
        <time>2019-12-12T13:05:08Z</time>
      </trkpt>
      <trkpt lat="43.67354" lon="3.40707">
        <ele>101.80000305176</ele>
        <time>2019-12-12T13:05:10Z</time>
      </trkpt>
      <trkpt lat="43.67356" lon="3.40695">
        <ele>101.80000305176</ele>
        <time>2019-12-12T13:05:12Z</time>
      </trkpt>
      <trkpt lat="43.67351" lon="3.40679">
        <ele>101.80000305176</ele>
        <time>2019-12-12T13:05:15Z</time>
      </trkpt>
      <trkpt lat="43.67349" lon="3.40673">
        <ele>101.80000305176</ele>
        <time>2019-12-12T13:05:16Z</time>
      </trkpt>
      <trkpt lat="43.67336" lon="3.40629">
        <ele>102</ele>
        <time>2019-12-12T13:05:24Z</time>
      </trkpt>
      <trkpt lat="43.67326" lon="3.40587">
        <ele>103.40000152588</ele>
        <time>2019-12-12T13:05:32Z</time>
      </trkpt>
      <trkpt lat="43.67324" lon="3.40578">
        <ele>103.80000305176</ele>
        <time>2019-12-12T13:05:34Z</time>
      </trkpt>
      <trkpt lat="43.6732" lon="3.40565">
        <ele>104.40000152588</ele>
        <time>2019-12-12T13:05:37Z</time>
      </trkpt>
      <trkpt lat="43.67316" lon="3.4055">
        <ele>105.40000152588</ele>
        <time>2019-12-12T13:05:41Z</time>
      </trkpt>
      <trkpt lat="43.67313" lon="3.40538">
        <ele>106.59999847412</ele>
        <time>2019-12-12T13:05:44Z</time>
      </trkpt>
      <trkpt lat="43.67309" lon="3.40521">
        <ele>107.80000305176</ele>
        <time>2019-12-12T13:05:47Z</time>
      </trkpt>
      <trkpt lat="43.67309" lon="3.40521">
        <ele>108</ele>
        <time>2019-12-12T13:05:48Z</time>
      </trkpt>
      <trkpt lat="43.67307" lon="3.40507">
        <ele>109</ele>
        <time>2019-12-12T13:05:51Z</time>
      </trkpt>
      <trkpt lat="43.67305" lon="3.40489">
        <ele>110.19999694824</ele>
        <time>2019-12-12T13:05:55Z</time>
      </trkpt>
      <trkpt lat="43.67302" lon="3.40467">
        <ele>111.40000152588</ele>
        <time>2019-12-12T13:05:59Z</time>
      </trkpt>
      <trkpt lat="43.67301" lon="3.40459">
        <ele>112</ele>
        <time>2019-12-12T13:06:02Z</time>
      </trkpt>
      <trkpt lat="43.67301" lon="3.40455">
        <ele>112.40000152588</ele>
        <time>2019-12-12T13:06:03Z</time>
      </trkpt>
      <trkpt lat="43.67303" lon="3.40442">
        <ele>113.40000152588</ele>
        <time>2019-12-12T13:06:06Z</time>
      </trkpt>
      <trkpt lat="43.67303" lon="3.40438">
        <ele>113.80000305176</ele>
        <time>2019-12-12T13:06:07Z</time>
      </trkpt>
      <trkpt lat="43.67304" lon="3.40429">
        <ele>114.40000152588</ele>
        <time>2019-12-12T13:06:08Z</time>
      </trkpt>
      <trkpt lat="43.67306" lon="3.40417">
        <ele>115.40000152588</ele>
        <time>2019-12-12T13:06:12Z</time>
      </trkpt>
      <trkpt lat="43.67307" lon="3.40409">
        <ele>116</ele>
        <time>2019-12-12T13:06:14Z</time>
      </trkpt>
      <trkpt lat="43.67309" lon="3.40396">
        <ele>116.59999847412</ele>
        <time>2019-12-12T13:06:16Z</time>
      </trkpt>
      <trkpt lat="43.6731" lon="3.40388">
        <ele>117.59999847412</ele>
        <time>2019-12-12T13:06:19Z</time>
      </trkpt>
      <trkpt lat="43.67311" lon="3.40381">
        <ele>118.19999694824</ele>
        <time>2019-12-12T13:06:21Z</time>
      </trkpt>
      <trkpt lat="43.67315" lon="3.40369">
        <ele>118.80000305176</ele>
        <time>2019-12-12T13:06:23Z</time>
      </trkpt>
      <trkpt lat="43.67318" lon="3.40354">
        <ele>120</ele>
        <time>2019-12-12T13:06:27Z</time>
      </trkpt>
      <trkpt lat="43.6732" lon="3.40347">
        <ele>120.40000152588</ele>
        <time>2019-12-12T13:06:29Z</time>
      </trkpt>
      <trkpt lat="43.67322" lon="3.40339">
        <ele>121</ele>
        <time>2019-12-12T13:06:31Z</time>
      </trkpt>
      <trkpt lat="43.67326" lon="3.40321">
        <ele>122.19999694824</ele>
        <time>2019-12-12T13:06:36Z</time>
      </trkpt>
      <trkpt lat="43.67328" lon="3.40311">
        <ele>123.40000152588</ele>
        <time>2019-12-12T13:06:39Z</time>
      </trkpt>
      <trkpt lat="43.67329" lon="3.40308">
        <ele>123.80000305176</ele>
        <time>2019-12-12T13:06:40Z</time>
      </trkpt>
      <trkpt lat="43.67332" lon="3.40301">
        <ele>124.59999847412</ele>
        <time>2019-12-12T13:06:43Z</time>
      </trkpt>
      <trkpt lat="43.67337" lon="3.40297">
        <ele>125</ele>
        <time>2019-12-12T13:06:45Z</time>
      </trkpt>
      <trkpt lat="43.67347" lon="3.40293">
        <ele>125.80000305176</ele>
        <time>2019-12-12T13:06:48Z</time>
      </trkpt>
      <trkpt lat="43.67354" lon="3.40286">
        <ele>125.80000305176</ele>
        <time>2019-12-12T13:06:50Z</time>
      </trkpt>
      <trkpt lat="43.67377" lon="3.40259">
        <ele>125.80000305176</ele>
        <time>2019-12-12T13:06:55Z</time>
      </trkpt>
      <trkpt lat="43.674" lon="3.40232">
        <ele>125.40000152588</ele>
        <time>2019-12-12T13:06:59Z</time>
      </trkpt>
      <trkpt lat="43.67405" lon="3.40224">
        <ele>125</ele>
        <time>2019-12-12T13:07:00Z</time>
      </trkpt>
      <trkpt lat="43.67409" lon="3.4021">
        <ele>124.19999694824</ele>
        <time>2019-12-12T13:07:02Z</time>
      </trkpt>
      <trkpt lat="43.67413" lon="3.40198">
        <ele>122.80000305176</ele>
        <time>2019-12-12T13:07:04Z</time>
      </trkpt>
      <trkpt lat="43.67415" lon="3.40193">
        <ele>122.19999694824</ele>
        <time>2019-12-12T13:07:05Z</time>
      </trkpt>
      <trkpt lat="43.6742" lon="3.40184">
        <ele>121.80000305176</ele>
        <time>2019-12-12T13:07:07Z</time>
      </trkpt>
      <trkpt lat="43.67427" lon="3.40174">
        <ele>121.80000305176</ele>
        <time>2019-12-12T13:07:09Z</time>
      </trkpt>
      <trkpt lat="43.67442" lon="3.40153">
        <ele>122</ele>
        <time>2019-12-12T13:07:13Z</time>
      </trkpt>
      <trkpt lat="43.6745" lon="3.40145">
        <ele>122.19999694824</ele>
        <time>2019-12-12T13:07:15Z</time>
      </trkpt>
      <trkpt lat="43.67468" lon="3.40134">
        <ele>122.40000152588</ele>
        <time>2019-12-12T13:07:19Z</time>
      </trkpt>
      <trkpt lat="43.67484" lon="3.40116">
        <ele>122.40000152588</ele>
        <time>2019-12-12T13:07:23Z</time>
      </trkpt>
      <trkpt lat="43.67488" lon="3.4011">
        <ele>122.40000152588</ele>
        <time>2019-12-12T13:07:24Z</time>
      </trkpt>
      <trkpt lat="43.67505" lon="3.40089">
        <ele>122.40000152588</ele>
        <time>2019-12-12T13:07:28Z</time>
      </trkpt>
      <trkpt lat="43.67515" lon="3.4008">
        <ele>122.19999694824</ele>
        <time>2019-12-12T13:07:30Z</time>
      </trkpt>
      <trkpt lat="43.67538" lon="3.40062">
        <ele>121.40000152588</ele>
        <time>2019-12-12T13:07:35Z</time>
      </trkpt>
      <trkpt lat="43.67543" lon="3.40058">
        <ele>121</ele>
        <time>2019-12-12T13:07:36Z</time>
      </trkpt>
      <trkpt lat="43.67552" lon="3.40052">
        <ele>120.19999694824</ele>
        <time>2019-12-12T13:07:38Z</time>
      </trkpt>
      <trkpt lat="43.67576" lon="3.40034">
        <ele>119.59999847412</ele>
        <time>2019-12-12T13:07:44Z</time>
      </trkpt>
      <trkpt lat="43.67594" lon="3.40004">
        <ele>119.19999694824</ele>
        <time>2019-12-12T13:07:48Z</time>
      </trkpt>
      <trkpt lat="43.67615" lon="3.39964">
        <ele>118.80000305176</ele>
        <time>2019-12-12T13:07:55Z</time>
      </trkpt>
      <trkpt lat="43.67622" lon="3.3995">
        <ele>118.40000152588</ele>
        <time>2019-12-12T13:07:58Z</time>
      </trkpt>
      <trkpt lat="43.67629" lon="3.39925">
        <ele>118.19999694824</ele>
        <time>2019-12-12T13:08:00Z</time>
      </trkpt>
      <trkpt lat="43.67634" lon="3.39896">
        <ele>117.80000305176</ele>
        <time>2019-12-12T13:08:03Z</time>
      </trkpt>
      <trkpt lat="43.67636" lon="3.39877">
        <ele>116.59999847412</ele>
        <time>2019-12-12T13:08:05Z</time>
      </trkpt>
      <trkpt lat="43.67639" lon="3.39846">
        <ele>115.40000152588</ele>
        <time>2019-12-12T13:08:08Z</time>
      </trkpt>
      <trkpt lat="43.67642" lon="3.39825">
        <ele>114</ele>
        <time>2019-12-12T13:08:11Z</time>
      </trkpt>
      <trkpt lat="43.67644" lon="3.39815">
        <ele>113.59999847412</ele>
        <time>2019-12-12T13:08:12Z</time>
      </trkpt>
      <trkpt lat="43.67654" lon="3.3979">
        <ele>112.80000305176</ele>
        <time>2019-12-12T13:08:14Z</time>
      </trkpt>
      <trkpt lat="43.67661" lon="3.39773">
        <ele>111.59999847412</ele>
        <time>2019-12-12T13:08:16Z</time>
      </trkpt>
      <trkpt lat="43.67669" lon="3.39757">
        <ele>110.40000152588</ele>
        <time>2019-12-12T13:08:19Z</time>
      </trkpt>
      <trkpt lat="43.67677" lon="3.3974">
        <ele>110</ele>
        <time>2019-12-12T13:08:20Z</time>
      </trkpt>
      <trkpt lat="43.6768" lon="3.39731">
        <ele>109.80000305176</ele>
        <time>2019-12-12T13:08:21Z</time>
      </trkpt>
      <trkpt lat="43.67689" lon="3.39704">
        <ele>109.19999694824</ele>
        <time>2019-12-12T13:08:25Z</time>
      </trkpt>
      <trkpt lat="43.6769" lon="3.39698">
        <ele>108.80000305176</ele>
        <time>2019-12-12T13:08:26Z</time>
      </trkpt>
      <trkpt lat="43.6769" lon="3.39692">
        <ele>108.19999694824</ele>
        <time>2019-12-12T13:08:27Z</time>
      </trkpt>
      <trkpt lat="43.67691" lon="3.39671">
        <ele>107.19999694824</ele>
        <time>2019-12-12T13:08:30Z</time>
      </trkpt>
      <trkpt lat="43.67691" lon="3.39671">
        <ele>107</ele>
        <time>2019-12-12T13:08:31Z</time>
      </trkpt>
      <trkpt lat="43.67691" lon="3.39659">
        <ele>106.80000305176</ele>
        <time>2019-12-12T13:08:32Z</time>
      </trkpt>
      <trkpt lat="43.67694" lon="3.39641">
        <ele>106.80000305176</ele>
        <time>2019-12-12T13:08:35Z</time>
      </trkpt>
      <trkpt lat="43.67701" lon="3.39619">
        <ele>106.80000305176</ele>
        <time>2019-12-12T13:08:38Z</time>
      </trkpt>
      <trkpt lat="43.67707" lon="3.39604">
        <ele>106.80000305176</ele>
        <time>2019-12-12T13:08:40Z</time>
      </trkpt>
      <trkpt lat="43.6771" lon="3.39587">
        <ele>106.80000305176</ele>
        <time>2019-12-12T13:08:42Z</time>
      </trkpt>
      <trkpt lat="43.67712" lon="3.39578">
        <ele>106.80000305176</ele>
        <time>2019-12-12T13:08:43Z</time>
      </trkpt>
      <trkpt lat="43.67714" lon="3.39562">
        <ele>106.59999847412</ele>
        <time>2019-12-12T13:08:45Z</time>
      </trkpt>
      <trkpt lat="43.67723" lon="3.39527">
        <ele>106.40000152588</ele>
        <time>2019-12-12T13:08:50Z</time>
      </trkpt>
      <trkpt lat="43.67725" lon="3.3952">
        <ele>106.40000152588</ele>
        <time>2019-12-12T13:08:51Z</time>
      </trkpt>
      <trkpt lat="43.67733" lon="3.39495">
        <ele>106.40000152588</ele>
        <time>2019-12-12T13:08:55Z</time>
      </trkpt>
      <trkpt lat="43.67735" lon="3.39489">
        <ele>106.40000152588</ele>
        <time>2019-12-12T13:08:56Z</time>
      </trkpt>
      <trkpt lat="43.67743" lon="3.39468">
        <ele>107.80000305176</ele>
        <time>2019-12-12T13:09:00Z</time>
      </trkpt>
      <trkpt lat="43.67745" lon="3.39463">
        <ele>108.19999694824</ele>
        <time>2019-12-12T13:09:01Z</time>
      </trkpt>
      <trkpt lat="43.67748" lon="3.39458">
        <ele>108.80000305176</ele>
        <time>2019-12-12T13:09:02Z</time>
      </trkpt>
      <trkpt lat="43.67751" lon="3.39453">
        <ele>109.40000152588</ele>
        <time>2019-12-12T13:09:03Z</time>
      </trkpt>
      <trkpt lat="43.67762" lon="3.39429">
        <ele>110.40000152588</ele>
        <time>2019-12-12T13:09:07Z</time>
      </trkpt>
      <trkpt lat="43.67764" lon="3.39422">
        <ele>110.40000152588</ele>
        <time>2019-12-12T13:09:08Z</time>
      </trkpt>
      <trkpt lat="43.67769" lon="3.3941">
        <ele>110.40000152588</ele>
        <time>2019-12-12T13:09:11Z</time>
      </trkpt>
      <trkpt lat="43.67777" lon="3.39394">
        <ele>110.40000152588</ele>
        <time>2019-12-12T13:09:14Z</time>
      </trkpt>
      <trkpt lat="43.67783" lon="3.39372">
        <ele>110.59999847412</ele>
        <time>2019-12-12T13:09:18Z</time>
      </trkpt>
      <trkpt lat="43.67783" lon="3.39359">
        <ele>110.40000152588</ele>
        <time>2019-12-12T13:09:20Z</time>
      </trkpt>
      <trkpt lat="43.6778" lon="3.39344">
        <ele>110.19999694824</ele>
        <time>2019-12-12T13:09:22Z</time>
      </trkpt>
      <trkpt lat="43.67779" lon="3.3933">
        <ele>110.19999694824</ele>
        <time>2019-12-12T13:09:24Z</time>
      </trkpt>
      <trkpt lat="43.67775" lon="3.39296">
        <ele>110.80000305176</ele>
        <time>2019-12-12T13:09:30Z</time>
      </trkpt>
      <trkpt lat="43.67774" lon="3.39283">
        <ele>110.80000305176</ele>
        <time>2019-12-12T13:09:32Z</time>
      </trkpt>
      <trkpt lat="43.67775" lon="3.39263">
        <ele>110.59999847412</ele>
        <time>2019-12-12T13:09:35Z</time>
      </trkpt>
      <trkpt lat="43.67778" lon="3.39246">
        <ele>110.40000152588</ele>
        <time>2019-12-12T13:09:38Z</time>
      </trkpt>
      <trkpt lat="43.67782" lon="3.39238">
        <ele>110.40000152588</ele>
        <time>2019-12-12T13:09:40Z</time>
      </trkpt>
      <trkpt lat="43.67795" lon="3.39232">
        <ele>110.19999694824</ele>
        <time>2019-12-12T13:09:43Z</time>
      </trkpt>
      <trkpt lat="43.678" lon="3.39233">
        <ele>110</ele>
        <time>2019-12-12T13:09:44Z</time>
      </trkpt>
      <trkpt lat="43.67818" lon="3.39235">
        <ele>109.80000305176</ele>
        <time>2019-12-12T13:09:47Z</time>
      </trkpt>
      <trkpt lat="43.67825" lon="3.39235">
        <ele>109.80000305176</ele>
        <time>2019-12-12T13:09:48Z</time>
      </trkpt>
      <trkpt lat="43.67851" lon="3.39237">
        <ele>109</ele>
        <time>2019-12-12T13:09:52Z</time>
      </trkpt>
      <trkpt lat="43.67857" lon="3.39236">
        <ele>108.59999847412</ele>
        <time>2019-12-12T13:09:53Z</time>
      </trkpt>
      <trkpt lat="43.67863" lon="3.39234">
        <ele>107.80000305176</ele>
        <time>2019-12-12T13:09:54Z</time>
      </trkpt>
      <trkpt lat="43.67874" lon="3.39224">
        <ele>106.19999694824</ele>
        <time>2019-12-12T13:09:56Z</time>
      </trkpt>
      <trkpt lat="43.67878" lon="3.39219">
        <ele>105.59999847412</ele>
        <time>2019-12-12T13:09:57Z</time>
      </trkpt>
      <trkpt lat="43.67882" lon="3.39212">
        <ele>104.19999694824</ele>
        <time>2019-12-12T13:09:58Z</time>
      </trkpt>
      <trkpt lat="43.67886" lon="3.39206">
        <ele>103.59999847412</ele>
        <time>2019-12-12T13:09:59Z</time>
      </trkpt>
      <trkpt lat="43.67893" lon="3.39194">
        <ele>102.80000305176</ele>
        <time>2019-12-12T13:10:01Z</time>
      </trkpt>
      <trkpt lat="43.67896" lon="3.39189">
        <ele>102.40000152588</ele>
        <time>2019-12-12T13:10:02Z</time>
      </trkpt>
      <trkpt lat="43.67906" lon="3.3917">
        <ele>102</ele>
        <time>2019-12-12T13:10:06Z</time>
      </trkpt>
      <trkpt lat="43.67907" lon="3.39165">
        <ele>102</ele>
        <time>2019-12-12T13:10:07Z</time>
      </trkpt>
      <trkpt lat="43.67907" lon="3.39159">
        <ele>102</ele>
        <time>2019-12-12T13:10:08Z</time>
      </trkpt>
      <trkpt lat="43.67905" lon="3.39141">
        <ele>102</ele>
        <time>2019-12-12T13:10:11Z</time>
      </trkpt>
      <trkpt lat="43.67902" lon="3.39122">
        <ele>102.59999847412</ele>
        <time>2019-12-12T13:10:14Z</time>
      </trkpt>
      <trkpt lat="43.67903" lon="3.39102">
        <ele>103.19999694824</ele>
        <time>2019-12-12T13:10:17Z</time>
      </trkpt>
      <trkpt lat="43.67904" lon="3.39096">
        <ele>103.19999694824</ele>
        <time>2019-12-12T13:10:18Z</time>
      </trkpt>
      <trkpt lat="43.67904" lon="3.39077">
        <ele>103.40000152588</ele>
        <time>2019-12-12T13:10:21Z</time>
      </trkpt>
      <trkpt lat="43.67903" lon="3.39064">
        <ele>103.40000152588</ele>
        <time>2019-12-12T13:10:23Z</time>
      </trkpt>
      <trkpt lat="43.67901" lon="3.39045">
        <ele>103.40000152588</ele>
        <time>2019-12-12T13:10:26Z</time>
      </trkpt>
      <trkpt lat="43.67896" lon="3.39028">
        <ele>103.59999847412</ele>
        <time>2019-12-12T13:10:29Z</time>
      </trkpt>
      <trkpt lat="43.67887" lon="3.39004">
        <ele>104</ele>
        <time>2019-12-12T13:10:33Z</time>
      </trkpt>
      <trkpt lat="43.67888" lon="3.38991">
        <ele>104</ele>
        <time>2019-12-12T13:10:35Z</time>
      </trkpt>
      <trkpt lat="43.67889" lon="3.38978">
        <ele>104.19999694824</ele>
        <time>2019-12-12T13:10:37Z</time>
      </trkpt>
      <trkpt lat="43.6788" lon="3.38958">
        <ele>104.40000152588</ele>
        <time>2019-12-12T13:10:41Z</time>
      </trkpt>
      <trkpt lat="43.67876" lon="3.38954">
        <ele>104.40000152588</ele>
        <time>2019-12-12T13:10:42Z</time>
      </trkpt>
      <trkpt lat="43.6787" lon="3.38946">
        <ele>104.59999847412</ele>
        <time>2019-12-12T13:10:44Z</time>
      </trkpt>
      <trkpt lat="43.67863" lon="3.38931">
        <ele>105</ele>
        <time>2019-12-12T13:10:47Z</time>
      </trkpt>
      <trkpt lat="43.67861" lon="3.38925">
        <ele>105</ele>
        <time>2019-12-12T13:10:48Z</time>
      </trkpt>
      <trkpt lat="43.67852" lon="3.38892">
        <ele>105.40000152588</ele>
        <time>2019-12-12T13:10:54Z</time>
      </trkpt>
      <trkpt lat="43.67845" lon="3.38853">
        <ele>105.40000152588</ele>
        <time>2019-12-12T13:11:00Z</time>
      </trkpt>
      <trkpt lat="43.67838" lon="3.38833">
        <ele>105.40000152588</ele>
        <time>2019-12-12T13:11:03Z</time>
      </trkpt>
      <trkpt lat="43.67836" lon="3.38819">
        <ele>105.40000152588</ele>
        <time>2019-12-12T13:11:05Z</time>
      </trkpt>
      <trkpt lat="43.67833" lon="3.388">
        <ele>104.59999847412</ele>
        <time>2019-12-12T13:11:08Z</time>
      </trkpt>
      <trkpt lat="43.6783" lon="3.38787">
        <ele>104.19999694824</ele>
        <time>2019-12-12T13:11:10Z</time>
      </trkpt>
      <trkpt lat="43.67825" lon="3.38768">
        <ele>104</ele>
        <time>2019-12-12T13:11:13Z</time>
      </trkpt>
      <trkpt lat="43.67825" lon="3.38754">
        <ele>104</ele>
        <time>2019-12-12T13:11:15Z</time>
      </trkpt>
      <trkpt lat="43.67833" lon="3.38744">
        <ele>104</ele>
        <time>2019-12-12T13:11:18Z</time>
      </trkpt>
      <trkpt lat="43.67843" lon="3.38747">
        <ele>104</ele>
        <time>2019-12-12T13:11:20Z</time>
      </trkpt>
      <trkpt lat="43.67855" lon="3.38749">
        <ele>103.80000305176</ele>
        <time>2019-12-12T13:11:21Z</time>
      </trkpt>
      <trkpt lat="43.67861" lon="3.3875">
        <ele>103.80000305176</ele>
        <time>2019-12-12T13:11:22Z</time>
      </trkpt>
      <trkpt lat="43.6789" lon="3.38753">
        <ele>103.40000152588</ele>
        <time>2019-12-12T13:11:28Z</time>
      </trkpt>
      <trkpt lat="43.67896" lon="3.38746">
        <ele>102.80000305176</ele>
        <time>2019-12-12T13:11:30Z</time>
      </trkpt>
      <trkpt lat="43.67898" lon="3.3874">
        <ele>102.40000152588</ele>
        <time>2019-12-12T13:11:31Z</time>
      </trkpt>
      <trkpt lat="43.67898" lon="3.38735">
        <ele>101.59999847412</ele>
        <time>2019-12-12T13:11:32Z</time>
      </trkpt>
      <trkpt lat="43.67896" lon="3.3872">
        <ele>100.80000305176</ele>
        <time>2019-12-12T13:11:35Z</time>
      </trkpt>
      <trkpt lat="43.67894" lon="3.38715">
        <ele>100.59999847412</ele>
        <time>2019-12-12T13:11:36Z</time>
      </trkpt>
      <trkpt lat="43.67884" lon="3.38675">
        <ele>100.19999694824</ele>
        <time>2019-12-12T13:11:43Z</time>
      </trkpt>
      <trkpt lat="43.67871" lon="3.38613">
        <ele>99.800003051758</ele>
        <time>2019-12-12T13:11:52Z</time>
      </trkpt>
      <trkpt lat="43.67867" lon="3.38592">
        <ele>99.800003051758</ele>
        <time>2019-12-12T13:11:55Z</time>
      </trkpt>
      <trkpt lat="43.67863" lon="3.38578">
        <ele>99.599998474121</ele>
        <time>2019-12-12T13:11:57Z</time>
      </trkpt>
      <trkpt lat="43.67861" lon="3.38572">
        <ele>99.599998474121</ele>
        <time>2019-12-12T13:11:58Z</time>
      </trkpt>
      <trkpt lat="43.67846" lon="3.3854">
        <ele>98.800003051758</ele>
        <time>2019-12-12T13:12:02Z</time>
      </trkpt>
      <trkpt lat="43.67846" lon="3.3854">
        <ele>98.400001525879</ele>
        <time>2019-12-12T13:12:03Z</time>
      </trkpt>
      <trkpt lat="43.67839" lon="3.38531">
        <ele>98.400001525879</ele>
        <time>2019-12-12T13:12:04Z</time>
      </trkpt>
      <trkpt lat="43.67832" lon="3.38525">
        <ele>98.199996948242</ele>
        <time>2019-12-12T13:12:07Z</time>
      </trkpt>
      <trkpt lat="43.67817" lon="3.38512">
        <ele>98.199996948242</ele>
        <time>2019-12-12T13:12:11Z</time>
      </trkpt>
      <trkpt lat="43.67811" lon="3.38504">
        <ele>99</ele>
        <time>2019-12-12T13:12:13Z</time>
      </trkpt>
      <trkpt lat="43.67807" lon="3.38496">
        <ele>99.800003051758</ele>
        <time>2019-12-12T13:12:15Z</time>
      </trkpt>
      <trkpt lat="43.67799" lon="3.38484">
        <ele>101.19999694824</ele>
        <time>2019-12-12T13:12:18Z</time>
      </trkpt>
      <trkpt lat="43.67794" lon="3.38476">
        <ele>102.19999694824</ele>
        <time>2019-12-12T13:12:20Z</time>
      </trkpt>
      <trkpt lat="43.67788" lon="3.38467">
        <ele>104</ele>
        <time>2019-12-12T13:12:22Z</time>
      </trkpt>
      <trkpt lat="43.67778" lon="3.38446">
        <ele>105.19999694824</ele>
        <time>2019-12-12T13:12:26Z</time>
      </trkpt>
      <trkpt lat="43.67762" lon="3.38419">
        <ele>105.59999847412</ele>
        <time>2019-12-12T13:12:32Z</time>
      </trkpt>
      <trkpt lat="43.67749" lon="3.38399">
        <ele>106.59999847412</ele>
        <time>2019-12-12T13:12:37Z</time>
      </trkpt>
      <trkpt lat="43.67745" lon="3.38396">
        <ele>106.80000305176</ele>
        <time>2019-12-12T13:12:38Z</time>
      </trkpt>
      <trkpt lat="43.67741" lon="3.38394">
        <ele>107</ele>
        <time>2019-12-12T13:12:39Z</time>
      </trkpt>
      <trkpt lat="43.67732" lon="3.38382">
        <ele>107.19999694824</ele>
        <time>2019-12-12T13:12:42Z</time>
      </trkpt>
      <trkpt lat="43.67733" lon="3.3837">
        <ele>107.19999694824</ele>
        <time>2019-12-12T13:12:44Z</time>
      </trkpt>
      <trkpt lat="43.67734" lon="3.38359">
        <ele>107.19999694824</ele>
        <time>2019-12-12T13:12:46Z</time>
      </trkpt>
      <trkpt lat="43.67731" lon="3.38343">
        <ele>107.40000152588</ele>
        <time>2019-12-12T13:12:49Z</time>
      </trkpt>
      <trkpt lat="43.67727" lon="3.38333">
        <ele>107.40000152588</ele>
        <time>2019-12-12T13:12:51Z</time>
      </trkpt>
      <trkpt lat="43.67725" lon="3.38296">
        <ele>107.40000152588</ele>
        <time>2019-12-12T13:12:56Z</time>
      </trkpt>
      <trkpt lat="43.67726" lon="3.38284">
        <ele>107.59999847412</ele>
        <time>2019-12-12T13:12:58Z</time>
      </trkpt>
      <trkpt lat="43.67727" lon="3.38267">
        <ele>107.80000305176</ele>
        <time>2019-12-12T13:13:01Z</time>
      </trkpt>
      <trkpt lat="43.67727" lon="3.38255">
        <ele>107.80000305176</ele>
        <time>2019-12-12T13:13:03Z</time>
      </trkpt>
      <trkpt lat="43.67727" lon="3.38237">
        <ele>108</ele>
        <time>2019-12-12T13:13:06Z</time>
      </trkpt>
      <trkpt lat="43.6773" lon="3.38219">
        <ele>108.19999694824</ele>
        <time>2019-12-12T13:13:09Z</time>
      </trkpt>
      <trkpt lat="43.67732" lon="3.38213">
        <ele>108.19999694824</ele>
        <time>2019-12-12T13:13:10Z</time>
      </trkpt>
      <trkpt lat="43.67733" lon="3.38194">
        <ele>108.19999694824</ele>
        <time>2019-12-12T13:13:13Z</time>
      </trkpt>
      <trkpt lat="43.67732" lon="3.38188">
        <ele>108.19999694824</ele>
        <time>2019-12-12T13:13:15Z</time>
      </trkpt>
      <trkpt lat="43.6773" lon="3.38175">
        <ele>108.19999694824</ele>
        <time>2019-12-12T13:13:16Z</time>
      </trkpt>
      <trkpt lat="43.6773" lon="3.38169">
        <ele>108.19999694824</ele>
        <time>2019-12-12T13:13:17Z</time>
      </trkpt>
      <trkpt lat="43.6773" lon="3.38162">
        <ele>108.19999694824</ele>
        <time>2019-12-12T13:13:18Z</time>
      </trkpt>
      <trkpt lat="43.6773" lon="3.38142">
        <ele>107.19999694824</ele>
        <time>2019-12-12T13:13:21Z</time>
      </trkpt>
      <trkpt lat="43.67737" lon="3.38125">
        <ele>106.59999847412</ele>
        <time>2019-12-12T13:13:24Z</time>
      </trkpt>
      <trkpt lat="43.67739" lon="3.3812">
        <ele>106.59999847412</ele>
        <time>2019-12-12T13:13:25Z</time>
      </trkpt>
      <trkpt lat="43.67741" lon="3.38116">
        <ele>106.59999847412</ele>
        <time>2019-12-12T13:13:26Z</time>
      </trkpt>
      <trkpt lat="43.67746" lon="3.38095">
        <ele>106.59999847412</ele>
        <time>2019-12-12T13:13:30Z</time>
      </trkpt>
      <trkpt lat="43.67746" lon="3.38083">
        <ele>106.59999847412</ele>
        <time>2019-12-12T13:13:32Z</time>
      </trkpt>
      <trkpt lat="43.67749" lon="3.38066">
        <ele>106.80000305176</ele>
        <time>2019-12-12T13:13:35Z</time>
      </trkpt>
      <trkpt lat="43.6775" lon="3.3806">
        <ele>107.19999694824</ele>
        <time>2019-12-12T13:13:36Z</time>
      </trkpt>
      <trkpt lat="43.67752" lon="3.38055">
        <ele>107.80000305176</ele>
        <time>2019-12-12T13:13:37Z</time>
      </trkpt>
      <trkpt lat="43.67757" lon="3.3804">
        <ele>109</ele>
        <time>2019-12-12T13:13:40Z</time>
      </trkpt>
      <trkpt lat="43.67758" lon="3.38034">
        <ele>109.19999694824</ele>
        <time>2019-12-12T13:13:41Z</time>
      </trkpt>
      <trkpt lat="43.67758" lon="3.38028">
        <ele>109.40000152588</ele>
        <time>2019-12-12T13:13:42Z</time>
      </trkpt>
      <trkpt lat="43.67756" lon="3.38011">
        <ele>109.59999847412</ele>
        <time>2019-12-12T13:13:45Z</time>
      </trkpt>
      <trkpt lat="43.67761" lon="3.37988">
        <ele>109.80000305176</ele>
        <time>2019-12-12T13:13:49Z</time>
      </trkpt>
      <trkpt lat="43.67774" lon="3.37959">
        <ele>110</ele>
        <time>2019-12-12T13:13:55Z</time>
      </trkpt>
      <trkpt lat="43.67776" lon="3.37954">
        <ele>110</ele>
        <time>2019-12-12T13:13:56Z</time>
      </trkpt>
      <trkpt lat="43.67777" lon="3.37949">
        <ele>110.19999694824</ele>
        <time>2019-12-12T13:13:57Z</time>
      </trkpt>
      <trkpt lat="43.6778" lon="3.37926">
        <ele>110.59999847412</ele>
        <time>2019-12-12T13:14:01Z</time>
      </trkpt>
      <trkpt lat="43.67779" lon="3.37897">
        <ele>111.19999694824</ele>
        <time>2019-12-12T13:14:06Z</time>
      </trkpt>
      <trkpt lat="43.67778" lon="3.37891">
        <ele>111.40000152588</ele>
        <time>2019-12-12T13:14:07Z</time>
      </trkpt>
      <trkpt lat="43.67771" lon="3.3787">
        <ele>112.19999694824</ele>
        <time>2019-12-12T13:14:11Z</time>
      </trkpt>
      <trkpt lat="43.67769" lon="3.37865">
        <ele>112.19999694824</ele>
        <time>2019-12-12T13:14:12Z</time>
      </trkpt>
      <trkpt lat="43.67763" lon="3.37846">
        <ele>113.40000152588</ele>
        <time>2019-12-12T13:14:16Z</time>
      </trkpt>
      <trkpt lat="43.67762" lon="3.37836">
        <ele>114.19999694824</ele>
        <time>2019-12-12T13:14:18Z</time>
      </trkpt>
      <trkpt lat="43.67762" lon="3.37831">
        <ele>115</ele>
        <time>2019-12-12T13:14:19Z</time>
      </trkpt>
      <trkpt lat="43.67766" lon="3.37815">
        <ele>115.59999847412</ele>
        <time>2019-12-12T13:14:22Z</time>
      </trkpt>
      <trkpt lat="43.67768" lon="3.37811">
        <ele>115.80000305176</ele>
        <time>2019-12-12T13:14:23Z</time>
      </trkpt>
      <trkpt lat="43.67778" lon="3.37799">
        <ele>116.40000152588</ele>
        <time>2019-12-12T13:14:26Z</time>
      </trkpt>
      <trkpt lat="43.6778" lon="3.37795">
        <ele>116.40000152588</ele>
        <time>2019-12-12T13:14:27Z</time>
      </trkpt>
      <trkpt lat="43.67787" lon="3.37783">
        <ele>116.80000305176</ele>
        <time>2019-12-12T13:14:30Z</time>
      </trkpt>
      <trkpt lat="43.67793" lon="3.37775">
        <ele>117</ele>
        <time>2019-12-12T13:14:32Z</time>
      </trkpt>
      <trkpt lat="43.6781" lon="3.37743">
        <ele>117.40000152588</ele>
        <time>2019-12-12T13:14:39Z</time>
      </trkpt>
      <trkpt lat="43.67813" lon="3.3774">
        <ele>117.40000152588</ele>
        <time>2019-12-12T13:14:40Z</time>
      </trkpt>
      <trkpt lat="43.67824" lon="3.37724">
        <ele>117.59999847412</ele>
        <time>2019-12-12T13:14:44Z</time>
      </trkpt>
      <trkpt lat="43.67827" lon="3.37714">
        <ele>117.59999847412</ele>
        <time>2019-12-12T13:14:46Z</time>
      </trkpt>
      <trkpt lat="43.67833" lon="3.37687">
        <ele>117.59999847412</ele>
        <time>2019-12-12T13:14:51Z</time>
      </trkpt>
      <trkpt lat="43.67835" lon="3.37676">
        <ele>117.59999847412</ele>
        <time>2019-12-12T13:14:53Z</time>
      </trkpt>
      <trkpt lat="43.67837" lon="3.37671">
        <ele>117.59999847412</ele>
        <time>2019-12-12T13:14:54Z</time>
      </trkpt>
      <trkpt lat="43.67847" lon="3.37659">
        <ele>117.59999847412</ele>
        <time>2019-12-12T13:14:57Z</time>
      </trkpt>
      <trkpt lat="43.67851" lon="3.37656">
        <ele>117.59999847412</ele>
        <time>2019-12-12T13:14:58Z</time>
      </trkpt>
      <trkpt lat="43.67855" lon="3.37653">
        <ele>117.59999847412</ele>
        <time>2019-12-12T13:14:59Z</time>
      </trkpt>
      <trkpt lat="43.67864" lon="3.37642">
        <ele>118</ele>
        <time>2019-12-12T13:15:02Z</time>
      </trkpt>
      <trkpt lat="43.67867" lon="3.37637">
        <ele>118</ele>
        <time>2019-12-12T13:15:03Z</time>
      </trkpt>
      <trkpt lat="43.67876" lon="3.37617">
        <ele>118.19999694824</ele>
        <time>2019-12-12T13:15:07Z</time>
      </trkpt>
      <trkpt lat="43.67881" lon="3.37607">
        <ele>118.19999694824</ele>
        <time>2019-12-12T13:15:09Z</time>
      </trkpt>
      <trkpt lat="43.67887" lon="3.37599">
        <ele>118.19999694824</ele>
        <time>2019-12-12T13:15:11Z</time>
      </trkpt>
      <trkpt lat="43.67894" lon="3.37585">
        <ele>118.19999694824</ele>
        <time>2019-12-12T13:15:14Z</time>
      </trkpt>
      <trkpt lat="43.67911" lon="3.3755">
        <ele>117.80000305176</ele>
        <time>2019-12-12T13:15:21Z</time>
      </trkpt>
      <trkpt lat="43.67917" lon="3.37531">
        <ele>117.19999694824</ele>
        <time>2019-12-12T13:15:25Z</time>
      </trkpt>
      <trkpt lat="43.67919" lon="3.37526">
        <ele>117.19999694824</ele>
        <time>2019-12-12T13:15:26Z</time>
      </trkpt>
      <trkpt lat="43.6792" lon="3.37514">
        <ele>117</ele>
        <time>2019-12-12T13:15:28Z</time>
      </trkpt>
      <trkpt lat="43.67921" lon="3.37508">
        <ele>116.80000305176</ele>
        <time>2019-12-12T13:15:29Z</time>
      </trkpt>
      <trkpt lat="43.67923" lon="3.37496">
        <ele>116.80000305176</ele>
        <time>2019-12-12T13:15:31Z</time>
      </trkpt>
      <trkpt lat="43.67924" lon="3.37484">
        <ele>116.80000305176</ele>
        <time>2019-12-12T13:15:33Z</time>
      </trkpt>
      <trkpt lat="43.67926" lon="3.37467">
        <ele>116.80000305176</ele>
        <time>2019-12-12T13:15:36Z</time>
      </trkpt>
      <trkpt lat="43.67932" lon="3.37451">
        <ele>117</ele>
        <time>2019-12-12T13:15:39Z</time>
      </trkpt>
      <trkpt lat="43.67945" lon="3.37435">
        <ele>117.59999847412</ele>
        <time>2019-12-12T13:15:43Z</time>
      </trkpt>
      <trkpt lat="43.67951" lon="3.37428">
        <ele>118</ele>
        <time>2019-12-12T13:15:45Z</time>
      </trkpt>
      <trkpt lat="43.67961" lon="3.37411">
        <ele>118.40000152588</ele>
        <time>2019-12-12T13:15:49Z</time>
      </trkpt>
      <trkpt lat="43.67978" lon="3.3738">
        <ele>118.59999847412</ele>
        <time>2019-12-12T13:15:55Z</time>
      </trkpt>
      <trkpt lat="43.67996" lon="3.37364">
        <ele>118.59999847412</ele>
        <time>2019-12-12T13:16:00Z</time>
      </trkpt>
      <trkpt lat="43.68008" lon="3.37342">
        <ele>118.59999847412</ele>
        <time>2019-12-12T13:16:05Z</time>
      </trkpt>
      <trkpt lat="43.6801" lon="3.37331">
        <ele>118.59999847412</ele>
        <time>2019-12-12T13:16:07Z</time>
      </trkpt>
      <trkpt lat="43.68012" lon="3.37311">
        <ele>118.40000152588</ele>
        <time>2019-12-12T13:16:10Z</time>
      </trkpt>
      <trkpt lat="43.68014" lon="3.37298">
        <ele>118.80000305176</ele>
        <time>2019-12-12T13:16:12Z</time>
      </trkpt>
      <trkpt lat="43.68014" lon="3.3728">
        <ele>119.19999694824</ele>
        <time>2019-12-12T13:16:15Z</time>
      </trkpt>
      <trkpt lat="43.68014" lon="3.37275">
        <ele>119.40000152588</ele>
        <time>2019-12-12T13:16:16Z</time>
      </trkpt>
      <trkpt lat="43.68021" lon="3.37259">
        <ele>119.80000305176</ele>
        <time>2019-12-12T13:16:19Z</time>
      </trkpt>
      <trkpt lat="43.68036" lon="3.37244">
        <ele>120.40000152588</ele>
        <time>2019-12-12T13:16:23Z</time>
      </trkpt>
      <trkpt lat="43.68043" lon="3.37236">
        <ele>120.80000305176</ele>
        <time>2019-12-12T13:16:25Z</time>
      </trkpt>
      <trkpt lat="43.68049" lon="3.37227">
        <ele>121</ele>
        <time>2019-12-12T13:16:27Z</time>
      </trkpt>
      <trkpt lat="43.68055" lon="3.37218">
        <ele>121.19999694824</ele>
        <time>2019-12-12T13:16:29Z</time>
      </trkpt>
      <trkpt lat="43.6806" lon="3.3721">
        <ele>121.59999847412</ele>
        <time>2019-12-12T13:16:32Z</time>
      </trkpt>
      <trkpt lat="43.68067" lon="3.37188">
        <ele>123</ele>
        <time>2019-12-12T13:16:36Z</time>
      </trkpt>
      <trkpt lat="43.68068" lon="3.37178">
        <ele>124.59999847412</ele>
        <time>2019-12-12T13:16:39Z</time>
      </trkpt>
      <trkpt lat="43.68067" lon="3.37169">
        <ele>126</ele>
        <time>2019-12-12T13:16:42Z</time>
      </trkpt>
      <trkpt lat="43.68066" lon="3.37159">
        <ele>127</ele>
        <time>2019-12-12T13:16:45Z</time>
      </trkpt>
      <trkpt lat="43.68068" lon="3.37143">
        <ele>127.40000152588</ele>
        <time>2019-12-12T13:16:49Z</time>
      </trkpt>
      <trkpt lat="43.68078" lon="3.3713">
        <ele>127.40000152588</ele>
        <time>2019-12-12T13:16:53Z</time>
      </trkpt>
      <trkpt lat="43.68085" lon="3.37119">
        <ele>127.19999694824</ele>
        <time>2019-12-12T13:16:56Z</time>
      </trkpt>
      <trkpt lat="43.68086" lon="3.37114">
        <ele>127</ele>
        <time>2019-12-12T13:16:57Z</time>
      </trkpt>
      <trkpt lat="43.68087" lon="3.37097">
        <ele>126.40000152588</ele>
        <time>2019-12-12T13:17:00Z</time>
      </trkpt>
      <trkpt lat="43.68088" lon="3.37082">
        <ele>126.19999694824</ele>
        <time>2019-12-12T13:17:03Z</time>
      </trkpt>
      <trkpt lat="43.68088" lon="3.37071">
        <ele>126</ele>
        <time>2019-12-12T13:17:05Z</time>
      </trkpt>
      <trkpt lat="43.68088" lon="3.37041">
        <ele>124.80000305176</ele>
        <time>2019-12-12T13:17:10Z</time>
      </trkpt>
      <trkpt lat="43.6809" lon="3.36983">
        <ele>124</ele>
        <time>2019-12-12T13:17:19Z</time>
      </trkpt>
      <trkpt lat="43.68091" lon="3.36971">
        <ele>123.80000305176</ele>
        <time>2019-12-12T13:17:21Z</time>
      </trkpt>
      <trkpt lat="43.68094" lon="3.36942">
        <ele>123.40000152588</ele>
        <time>2019-12-12T13:17:26Z</time>
      </trkpt>
      <trkpt lat="43.68094" lon="3.36932">
        <ele>123.19999694824</ele>
        <time>2019-12-12T13:17:28Z</time>
      </trkpt>
      <trkpt lat="43.68092" lon="3.3692">
        <ele>123.19999694824</ele>
        <time>2019-12-12T13:17:30Z</time>
      </trkpt>
      <trkpt lat="43.68092" lon="3.36894">
        <ele>123.19999694824</ele>
        <time>2019-12-12T13:17:34Z</time>
      </trkpt>
      <trkpt lat="43.68094" lon="3.36888">
        <ele>123.19999694824</ele>
        <time>2019-12-12T13:17:35Z</time>
      </trkpt>
      <trkpt lat="43.68103" lon="3.36863">
        <ele>123</ele>
        <time>2019-12-12T13:17:39Z</time>
      </trkpt>
      <trkpt lat="43.68103" lon="3.36863">
        <ele>123</ele>
        <time>2019-12-12T13:17:40Z</time>
      </trkpt>
      <trkpt lat="43.68106" lon="3.3685">
        <ele>123</ele>
        <time>2019-12-12T13:17:41Z</time>
      </trkpt>
      <trkpt lat="43.68106" lon="3.36844">
        <ele>123</ele>
        <time>2019-12-12T13:17:42Z</time>
      </trkpt>
      <trkpt lat="43.68107" lon="3.3683">
        <ele>122.19999694824</ele>
        <time>2019-12-12T13:17:44Z</time>
      </trkpt>
      <trkpt lat="43.68107" lon="3.36823">
        <ele>121.59999847412</ele>
        <time>2019-12-12T13:17:45Z</time>
      </trkpt>
      <trkpt lat="43.68105" lon="3.368">
        <ele>120.19999694824</ele>
        <time>2019-12-12T13:17:48Z</time>
      </trkpt>
      <trkpt lat="43.68104" lon="3.36792">
        <ele>119.40000152588</ele>
        <time>2019-12-12T13:17:50Z</time>
      </trkpt>
      <trkpt lat="43.681" lon="3.36777">
        <ele>119.19999694824</ele>
        <time>2019-12-12T13:17:51Z</time>
      </trkpt>
      <trkpt lat="43.68096" lon="3.36761">
        <ele>118.80000305176</ele>
        <time>2019-12-12T13:17:53Z</time>
      </trkpt>
      <trkpt lat="43.68095" lon="3.36745">
        <ele>118.40000152588</ele>
        <time>2019-12-12T13:17:55Z</time>
      </trkpt>
      <trkpt lat="43.68095" lon="3.36737">
        <ele>118</ele>
        <time>2019-12-12T13:17:56Z</time>
      </trkpt>
      <trkpt lat="43.68093" lon="3.36721">
        <ele>116.80000305176</ele>
        <time>2019-12-12T13:17:58Z</time>
      </trkpt>
      <trkpt lat="43.68091" lon="3.367">
        <ele>115.40000152588</ele>
        <time>2019-12-12T13:18:01Z</time>
      </trkpt>
      <trkpt lat="43.6809" lon="3.36693">
        <ele>115.19999694824</ele>
        <time>2019-12-12T13:18:02Z</time>
      </trkpt>
      <trkpt lat="43.6809" lon="3.36686">
        <ele>115</ele>
        <time>2019-12-12T13:18:03Z</time>
      </trkpt>
      <trkpt lat="43.68094" lon="3.36666">
        <ele>114.40000152588</ele>
        <time>2019-12-12T13:18:06Z</time>
      </trkpt>
      <trkpt lat="43.68096" lon="3.3666">
        <ele>114.40000152588</ele>
        <time>2019-12-12T13:18:07Z</time>
      </trkpt>
      <trkpt lat="43.68103" lon="3.36623">
        <ele>114.40000152588</ele>
        <time>2019-12-12T13:18:13Z</time>
      </trkpt>
      <trkpt lat="43.68103" lon="3.36617">
        <ele>114.40000152588</ele>
        <time>2019-12-12T13:18:14Z</time>
      </trkpt>
      <trkpt lat="43.68105" lon="3.36606">
        <ele>114.40000152588</ele>
        <time>2019-12-12T13:18:16Z</time>
      </trkpt>
      <trkpt lat="43.6811" lon="3.36588">
        <ele>114.59999847412</ele>
        <time>2019-12-12T13:18:20Z</time>
      </trkpt>
      <trkpt lat="43.68111" lon="3.36575">
        <ele>114.59999847412</ele>
        <time>2019-12-12T13:18:21Z</time>
      </trkpt>
      <trkpt lat="43.68113" lon="3.36562">
        <ele>114.59999847412</ele>
        <time>2019-12-12T13:18:23Z</time>
      </trkpt>
      <trkpt lat="43.68115" lon="3.36557">
        <ele>114.59999847412</ele>
        <time>2019-12-12T13:18:25Z</time>
      </trkpt>
      <trkpt lat="43.68125" lon="3.36548">
        <ele>114.40000152588</ele>
        <time>2019-12-12T13:18:27Z</time>
      </trkpt>
      <trkpt lat="43.68128" lon="3.36545">
        <ele>113.80000305176</ele>
        <time>2019-12-12T13:18:29Z</time>
      </trkpt>
      <trkpt lat="43.68137" lon="3.36532">
        <ele>113.40000152588</ele>
        <time>2019-12-12T13:18:31Z</time>
      </trkpt>
      <trkpt lat="43.68139" lon="3.36526">
        <ele>113.19999694824</ele>
        <time>2019-12-12T13:18:32Z</time>
      </trkpt>
      <trkpt lat="43.68142" lon="3.36514">
        <ele>113.19999694824</ele>
        <time>2019-12-12T13:18:34Z</time>
      </trkpt>
      <trkpt lat="43.68144" lon="3.36508">
        <ele>113.19999694824</ele>
        <time>2019-12-12T13:18:35Z</time>
      </trkpt>
      <trkpt lat="43.68148" lon="3.3649">
        <ele>113.19999694824</ele>
        <time>2019-12-12T13:18:38Z</time>
      </trkpt>
      <trkpt lat="43.68158" lon="3.36463">
        <ele>113.59999847412</ele>
        <time>2019-12-12T13:18:43Z</time>
      </trkpt>
      <trkpt lat="43.68165" lon="3.36455">
        <ele>113.80000305176</ele>
        <time>2019-12-12T13:18:45Z</time>
      </trkpt>
      <trkpt lat="43.68176" lon="3.36447">
        <ele>114.40000152588</ele>
        <time>2019-12-12T13:18:49Z</time>
      </trkpt>
      <trkpt lat="43.68182" lon="3.36439">
        <ele>114.80000305176</ele>
        <time>2019-12-12T13:18:50Z</time>
      </trkpt>
      <trkpt lat="43.68186" lon="3.36429">
        <ele>115.59999847412</ele>
        <time>2019-12-12T13:18:54Z</time>
      </trkpt>
      <trkpt lat="43.68186" lon="3.36429">
        <ele>115.80000305176</ele>
        <time>2019-12-12T13:18:55Z</time>
      </trkpt>
      <trkpt lat="43.68188" lon="3.36427">
        <ele>118.80000305176</ele>
        <time>2019-12-12T13:19:04Z</time>
      </trkpt>
      <trkpt lat="43.68191" lon="3.36418">
        <ele>119.19999694824</ele>
        <time>2019-12-12T13:19:06Z</time>
      </trkpt>
      <trkpt lat="43.68197" lon="3.36404">
        <ele>119.40000152588</ele>
        <time>2019-12-12T13:19:10Z</time>
      </trkpt>
      <trkpt lat="43.68197" lon="3.36404">
        <ele>119.19999694824</ele>
        <time>2019-12-12T13:19:11Z</time>
      </trkpt>
      <trkpt lat="43.68197" lon="3.36398">
        <ele>119.40000152588</ele>
        <time>2019-12-12T13:19:12Z</time>
      </trkpt>
      <trkpt lat="43.68193" lon="3.36395">
        <ele>119.59999847412</ele>
        <time>2019-12-12T13:19:14Z</time>
      </trkpt>
      <trkpt lat="43.68184" lon="3.36396">
        <ele>120.40000152588</ele>
        <time>2019-12-12T13:19:17Z</time>
      </trkpt>
      <trkpt lat="43.68179" lon="3.36398">
        <ele>121.59999847412</ele>
        <time>2019-12-12T13:19:19Z</time>
      </trkpt>
      <trkpt lat="43.68173" lon="3.36399">
        <ele>123</ele>
        <time>2019-12-12T13:19:21Z</time>
      </trkpt>
      <trkpt lat="43.68166" lon="3.364">
        <ele>124</ele>
        <time>2019-12-12T13:19:25Z</time>
      </trkpt>
      <trkpt lat="43.68162" lon="3.36397">
        <ele>124.40000152588</ele>
        <time>2019-12-12T13:19:27Z</time>
      </trkpt>
      <trkpt lat="43.6816" lon="3.3639">
        <ele>125</ele>
        <time>2019-12-12T13:19:29Z</time>
      </trkpt>
      <trkpt lat="43.68162" lon="3.36383">
        <ele>125.19999694824</ele>
        <time>2019-12-12T13:19:30Z</time>
      </trkpt>
      <trkpt lat="43.68162" lon="3.36383">
        <ele>125.40000152588</ele>
        <time>2019-12-12T13:19:31Z</time>
      </trkpt>
      <trkpt lat="43.68165" lon="3.36374">
        <ele>126.19999694824</ele>
        <time>2019-12-12T13:19:33Z</time>
      </trkpt>
      <trkpt lat="43.68168" lon="3.36366">
        <ele>127.40000152588</ele>
        <time>2019-12-12T13:19:36Z</time>
      </trkpt>
      <trkpt lat="43.68168" lon="3.36359">
        <ele>128.19999694824</ele>
        <time>2019-12-12T13:19:38Z</time>
      </trkpt>
      <trkpt lat="43.68168" lon="3.36356">
        <ele>128.39999389648</ele>
        <time>2019-12-12T13:19:39Z</time>
      </trkpt>
      <trkpt lat="43.68167" lon="3.36344">
        <ele>129.60000610352</ele>
        <time>2019-12-12T13:19:43Z</time>
      </trkpt>
      <trkpt lat="43.68166" lon="3.36336">
        <ele>130.60000610352</ele>
        <time>2019-12-12T13:19:46Z</time>
      </trkpt>
      <trkpt lat="43.68165" lon="3.36333">
        <ele>131</ele>
        <time>2019-12-12T13:19:47Z</time>
      </trkpt>
      <trkpt lat="43.68164" lon="3.36328">
        <ele>132</ele>
        <time>2019-12-12T13:19:50Z</time>
      </trkpt>
      <trkpt lat="43.68162" lon="3.36315">
        <ele>132.39999389648</ele>
        <time>2019-12-12T13:19:53Z</time>
      </trkpt>
      <trkpt lat="43.68156" lon="3.36287">
        <ele>132.39999389648</ele>
        <time>2019-12-12T13:20:00Z</time>
      </trkpt>
      <trkpt lat="43.68148" lon="3.3625">
        <ele>132.19999694824</ele>
        <time>2019-12-12T13:20:08Z</time>
      </trkpt>
      <trkpt lat="43.68146" lon="3.36208">
        <ele>132.60000610352</ele>
        <time>2019-12-12T13:20:17Z</time>
      </trkpt>
      <trkpt lat="43.68144" lon="3.36164">
        <ele>132.60000610352</ele>
        <time>2019-12-12T13:20:25Z</time>
      </trkpt>
      <trkpt lat="43.68146" lon="3.36126">
        <ele>132.60000610352</ele>
        <time>2019-12-12T13:20:31Z</time>
      </trkpt>
      <trkpt lat="43.68144" lon="3.36112">
        <ele>132.39999389648</ele>
        <time>2019-12-12T13:20:32Z</time>
      </trkpt>
      <trkpt lat="43.68139" lon="3.36057">
        <ele>131.60000610352</ele>
        <time>2019-12-12T13:20:39Z</time>
      </trkpt>
      <trkpt lat="43.68139" lon="3.36057">
        <ele>130.80000305176</ele>
        <time>2019-12-12T13:20:40Z</time>
      </trkpt>
      <trkpt lat="43.68139" lon="3.36049">
        <ele>130.19999694824</ele>
        <time>2019-12-12T13:20:41Z</time>
      </trkpt>
      <trkpt lat="43.6814" lon="3.36043">
        <ele>129.60000610352</ele>
        <time>2019-12-12T13:20:42Z</time>
      </trkpt>
      <trkpt lat="43.68145" lon="3.36033">
        <ele>129</ele>
        <time>2019-12-12T13:20:44Z</time>
      </trkpt>
      <trkpt lat="43.68155" lon="3.36022">
        <ele>128.80000305176</ele>
        <time>2019-12-12T13:20:46Z</time>
      </trkpt>
      <trkpt lat="43.68159" lon="3.36018">
        <ele>128.80000305176</ele>
        <time>2019-12-12T13:20:47Z</time>
      </trkpt>
      <trkpt lat="43.68162" lon="3.36014">
        <ele>128.80000305176</ele>
        <time>2019-12-12T13:20:49Z</time>
      </trkpt>
      <trkpt lat="43.68164" lon="3.36008">
        <ele>128.80000305176</ele>
        <time>2019-12-12T13:20:50Z</time>
      </trkpt>
      <trkpt lat="43.68166" lon="3.35995">
        <ele>128.60000610352</ele>
        <time>2019-12-12T13:20:52Z</time>
      </trkpt>
      <trkpt lat="43.68168" lon="3.3598">
        <ele>128.60000610352</ele>
        <time>2019-12-12T13:20:53Z</time>
      </trkpt>
      <trkpt lat="43.68168" lon="3.35972">
        <ele>128.39999389648</ele>
        <time>2019-12-12T13:20:54Z</time>
      </trkpt>
      <trkpt lat="43.68172" lon="3.3593">
        <ele>128.19999694824</ele>
        <time>2019-12-12T13:21:00Z</time>
      </trkpt>
      <trkpt lat="43.6817" lon="3.35923">
        <ele>127.59999847412</ele>
        <time>2019-12-12T13:21:01Z</time>
      </trkpt>
      <trkpt lat="43.68157" lon="3.35902">
        <ele>126.40000152588</ele>
        <time>2019-12-12T13:21:03Z</time>
      </trkpt>
      <trkpt lat="43.68152" lon="3.35895">
        <ele>126</ele>
        <time>2019-12-12T13:21:04Z</time>
      </trkpt>
      <trkpt lat="43.68147" lon="3.35888">
        <ele>125.40000152588</ele>
        <time>2019-12-12T13:21:05Z</time>
      </trkpt>
      <trkpt lat="43.68142" lon="3.3588">
        <ele>124.19999694824</ele>
        <time>2019-12-12T13:21:07Z</time>
      </trkpt>
      <trkpt lat="43.68132" lon="3.35853">
        <ele>123.59999847412</ele>
        <time>2019-12-12T13:21:09Z</time>
      </trkpt>
      <trkpt lat="43.68132" lon="3.35853">
        <ele>123.19999694824</ele>
        <time>2019-12-12T13:21:10Z</time>
      </trkpt>
      <trkpt lat="43.68129" lon="3.35844">
        <ele>122.80000305176</ele>
        <time>2019-12-12T13:21:11Z</time>
      </trkpt>
      <trkpt lat="43.68117" lon="3.35824">
        <ele>122.40000152588</ele>
        <time>2019-12-12T13:21:13Z</time>
      </trkpt>
      <trkpt lat="43.68113" lon="3.35818">
        <ele>122.40000152588</ele>
        <time>2019-12-12T13:21:15Z</time>
      </trkpt>
      <trkpt lat="43.68104" lon="3.35794">
        <ele>122.19999694824</ele>
        <time>2019-12-12T13:21:18Z</time>
      </trkpt>
      <trkpt lat="43.68099" lon="3.35777">
        <ele>122.40000152588</ele>
        <time>2019-12-12T13:21:23Z</time>
      </trkpt>
      <trkpt lat="43.68099" lon="3.35775">
        <ele>122.80000305176</ele>
        <time>2019-12-12T13:21:25Z</time>
      </trkpt>
      <trkpt lat="43.68103" lon="3.35771">
        <ele>123.40000152588</ele>
        <time>2019-12-12T13:21:27Z</time>
      </trkpt>
      <trkpt lat="43.68111" lon="3.3578">
        <ele>124.40000152588</ele>
        <time>2019-12-12T13:21:30Z</time>
      </trkpt>
      <trkpt lat="43.68111" lon="3.3578">
        <ele>124.40000152588</ele>
        <time>2019-12-12T13:21:31Z</time>
      </trkpt>
      <trkpt lat="43.68114" lon="3.35784">
        <ele>124.59999847412</ele>
        <time>2019-12-12T13:21:32Z</time>
      </trkpt>
      <trkpt lat="43.68116" lon="3.35785">
        <ele>124.80000305176</ele>
        <time>2019-12-12T13:21:34Z</time>
      </trkpt>
      <trkpt lat="43.6812" lon="3.35788">
        <ele>125.59999847412</ele>
        <time>2019-12-12T13:21:38Z</time>
      </trkpt>
      <trkpt lat="43.68122" lon="3.35787">
        <ele>126.19999694824</ele>
        <time>2019-12-12T13:21:40Z</time>
      </trkpt>
      <trkpt lat="43.68123" lon="3.35785">
        <ele>126.80000305176</ele>
        <time>2019-12-12T13:21:41Z</time>
      </trkpt>
      <trkpt lat="43.68121" lon="3.35776">
        <ele>127.19999694824</ele>
        <time>2019-12-12T13:21:44Z</time>
      </trkpt>
      <trkpt lat="43.68117" lon="3.35769">
        <ele>127.19999694824</ele>
        <time>2019-12-12T13:21:45Z</time>
      </trkpt>
      <trkpt lat="43.68106" lon="3.35752">
        <ele>127.19999694824</ele>
        <time>2019-12-12T13:21:50Z</time>
      </trkpt>
      <trkpt lat="43.68104" lon="3.35748">
        <ele>127.19999694824</ele>
        <time>2019-12-12T13:21:51Z</time>
      </trkpt>
      <trkpt lat="43.68085" lon="3.35717">
        <ele>127.19999694824</ele>
        <time>2019-12-12T13:21:59Z</time>
      </trkpt>
      <trkpt lat="43.68066" lon="3.35689">
        <ele>127.80000305176</ele>
        <time>2019-12-12T13:22:07Z</time>
      </trkpt>
      <trkpt lat="43.68059" lon="3.35676">
        <ele>128</ele>
        <time>2019-12-12T13:22:10Z</time>
      </trkpt>
      <trkpt lat="43.6804" lon="3.35647">
        <ele>128.80000305176</ele>
        <time>2019-12-12T13:22:17Z</time>
      </trkpt>
      <trkpt lat="43.68026" lon="3.35624">
        <ele>129.19999694824</ele>
        <time>2019-12-12T13:22:21Z</time>
      </trkpt>
      <trkpt lat="43.68018" lon="3.35611">
        <ele>129.39999389648</ele>
        <time>2019-12-12T13:22:24Z</time>
      </trkpt>
      <trkpt lat="43.67987" lon="3.35563">
        <ele>130.19999694824</ele>
        <time>2019-12-12T13:22:35Z</time>
      </trkpt>
      <trkpt lat="43.67982" lon="3.35554">
        <ele>130.39999389648</ele>
        <time>2019-12-12T13:22:37Z</time>
      </trkpt>
      <trkpt lat="43.67964" lon="3.35526">
        <ele>131.39999389648</ele>
        <time>2019-12-12T13:22:43Z</time>
      </trkpt>
      <trkpt lat="43.67955" lon="3.35512">
        <ele>131.60000610352</ele>
        <time>2019-12-12T13:22:46Z</time>
      </trkpt>
      <trkpt lat="43.67941" lon="3.35489">
        <ele>132.60000610352</ele>
        <time>2019-12-12T13:22:51Z</time>
      </trkpt>
      <trkpt lat="43.67925" lon="3.35464">
        <ele>133.19999694824</ele>
        <time>2019-12-12T13:22:57Z</time>
      </trkpt>
      <trkpt lat="43.67922" lon="3.3546">
        <ele>133.80000305176</ele>
        <time>2019-12-12T13:22:59Z</time>
      </trkpt>
      <trkpt lat="43.67892" lon="3.35411">
        <ele>134.80000305176</ele>
        <time>2019-12-12T13:23:09Z</time>
      </trkpt>
      <trkpt lat="43.67889" lon="3.35406">
        <ele>135</ele>
        <time>2019-12-12T13:23:10Z</time>
      </trkpt>
      <trkpt lat="43.67865" lon="3.35368">
        <ele>136</ele>
        <time>2019-12-12T13:23:19Z</time>
      </trkpt>
      <trkpt lat="43.67839" lon="3.35326">
        <ele>137.19999694824</ele>
        <time>2019-12-12T13:23:29Z</time>
      </trkpt>
      <trkpt lat="43.67839" lon="3.35326">
        <ele>137.19999694824</ele>
        <time>2019-12-12T13:23:30Z</time>
      </trkpt>
      <trkpt lat="43.67815" lon="3.35287">
        <ele>138.39999389648</ele>
        <time>2019-12-12T13:23:38Z</time>
      </trkpt>
      <trkpt lat="43.6781" lon="3.35279">
        <ele>138.80000305176</ele>
        <time>2019-12-12T13:23:40Z</time>
      </trkpt>
      <trkpt lat="43.6779" lon="3.35248">
        <ele>139.39999389648</ele>
        <time>2019-12-12T13:23:48Z</time>
      </trkpt>
      <trkpt lat="43.67785" lon="3.35241">
        <ele>140</ele>
        <time>2019-12-12T13:23:50Z</time>
      </trkpt>
      <trkpt lat="43.67779" lon="3.3523">
        <ele>140.80000305176</ele>
        <time>2019-12-12T13:23:53Z</time>
      </trkpt>
      <trkpt lat="43.67773" lon="3.3522">
        <ele>141.60000610352</ele>
        <time>2019-12-12T13:23:57Z</time>
      </trkpt>
      <trkpt lat="43.6777" lon="3.35212">
        <ele>142</ele>
        <time>2019-12-12T13:24:02Z</time>
      </trkpt>
      <trkpt lat="43.67769" lon="3.35207">
        <ele>142.19999694824</ele>
        <time>2019-12-12T13:24:05Z</time>
      </trkpt>
      <trkpt lat="43.67766" lon="3.35201">
        <ele>142.80000305176</ele>
        <time>2019-12-12T13:24:11Z</time>
      </trkpt>
      <trkpt lat="43.67766" lon="3.35201">
        <ele>142.80000305176</ele>
        <time>2019-12-12T13:24:12Z</time>
      </trkpt>
      <trkpt lat="43.67765" lon="3.35199">
        <ele>142.80000305176</ele>
        <time>2019-12-12T13:24:31Z</time>
      </trkpt>
      <trkpt lat="43.67764" lon="3.35194">
        <ele>142.80000305176</ele>
        <time>2019-12-12T13:24:33Z</time>
      </trkpt>
      <trkpt lat="43.67759" lon="3.35169">
        <ele>143</ele>
        <time>2019-12-12T13:24:37Z</time>
      </trkpt>
      <trkpt lat="43.67758" lon="3.35122">
        <ele>142.19999694824</ele>
        <time>2019-12-12T13:24:43Z</time>
      </trkpt>
      <trkpt lat="43.67761" lon="3.35089">
        <ele>141.19999694824</ele>
        <time>2019-12-12T13:24:47Z</time>
      </trkpt>
      <trkpt lat="43.67764" lon="3.35046">
        <ele>140.60000610352</ele>
        <time>2019-12-12T13:24:52Z</time>
      </trkpt>
      <trkpt lat="43.67772" lon="3.34969">
        <ele>140.19999694824</ele>
        <time>2019-12-12T13:25:01Z</time>
      </trkpt>
      <trkpt lat="43.67783" lon="3.34893">
        <ele>140.19999694824</ele>
        <time>2019-12-12T13:25:11Z</time>
      </trkpt>
      <trkpt lat="43.67787" lon="3.34868">
        <ele>140.39999389648</ele>
        <time>2019-12-12T13:25:14Z</time>
      </trkpt>
      <trkpt lat="43.67794" lon="3.34816">
        <ele>141.19999694824</ele>
        <time>2019-12-12T13:25:21Z</time>
      </trkpt>
      <trkpt lat="43.67803" lon="3.34758">
        <ele>142</ele>
        <time>2019-12-12T13:25:30Z</time>
      </trkpt>
      <trkpt lat="43.67812" lon="3.34701">
        <ele>141.80000305176</ele>
        <time>2019-12-12T13:25:39Z</time>
      </trkpt>
      <trkpt lat="43.67822" lon="3.34633">
        <ele>140.60000610352</ele>
        <time>2019-12-12T13:25:48Z</time>
      </trkpt>
      <trkpt lat="43.67824" lon="3.34613">
        <ele>140.19999694824</ele>
        <time>2019-12-12T13:25:52Z</time>
      </trkpt>
      <trkpt lat="43.67828" lon="3.34583">
        <ele>139.60000610352</ele>
        <time>2019-12-12T13:25:56Z</time>
      </trkpt>
      <trkpt lat="43.67833" lon="3.34538">
        <ele>139</ele>
        <time>2019-12-12T13:26:02Z</time>
      </trkpt>
      <trkpt lat="43.67834" lon="3.34526">
        <ele>138.80000305176</ele>
        <time>2019-12-12T13:26:03Z</time>
      </trkpt>
      <trkpt lat="43.67836" lon="3.34483">
        <ele>139.19999694824</ele>
        <time>2019-12-12T13:26:12Z</time>
      </trkpt>
      <trkpt lat="43.6782" lon="3.34469">
        <ele>139.60000610352</ele>
        <time>2019-12-12T13:26:16Z</time>
      </trkpt>
      <trkpt lat="43.6781" lon="3.34466">
        <ele>139.80000305176</ele>
        <time>2019-12-12T13:26:19Z</time>
      </trkpt>
      <trkpt lat="43.67803" lon="3.34466">
        <ele>140</ele>
        <time>2019-12-12T13:26:21Z</time>
      </trkpt>
      <trkpt lat="43.67779" lon="3.34472">
        <ele>141.19999694824</ele>
        <time>2019-12-12T13:26:28Z</time>
      </trkpt>
      <trkpt lat="43.67768" lon="3.34474">
        <ele>142</ele>
        <time>2019-12-12T13:26:33Z</time>
      </trkpt>
      <trkpt lat="43.67766" lon="3.34472">
        <ele>142.19999694824</ele>
        <time>2019-12-12T13:26:34Z</time>
      </trkpt>
      <trkpt lat="43.67765" lon="3.34468">
        <ele>142.60000610352</ele>
        <time>2019-12-12T13:26:36Z</time>
      </trkpt>
      <trkpt lat="43.67765" lon="3.34468">
        <ele>142.80000305176</ele>
        <time>2019-12-12T13:26:37Z</time>
      </trkpt>
      <trkpt lat="43.67766" lon="3.34466">
        <ele>143</ele>
        <time>2019-12-12T13:26:38Z</time>
      </trkpt>
      <trkpt lat="43.67769" lon="3.3445">
        <ele>143.60000610352</ele>
        <time>2019-12-12T13:26:43Z</time>
      </trkpt>
      <trkpt lat="43.67769" lon="3.3445">
        <ele>143.60000610352</ele>
        <time>2019-12-12T13:26:44Z</time>
      </trkpt>
      <trkpt lat="43.67774" lon="3.3443">
        <ele>143.60000610352</ele>
        <time>2019-12-12T13:26:49Z</time>
      </trkpt>
      <trkpt lat="43.67776" lon="3.34408">
        <ele>141.60000610352</ele>
        <time>2019-12-12T13:26:54Z</time>
      </trkpt>
      <trkpt lat="43.67777" lon="3.34402">
        <ele>141.39999389648</ele>
        <time>2019-12-12T13:26:55Z</time>
      </trkpt>
      <trkpt lat="43.67782" lon="3.34385">
        <ele>141.19999694824</ele>
        <time>2019-12-12T13:26:58Z</time>
      </trkpt>
      <trkpt lat="43.67783" lon="3.34379">
        <ele>141</ele>
        <time>2019-12-12T13:26:59Z</time>
      </trkpt>
      <trkpt lat="43.67787" lon="3.34361">
        <ele>140.39999389648</ele>
        <time>2019-12-12T13:27:02Z</time>
      </trkpt>
      <trkpt lat="43.67789" lon="3.3435">
        <ele>139.39999389648</ele>
        <time>2019-12-12T13:27:05Z</time>
      </trkpt>
      <trkpt lat="43.67789" lon="3.34326">
        <ele>139</ele>
        <time>2019-12-12T13:27:11Z</time>
      </trkpt>
      <trkpt lat="43.67788" lon="3.34313">
        <ele>139</ele>
        <time>2019-12-12T13:27:16Z</time>
      </trkpt>
      <trkpt lat="43.67788" lon="3.34311">
        <ele>140.19999694824</ele>
        <time>2019-12-12T13:27:38Z</time>
      </trkpt>
      <trkpt lat="43.6779" lon="3.3431">
        <ele>140.19999694824</ele>
        <time>2019-12-12T13:27:40Z</time>
      </trkpt>
      <trkpt lat="43.67799" lon="3.34309">
        <ele>140.19999694824</ele>
        <time>2019-12-12T13:27:43Z</time>
      </trkpt>
      <trkpt lat="43.67799" lon="3.34309">
        <ele>140.19999694824</ele>
        <time>2019-12-12T13:27:44Z</time>
      </trkpt>
      <trkpt lat="43.67802" lon="3.34303">
        <ele>140.19999694824</ele>
        <time>2019-12-12T13:27:45Z</time>
      </trkpt>
      <trkpt lat="43.67805" lon="3.34294">
        <ele>140.19999694824</ele>
        <time>2019-12-12T13:27:48Z</time>
      </trkpt>
      <trkpt lat="43.67812" lon="3.34275">
        <ele>140.60000610352</ele>
        <time>2019-12-12T13:27:54Z</time>
      </trkpt>
      <trkpt lat="43.67812" lon="3.34275">
        <ele>141</ele>
        <time>2019-12-12T13:27:55Z</time>
      </trkpt>
      <trkpt lat="43.67814" lon="3.34262">
        <ele>141.80000305176</ele>
        <time>2019-12-12T13:27:58Z</time>
      </trkpt>
      <trkpt lat="43.67816" lon="3.34236">
        <ele>142.60000610352</ele>
        <time>2019-12-12T13:28:03Z</time>
      </trkpt>
      <trkpt lat="43.67816" lon="3.34215">
        <ele>142.80000305176</ele>
        <time>2019-12-12T13:28:08Z</time>
      </trkpt>
      <trkpt lat="43.67816" lon="3.3421">
        <ele>143</ele>
        <time>2019-12-12T13:28:09Z</time>
      </trkpt>
      <trkpt lat="43.67822" lon="3.34177">
        <ele>143.60000610352</ele>
        <time>2019-12-12T13:28:17Z</time>
      </trkpt>
      <trkpt lat="43.67819" lon="3.34158">
        <ele>144.19999694824</ele>
        <time>2019-12-12T13:28:22Z</time>
      </trkpt>
      <trkpt lat="43.67815" lon="3.34127">
        <ele>145.19999694824</ele>
        <time>2019-12-12T13:28:30Z</time>
      </trkpt>
      <trkpt lat="43.67813" lon="3.34098">
        <ele>146.19999694824</ele>
        <time>2019-12-12T13:28:37Z</time>
      </trkpt>
      <trkpt lat="43.67813" lon="3.34094">
        <ele>146.39999389648</ele>
        <time>2019-12-12T13:28:38Z</time>
      </trkpt>
      <trkpt lat="43.67813" lon="3.34073">
        <ele>146.80000305176</ele>
        <time>2019-12-12T13:28:43Z</time>
      </trkpt>
      <trkpt lat="43.67812" lon="3.34065">
        <ele>147.39999389648</ele>
        <time>2019-12-12T13:28:45Z</time>
      </trkpt>
      <trkpt lat="43.67811" lon="3.34053">
        <ele>147.60000610352</ele>
        <time>2019-12-12T13:28:48Z</time>
      </trkpt>
      <trkpt lat="43.6781" lon="3.34031">
        <ele>147.60000610352</ele>
        <time>2019-12-12T13:28:53Z</time>
      </trkpt>
      <trkpt lat="43.67806" lon="3.3401">
        <ele>147.39999389648</ele>
        <time>2019-12-12T13:28:59Z</time>
      </trkpt>
      <trkpt lat="43.67797" lon="3.33998">
        <ele>147.19999694824</ele>
        <time>2019-12-12T13:29:04Z</time>
      </trkpt>
      <trkpt lat="43.67785" lon="3.3399">
        <ele>147</ele>
        <time>2019-12-12T13:29:08Z</time>
      </trkpt>
      <trkpt lat="43.67775" lon="3.33985">
        <ele>146.80000305176</ele>
        <time>2019-12-12T13:29:12Z</time>
      </trkpt>
      <trkpt lat="43.6777" lon="3.33982">
        <ele>146.80000305176</ele>
        <time>2019-12-12T13:29:14Z</time>
      </trkpt>
      <trkpt lat="43.67769" lon="3.3398">
        <ele>146.80000305176</ele>
        <time>2019-12-12T13:29:16Z</time>
      </trkpt>
      <trkpt lat="43.67768" lon="3.33962">
        <ele>146.80000305176</ele>
        <time>2019-12-12T13:29:20Z</time>
      </trkpt>
      <trkpt lat="43.6777" lon="3.33949">
        <ele>147</ele>
        <time>2019-12-12T13:29:24Z</time>
      </trkpt>
      <trkpt lat="43.67767" lon="3.33942">
        <ele>147.19999694824</ele>
        <time>2019-12-12T13:29:26Z</time>
      </trkpt>
      <trkpt lat="43.67763" lon="3.33933">
        <ele>147.39999389648</ele>
        <time>2019-12-12T13:29:29Z</time>
      </trkpt>
      <trkpt lat="43.6776" lon="3.33913">
        <ele>148.19999694824</ele>
        <time>2019-12-12T13:29:35Z</time>
      </trkpt>
      <trkpt lat="43.67761" lon="3.33906">
        <ele>148.39999389648</ele>
        <time>2019-12-12T13:29:37Z</time>
      </trkpt>
      <trkpt lat="43.67761" lon="3.33903">
        <ele>148.39999389648</ele>
        <time>2019-12-12T13:29:38Z</time>
      </trkpt>
      <trkpt lat="43.67758" lon="3.33898">
        <ele>148.60000610352</ele>
        <time>2019-12-12T13:29:40Z</time>
      </trkpt>
      <trkpt lat="43.67754" lon="3.3389">
        <ele>149.60000610352</ele>
        <time>2019-12-12T13:29:44Z</time>
      </trkpt>
      <trkpt lat="43.67751" lon="3.33886">
        <ele>150.39999389648</ele>
        <time>2019-12-12T13:29:47Z</time>
      </trkpt>
      <trkpt lat="43.6775" lon="3.33884">
        <ele>150.80000305176</ele>
        <time>2019-12-12T13:29:48Z</time>
      </trkpt>
      <trkpt lat="43.67744" lon="3.33877">
        <ele>151.80000305176</ele>
        <time>2019-12-12T13:29:52Z</time>
      </trkpt>
      <trkpt lat="43.67741" lon="3.33874">
        <ele>152.19999694824</ele>
        <time>2019-12-12T13:29:54Z</time>
      </trkpt>
      <trkpt lat="43.67736" lon="3.33869">
        <ele>153</ele>
        <time>2019-12-12T13:29:59Z</time>
      </trkpt>
      <trkpt lat="43.67734" lon="3.33868">
        <ele>153.39999389648</ele>
        <time>2019-12-12T13:30:00Z</time>
      </trkpt>
      <trkpt lat="43.67732" lon="3.33865">
        <ele>155.19999694824</ele>
        <time>2019-12-12T13:30:02Z</time>
      </trkpt>
      <trkpt lat="43.67728" lon="3.33859">
        <ele>156</ele>
        <time>2019-12-12T13:30:05Z</time>
      </trkpt>
      <trkpt lat="43.67725" lon="3.33855">
        <ele>156.60000610352</ele>
        <time>2019-12-12T13:30:07Z</time>
      </trkpt>
      <trkpt lat="43.67716" lon="3.33843">
        <ele>157.19999694824</ele>
        <time>2019-12-12T13:30:13Z</time>
      </trkpt>
      <trkpt lat="43.67714" lon="3.33838">
        <ele>157.39999389648</ele>
        <time>2019-12-12T13:30:15Z</time>
      </trkpt>
      <trkpt lat="43.67702" lon="3.33817">
        <ele>158</ele>
        <time>2019-12-12T13:30:23Z</time>
      </trkpt>
      <trkpt lat="43.67701" lon="3.33816">
        <ele>158.19999694824</ele>
        <time>2019-12-12T13:30:24Z</time>
      </trkpt>
      <trkpt lat="43.67695" lon="3.33812">
        <ele>158.39999389648</ele>
        <time>2019-12-12T13:30:27Z</time>
      </trkpt>
      <trkpt lat="43.67693" lon="3.3381">
        <ele>158.60000610352</ele>
        <time>2019-12-12T13:30:28Z</time>
      </trkpt>
      <trkpt lat="43.67676" lon="3.33783">
        <ele>158.80000305176</ele>
        <time>2019-12-12T13:30:37Z</time>
      </trkpt>
      <trkpt lat="43.67667" lon="3.33764">
        <ele>159.19999694824</ele>
        <time>2019-12-12T13:30:43Z</time>
      </trkpt>
      <trkpt lat="43.67664" lon="3.33757">
        <ele>159.39999389648</ele>
        <time>2019-12-12T13:30:45Z</time>
      </trkpt>
      <trkpt lat="43.67654" lon="3.33736">
        <ele>159.80000305176</ele>
        <time>2019-12-12T13:30:51Z</time>
      </trkpt>
      <trkpt lat="43.67641" lon="3.33721">
        <ele>159.80000305176</ele>
        <time>2019-12-12T13:30:56Z</time>
      </trkpt>
      <trkpt lat="43.67623" lon="3.33701">
        <ele>159.60000610352</ele>
        <time>2019-12-12T13:31:03Z</time>
      </trkpt>
      <trkpt lat="43.67605" lon="3.3368">
        <ele>159.60000610352</ele>
        <time>2019-12-12T13:31:10Z</time>
      </trkpt>
      <trkpt lat="43.67587" lon="3.33655">
        <ele>160.19999694824</ele>
        <time>2019-12-12T13:31:19Z</time>
      </trkpt>
      <trkpt lat="43.67575" lon="3.33636">
        <ele>160</ele>
        <time>2019-12-12T13:31:25Z</time>
      </trkpt>
      <trkpt lat="43.67569" lon="3.33627">
        <ele>158.19999694824</ele>
        <time>2019-12-12T13:31:32Z</time>
      </trkpt>
      <trkpt lat="43.67563" lon="3.33616">
        <ele>157.19999694824</ele>
        <time>2019-12-12T13:31:37Z</time>
      </trkpt>
      <trkpt lat="43.67561" lon="3.33615">
        <ele>157</ele>
        <time>2019-12-12T13:31:38Z</time>
      </trkpt>
      <trkpt lat="43.67552" lon="3.33614">
        <ele>156.60000610352</ele>
        <time>2019-12-12T13:31:43Z</time>
      </trkpt>
      <trkpt lat="43.67545" lon="3.33609">
        <ele>156.60000610352</ele>
        <time>2019-12-12T13:31:46Z</time>
      </trkpt>
      <trkpt lat="43.67541" lon="3.33606">
        <ele>156.60000610352</ele>
        <time>2019-12-12T13:31:48Z</time>
      </trkpt>
      <trkpt lat="43.67536" lon="3.33602">
        <ele>157.19999694824</ele>
        <time>2019-12-12T13:31:51Z</time>
      </trkpt>
      <trkpt lat="43.67531" lon="3.33602">
        <ele>157.80000305176</ele>
        <time>2019-12-12T13:31:53Z</time>
      </trkpt>
      <trkpt lat="43.67526" lon="3.33604">
        <ele>158.19999694824</ele>
        <time>2019-12-12T13:31:59Z</time>
      </trkpt>
      <trkpt lat="43.67526" lon="3.33603">
        <ele>158.19999694824</ele>
        <time>2019-12-12T13:32:42Z</time>
      </trkpt>
      <trkpt lat="43.67524" lon="3.33604">
        <ele>158.19999694824</ele>
        <time>2019-12-12T13:32:43Z</time>
      </trkpt>
      <trkpt lat="43.67524" lon="3.33604">
        <ele>158.19999694824</ele>
        <time>2019-12-12T13:32:44Z</time>
      </trkpt>
      <trkpt lat="43.67523" lon="3.33605">
        <ele>158.19999694824</ele>
        <time>2019-12-12T13:32:45Z</time>
      </trkpt>
      <trkpt lat="43.67519" lon="3.33616">
        <ele>158.19999694824</ele>
        <time>2019-12-12T13:32:48Z</time>
      </trkpt>
      <trkpt lat="43.67512" lon="3.33625">
        <ele>158.39999389648</ele>
        <time>2019-12-12T13:32:53Z</time>
      </trkpt>
      <trkpt lat="43.6751" lon="3.33625">
        <ele>158.39999389648</ele>
        <time>2019-12-12T13:32:54Z</time>
      </trkpt>
      <trkpt lat="43.67505" lon="3.33625">
        <ele>159</ele>
        <time>2019-12-12T13:32:57Z</time>
      </trkpt>
      <trkpt lat="43.67501" lon="3.33625">
        <ele>159.39999389648</ele>
        <time>2019-12-12T13:32:59Z</time>
      </trkpt>
      <trkpt lat="43.67498" lon="3.33626">
        <ele>159.80000305176</ele>
        <time>2019-12-12T13:33:01Z</time>
      </trkpt>
      <trkpt lat="43.6749" lon="3.33628">
        <ele>160.19999694824</ele>
        <time>2019-12-12T13:33:06Z</time>
      </trkpt>
      <trkpt lat="43.67488" lon="3.33628">
        <ele>160.19999694824</ele>
        <time>2019-12-12T13:33:07Z</time>
      </trkpt>
      <trkpt lat="43.67477" lon="3.33621">
        <ele>160.19999694824</ele>
        <time>2019-12-12T13:33:11Z</time>
      </trkpt>
      <trkpt lat="43.67464" lon="3.33619">
        <ele>159.80000305176</ele>
        <time>2019-12-12T13:33:16Z</time>
      </trkpt>
      <trkpt lat="43.6745" lon="3.33621">
        <ele>159.80000305176</ele>
        <time>2019-12-12T13:33:22Z</time>
      </trkpt>
      <trkpt lat="43.67441" lon="3.33621">
        <ele>160.80000305176</ele>
        <time>2019-12-12T13:33:27Z</time>
      </trkpt>
      <trkpt lat="43.67439" lon="3.33622">
        <ele>161.19999694824</ele>
        <time>2019-12-12T13:33:28Z</time>
      </trkpt>
      <trkpt lat="43.67437" lon="3.33624">
        <ele>162</ele>
        <time>2019-12-12T13:33:30Z</time>
      </trkpt>
      <trkpt lat="43.67434" lon="3.33626">
        <ele>163</ele>
        <time>2019-12-12T13:33:32Z</time>
      </trkpt>
      <trkpt lat="43.67431" lon="3.33627">
        <ele>164.19999694824</ele>
        <time>2019-12-12T13:33:34Z</time>
      </trkpt>
      <trkpt lat="43.67428" lon="3.33627">
        <ele>165.19999694824</ele>
        <time>2019-12-12T13:33:36Z</time>
      </trkpt>
      <trkpt lat="43.67426" lon="3.33627">
        <ele>165.60000610352</ele>
        <time>2019-12-12T13:33:37Z</time>
      </trkpt>
      <trkpt lat="43.67419" lon="3.33629">
        <ele>166.80000305176</ele>
        <time>2019-12-12T13:33:41Z</time>
      </trkpt>
      <trkpt lat="43.67416" lon="3.33631">
        <ele>167.19999694824</ele>
        <time>2019-12-12T13:33:43Z</time>
      </trkpt>
      <trkpt lat="43.67412" lon="3.33633">
        <ele>167.80000305176</ele>
        <time>2019-12-12T13:33:45Z</time>
      </trkpt>
      <trkpt lat="43.67405" lon="3.33639">
        <ele>168.39999389648</ele>
        <time>2019-12-12T13:33:48Z</time>
      </trkpt>
      <trkpt lat="43.67391" lon="3.33638">
        <ele>168.60000610352</ele>
        <time>2019-12-12T13:33:52Z</time>
      </trkpt>
      <trkpt lat="43.67388" lon="3.33638">
        <ele>169.19999694824</ele>
        <time>2019-12-12T13:33:53Z</time>
      </trkpt>
      <trkpt lat="43.67382" lon="3.3364">
        <ele>169.80000305176</ele>
        <time>2019-12-12T13:33:55Z</time>
      </trkpt>
      <trkpt lat="43.67373" lon="3.33641">
        <ele>170.39999389648</ele>
        <time>2019-12-12T13:33:58Z</time>
      </trkpt>
      <trkpt lat="43.67372" lon="3.33639">
        <ele>170.80000305176</ele>
        <time>2019-12-12T13:33:59Z</time>
      </trkpt>
      <trkpt lat="43.6737" lon="3.33628">
        <ele>171.80000305176</ele>
        <time>2019-12-12T13:34:02Z</time>
      </trkpt>
      <trkpt lat="43.67367" lon="3.33618">
        <ele>172.80000305176</ele>
        <time>2019-12-12T13:34:05Z</time>
      </trkpt>
      <trkpt lat="43.67366" lon="3.33615">
        <ele>173.19999694824</ele>
        <time>2019-12-12T13:34:06Z</time>
      </trkpt>
      <trkpt lat="43.67359" lon="3.33609">
        <ele>173.60000610352</ele>
        <time>2019-12-12T13:34:09Z</time>
      </trkpt>
      <trkpt lat="43.67351" lon="3.33601">
        <ele>173.60000610352</ele>
        <time>2019-12-12T13:34:11Z</time>
      </trkpt>
      <trkpt lat="43.67348" lon="3.33596">
        <ele>173.60000610352</ele>
        <time>2019-12-12T13:34:12Z</time>
      </trkpt>
      <trkpt lat="43.67337" lon="3.33577">
        <ele>173.60000610352</ele>
        <time>2019-12-12T13:34:16Z</time>
      </trkpt>
      <trkpt lat="43.67328" lon="3.33558">
        <ele>171.39999389648</ele>
        <time>2019-12-12T13:34:20Z</time>
      </trkpt>
      <trkpt lat="43.67315" lon="3.33553">
        <ele>170.60000610352</ele>
        <time>2019-12-12T13:34:24Z</time>
      </trkpt>
      <trkpt lat="43.67306" lon="3.33544">
        <ele>170.39999389648</ele>
        <time>2019-12-12T13:34:27Z</time>
      </trkpt>
      <trkpt lat="43.67299" lon="3.33532">
        <ele>170.39999389648</ele>
        <time>2019-12-12T13:34:30Z</time>
      </trkpt>
      <trkpt lat="43.67296" lon="3.3353">
        <ele>170.39999389648</ele>
        <time>2019-12-12T13:34:31Z</time>
      </trkpt>
      <trkpt lat="43.67286" lon="3.33523">
        <ele>170.39999389648</ele>
        <time>2019-12-12T13:34:36Z</time>
      </trkpt>
      <trkpt lat="43.67274" lon="3.33515">
        <ele>170</ele>
        <time>2019-12-12T13:34:40Z</time>
      </trkpt>
      <trkpt lat="43.67265" lon="3.33502">
        <ele>169.80000305176</ele>
        <time>2019-12-12T13:34:44Z</time>
      </trkpt>
      <trkpt lat="43.67251" lon="3.33497">
        <ele>170.19999694824</ele>
        <time>2019-12-12T13:34:50Z</time>
      </trkpt>
      <trkpt lat="43.67243" lon="3.335">
        <ele>170.19999694824</ele>
        <time>2019-12-12T13:34:54Z</time>
      </trkpt>
      <trkpt lat="43.67233" lon="3.33509">
        <ele>171.39999389648</ele>
        <time>2019-12-12T13:34:59Z</time>
      </trkpt>
      <trkpt lat="43.67226" lon="3.33518">
        <ele>172.60000610352</ele>
        <time>2019-12-12T13:35:03Z</time>
      </trkpt>
      <trkpt lat="43.67224" lon="3.33518">
        <ele>173</ele>
        <time>2019-12-12T13:35:04Z</time>
      </trkpt>
      <trkpt lat="43.6722" lon="3.33514">
        <ele>174</ele>
        <time>2019-12-12T13:35:06Z</time>
      </trkpt>
      <trkpt lat="43.67216" lon="3.33511">
        <ele>174.80000305176</ele>
        <time>2019-12-12T13:35:08Z</time>
      </trkpt>
      <trkpt lat="43.67211" lon="3.33511">
        <ele>175.60000610352</ele>
        <time>2019-12-12T13:35:10Z</time>
      </trkpt>
      <trkpt lat="43.67206" lon="3.33509">
        <ele>176.39999389648</ele>
        <time>2019-12-12T13:35:12Z</time>
      </trkpt>
      <trkpt lat="43.67203" lon="3.33506">
        <ele>176.80000305176</ele>
        <time>2019-12-12T13:35:13Z</time>
      </trkpt>
      <trkpt lat="43.672" lon="3.33503">
        <ele>177</ele>
        <time>2019-12-12T13:35:14Z</time>
      </trkpt>
      <trkpt lat="43.67195" lon="3.33499">
        <ele>177.39999389648</ele>
        <time>2019-12-12T13:35:16Z</time>
      </trkpt>
      <trkpt lat="43.67183" lon="3.33488">
        <ele>177.60000610352</ele>
        <time>2019-12-12T13:35:20Z</time>
      </trkpt>
      <trkpt lat="43.67174" lon="3.33483">
        <ele>177.39999389648</ele>
        <time>2019-12-12T13:35:24Z</time>
      </trkpt>
      <trkpt lat="43.67162" lon="3.3349">
        <ele>177.39999389648</ele>
        <time>2019-12-12T13:35:29Z</time>
      </trkpt>
      <trkpt lat="43.67146" lon="3.335">
        <ele>177.39999389648</ele>
        <time>2019-12-12T13:35:35Z</time>
      </trkpt>
      <trkpt lat="43.6714" lon="3.33501">
        <ele>177.80000305176</ele>
        <time>2019-12-12T13:35:37Z</time>
      </trkpt>
      <trkpt lat="43.67133" lon="3.33502">
        <ele>178.39999389648</ele>
        <time>2019-12-12T13:35:40Z</time>
      </trkpt>
      <trkpt lat="43.67127" lon="3.33503">
        <ele>178.80000305176</ele>
        <time>2019-12-12T13:35:42Z</time>
      </trkpt>
      <trkpt lat="43.67115" lon="3.33507">
        <ele>180</ele>
        <time>2019-12-12T13:35:46Z</time>
      </trkpt>
      <trkpt lat="43.67106" lon="3.33512">
        <ele>181.19999694824</ele>
        <time>2019-12-12T13:35:50Z</time>
      </trkpt>
      <trkpt lat="43.67095" lon="3.33515">
        <ele>182.39999389648</ele>
        <time>2019-12-12T13:35:54Z</time>
      </trkpt>
      <trkpt lat="43.67093" lon="3.33515">
        <ele>182.60000610352</ele>
        <time>2019-12-12T13:35:55Z</time>
      </trkpt>
      <trkpt lat="43.67083" lon="3.33518">
        <ele>183.80000305176</ele>
        <time>2019-12-12T13:35:59Z</time>
      </trkpt>
      <trkpt lat="43.67079" lon="3.33518">
        <ele>184.19999694824</ele>
        <time>2019-12-12T13:36:01Z</time>
      </trkpt>
      <trkpt lat="43.67072" lon="3.33514">
        <ele>185</ele>
        <time>2019-12-12T13:36:04Z</time>
      </trkpt>
      <trkpt lat="43.6707" lon="3.33515">
        <ele>185.19999694824</ele>
        <time>2019-12-12T13:36:05Z</time>
      </trkpt>
      <trkpt lat="43.67065" lon="3.33517">
        <ele>185.39999389648</ele>
        <time>2019-12-12T13:36:07Z</time>
      </trkpt>
      <trkpt lat="43.67059" lon="3.33518">
        <ele>185.80000305176</ele>
        <time>2019-12-12T13:36:10Z</time>
      </trkpt>
      <trkpt lat="43.67051" lon="3.33519">
        <ele>186.39999389648</ele>
        <time>2019-12-12T13:36:14Z</time>
      </trkpt>
      <trkpt lat="43.67046" lon="3.33519">
        <ele>186.80000305176</ele>
        <time>2019-12-12T13:36:16Z</time>
      </trkpt>
      <trkpt lat="43.67041" lon="3.3352">
        <ele>187.60000610352</ele>
        <time>2019-12-12T13:36:18Z</time>
      </trkpt>
      <trkpt lat="43.67036" lon="3.33522">
        <ele>188.19999694824</ele>
        <time>2019-12-12T13:36:20Z</time>
      </trkpt>
      <trkpt lat="43.67031" lon="3.33527">
        <ele>188.80000305176</ele>
        <time>2019-12-12T13:36:23Z</time>
      </trkpt>
      <trkpt lat="43.67023" lon="3.33529">
        <ele>190</ele>
        <time>2019-12-12T13:36:27Z</time>
      </trkpt>
      <trkpt lat="43.6702" lon="3.33533">
        <ele>191.19999694824</ele>
        <time>2019-12-12T13:36:29Z</time>
      </trkpt>
      <trkpt lat="43.67018" lon="3.33539">
        <ele>192.19999694824</ele>
        <time>2019-12-12T13:36:32Z</time>
      </trkpt>
      <trkpt lat="43.67018" lon="3.3354">
        <ele>192.39999389648</ele>
        <time>2019-12-12T13:36:33Z</time>
      </trkpt>
      <trkpt lat="43.67017" lon="3.33542">
        <ele>193.19999694824</ele>
        <time>2019-12-12T13:36:36Z</time>
      </trkpt>
      <trkpt lat="43.67016" lon="3.33543">
        <ele>193.60000610352</ele>
        <time>2019-12-12T13:36:38Z</time>
      </trkpt>
      <trkpt lat="43.67016" lon="3.33543">
        <ele>193.60000610352</ele>
        <time>2019-12-12T13:36:39Z</time>
      </trkpt>
      <trkpt lat="43.67015" lon="3.33545">
        <ele>195.19999694824</ele>
        <time>2019-12-12T13:36:43Z</time>
      </trkpt>
      <trkpt lat="43.67015" lon="3.33553">
        <ele>195.60000610352</ele>
        <time>2019-12-12T13:36:46Z</time>
      </trkpt>
      <trkpt lat="43.67014" lon="3.33561">
        <ele>196</ele>
        <time>2019-12-12T13:36:49Z</time>
      </trkpt>
      <trkpt lat="43.6701" lon="3.33563">
        <ele>196</ele>
        <time>2019-12-12T13:36:51Z</time>
      </trkpt>
      <trkpt lat="43.67006" lon="3.33563">
        <ele>196.39999389648</ele>
        <time>2019-12-12T13:36:52Z</time>
      </trkpt>
      <trkpt lat="43.66996" lon="3.33559">
        <ele>197.19999694824</ele>
        <time>2019-12-12T13:36:56Z</time>
      </trkpt>
      <trkpt lat="43.66994" lon="3.33558">
        <ele>197.80000305176</ele>
        <time>2019-12-12T13:36:57Z</time>
      </trkpt>
      <trkpt lat="43.66985" lon="3.33555">
        <ele>199</ele>
        <time>2019-12-12T13:37:00Z</time>
      </trkpt>
      <trkpt lat="43.66981" lon="3.33555">
        <ele>199.19999694824</ele>
        <time>2019-12-12T13:37:01Z</time>
      </trkpt>
      <trkpt lat="43.66965" lon="3.33553">
        <ele>199.60000610352</ele>
        <time>2019-12-12T13:37:06Z</time>
      </trkpt>
      <trkpt lat="43.66953" lon="3.33553">
        <ele>200</ele>
        <time>2019-12-12T13:37:11Z</time>
      </trkpt>
      <trkpt lat="43.66951" lon="3.33552">
        <ele>200</ele>
        <time>2019-12-12T13:37:12Z</time>
      </trkpt>
      <trkpt lat="43.66937" lon="3.3355">
        <ele>201.39999389648</ele>
        <time>2019-12-12T13:37:17Z</time>
      </trkpt>
      <trkpt lat="43.66931" lon="3.3355">
        <ele>201.60000610352</ele>
        <time>2019-12-12T13:37:19Z</time>
      </trkpt>
      <trkpt lat="43.66908" lon="3.33549">
        <ele>201.80000305176</ele>
        <time>2019-12-12T13:37:27Z</time>
      </trkpt>
      <trkpt lat="43.66888" lon="3.33553">
        <ele>201.80000305176</ele>
        <time>2019-12-12T13:37:33Z</time>
      </trkpt>
      <trkpt lat="43.66873" lon="3.33557">
        <ele>201.80000305176</ele>
        <time>2019-12-12T13:37:37Z</time>
      </trkpt>
      <trkpt lat="43.66864" lon="3.33558">
        <ele>201.80000305176</ele>
        <time>2019-12-12T13:37:39Z</time>
      </trkpt>
      <trkpt lat="43.6684" lon="3.33559">
        <ele>202.19999694824</ele>
        <time>2019-12-12T13:37:45Z</time>
      </trkpt>
      <trkpt lat="43.66826" lon="3.33559">
        <ele>202.39999389648</ele>
        <time>2019-12-12T13:37:51Z</time>
      </trkpt>
      <trkpt lat="43.66822" lon="3.33558">
        <ele>202.80000305176</ele>
        <time>2019-12-12T13:37:53Z</time>
      </trkpt>
      <trkpt lat="43.66818" lon="3.33557">
        <ele>202.80000305176</ele>
        <time>2019-12-12T13:37:55Z</time>
      </trkpt>
      <trkpt lat="43.66815" lon="3.33557">
        <ele>202.80000305176</ele>
        <time>2019-12-12T13:37:56Z</time>
      </trkpt>
      <trkpt lat="43.6681" lon="3.33558">
        <ele>203</ele>
        <time>2019-12-12T13:37:57Z</time>
      </trkpt>
      <trkpt lat="43.668" lon="3.33562">
        <ele>203</ele>
        <time>2019-12-12T13:37:59Z</time>
      </trkpt>
      <trkpt lat="43.66787" lon="3.33561">
        <ele>202.80000305176</ele>
        <time>2019-12-12T13:38:03Z</time>
      </trkpt>
      <trkpt lat="43.66785" lon="3.33559">
        <ele>202.60000610352</ele>
        <time>2019-12-12T13:38:04Z</time>
      </trkpt>
      <trkpt lat="43.66784" lon="3.33555">
        <ele>200.80000305176</ele>
        <time>2019-12-12T13:38:06Z</time>
      </trkpt>
      <trkpt lat="43.66784" lon="3.33554">
        <ele>200</ele>
        <time>2019-12-12T13:38:07Z</time>
      </trkpt>
      <trkpt lat="43.66783" lon="3.33552">
        <ele>199.60000610352</ele>
        <time>2019-12-12T13:38:08Z</time>
      </trkpt>
      <trkpt lat="43.66781" lon="3.33548">
        <ele>199</ele>
        <time>2019-12-12T13:38:10Z</time>
      </trkpt>
      <trkpt lat="43.66779" lon="3.33549">
        <ele>199</ele>
        <time>2019-12-12T13:38:12Z</time>
      </trkpt>
      <trkpt lat="43.66777" lon="3.3355">
        <ele>198.80000305176</ele>
        <time>2019-12-12T13:38:14Z</time>
      </trkpt>
      <trkpt lat="43.66776" lon="3.33551">
        <ele>198.80000305176</ele>
        <time>2019-12-12T13:38:15Z</time>
      </trkpt>
      <trkpt lat="43.66775" lon="3.33553">
        <ele>199</ele>
        <time>2019-12-12T13:38:18Z</time>
      </trkpt>
      <trkpt lat="43.66775" lon="3.33554">
        <ele>199</ele>
        <time>2019-12-12T13:38:19Z</time>
      </trkpt>
      <trkpt lat="43.66776" lon="3.33556">
        <ele>199.39999389648</ele>
        <time>2019-12-12T13:40:00Z</time>
      </trkpt>
      <trkpt lat="43.66777" lon="3.33558">
        <ele>199.39999389648</ele>
        <time>2019-12-12T13:40:03Z</time>
      </trkpt>
      <trkpt lat="43.66778" lon="3.3356">
        <ele>199.19999694824</ele>
        <time>2019-12-12T13:40:07Z</time>
      </trkpt>
      <trkpt lat="43.66776" lon="3.33557">
        <ele>200</ele>
        <time>2019-12-12T13:41:43Z</time>
      </trkpt>
      <trkpt lat="43.66774" lon="3.33555">
        <ele>200</ele>
        <time>2019-12-12T13:41:44Z</time>
      </trkpt>
      <trkpt lat="43.66769" lon="3.33553">
        <ele>200</ele>
        <time>2019-12-12T13:41:46Z</time>
      </trkpt>
      <trkpt lat="43.66765" lon="3.33554">
        <ele>200</ele>
        <time>2019-12-12T13:41:47Z</time>
      </trkpt>
      <trkpt lat="43.66741" lon="3.33566">
        <ele>199.80000305176</ele>
        <time>2019-12-12T13:41:52Z</time>
      </trkpt>
      <trkpt lat="43.66704" lon="3.33574">
        <ele>199.19999694824</ele>
        <time>2019-12-12T13:41:58Z</time>
      </trkpt>
      <trkpt lat="43.66697" lon="3.33575">
        <ele>199.19999694824</ele>
        <time>2019-12-12T13:41:59Z</time>
      </trkpt>
      <trkpt lat="43.66664" lon="3.33572">
        <ele>198</ele>
        <time>2019-12-12T13:42:04Z</time>
      </trkpt>
      <trkpt lat="43.66656" lon="3.3357">
        <ele>197.80000305176</ele>
        <time>2019-12-12T13:42:05Z</time>
      </trkpt>
      <trkpt lat="43.66628" lon="3.33557">
        <ele>196.80000305176</ele>
        <time>2019-12-12T13:42:09Z</time>
      </trkpt>
      <trkpt lat="43.66614" lon="3.33549">
        <ele>196.60000610352</ele>
        <time>2019-12-12T13:42:11Z</time>
      </trkpt>
      <trkpt lat="43.6658" lon="3.33526">
        <ele>195.80000305176</ele>
        <time>2019-12-12T13:42:16Z</time>
      </trkpt>
      <trkpt lat="43.66552" lon="3.33511">
        <ele>195</ele>
        <time>2019-12-12T13:42:20Z</time>
      </trkpt>
      <trkpt lat="43.66545" lon="3.33509">
        <ele>195</ele>
        <time>2019-12-12T13:42:21Z</time>
      </trkpt>
      <trkpt lat="43.66537" lon="3.33508">
        <ele>194.80000305176</ele>
        <time>2019-12-12T13:42:22Z</time>
      </trkpt>
      <trkpt lat="43.66522" lon="3.3351">
        <ele>194</ele>
        <time>2019-12-12T13:42:24Z</time>
      </trkpt>
      <trkpt lat="43.66507" lon="3.33514">
        <ele>193.80000305176</ele>
        <time>2019-12-12T13:42:26Z</time>
      </trkpt>
      <trkpt lat="43.66492" lon="3.33518">
        <ele>193.60000610352</ele>
        <time>2019-12-12T13:42:28Z</time>
      </trkpt>
      <trkpt lat="43.66469" lon="3.33526">
        <ele>193.39999389648</ele>
        <time>2019-12-12T13:42:31Z</time>
      </trkpt>
      <trkpt lat="43.66422" lon="3.33533">
        <ele>192.80000305176</ele>
        <time>2019-12-12T13:42:37Z</time>
      </trkpt>
      <trkpt lat="43.66414" lon="3.33534">
        <ele>192.60000610352</ele>
        <time>2019-12-12T13:42:38Z</time>
      </trkpt>
      <trkpt lat="43.66368" lon="3.33535">
        <ele>191.60000610352</ele>
        <time>2019-12-12T13:42:44Z</time>
      </trkpt>
      <trkpt lat="43.66347" lon="3.33536">
        <ele>191.39999389648</ele>
        <time>2019-12-12T13:42:47Z</time>
      </trkpt>
      <trkpt lat="43.6629" lon="3.33539">
        <ele>190.80000305176</ele>
        <time>2019-12-12T13:42:55Z</time>
      </trkpt>
      <trkpt lat="43.66276" lon="3.33538">
        <ele>190.60000610352</ele>
        <time>2019-12-12T13:42:57Z</time>
      </trkpt>
      <trkpt lat="43.6623" lon="3.3353">
        <ele>190.39999389648</ele>
        <time>2019-12-12T13:43:04Z</time>
      </trkpt>
      <trkpt lat="43.66186" lon="3.33509">
        <ele>190</ele>
        <time>2019-12-12T13:43:12Z</time>
      </trkpt>
      <trkpt lat="43.66148" lon="3.33487">
        <ele>189.80000305176</ele>
        <time>2019-12-12T13:43:19Z</time>
      </trkpt>
      <trkpt lat="43.66116" lon="3.33469">
        <ele>189.60000610352</ele>
        <time>2019-12-12T13:43:25Z</time>
      </trkpt>
      <trkpt lat="43.66095" lon="3.33458">
        <ele>189.60000610352</ele>
        <time>2019-12-12T13:43:29Z</time>
      </trkpt>
      <trkpt lat="43.66067" lon="3.33443">
        <ele>189.39999389648</ele>
        <time>2019-12-12T13:43:35Z</time>
      </trkpt>
      <trkpt lat="43.66026" lon="3.3342">
        <ele>189.19999694824</ele>
        <time>2019-12-12T13:43:44Z</time>
      </trkpt>
      <trkpt lat="43.65988" lon="3.33401">
        <ele>188.80000305176</ele>
        <time>2019-12-12T13:43:51Z</time>
      </trkpt>
      <trkpt lat="43.65982" lon="3.33398">
        <ele>188.80000305176</ele>
        <time>2019-12-12T13:43:52Z</time>
      </trkpt>
      <trkpt lat="43.65935" lon="3.3337">
        <ele>187.80000305176</ele>
        <time>2019-12-12T13:44:00Z</time>
      </trkpt>
      <trkpt lat="43.65929" lon="3.33367">
        <ele>187.39999389648</ele>
        <time>2019-12-12T13:44:01Z</time>
      </trkpt>
      <trkpt lat="43.65884" lon="3.33342">
        <ele>186.60000610352</ele>
        <time>2019-12-12T13:44:09Z</time>
      </trkpt>
      <trkpt lat="43.6584" lon="3.33318">
        <ele>186.39999389648</ele>
        <time>2019-12-12T13:44:18Z</time>
      </trkpt>
      <trkpt lat="43.6583" lon="3.33312">
        <ele>186.39999389648</ele>
        <time>2019-12-12T13:44:20Z</time>
      </trkpt>
      <trkpt lat="43.65795" lon="3.33288">
        <ele>185.60000610352</ele>
        <time>2019-12-12T13:44:27Z</time>
      </trkpt>
      <trkpt lat="43.65776" lon="3.33268">
        <ele>185.19999694824</ele>
        <time>2019-12-12T13:44:31Z</time>
      </trkpt>
      <trkpt lat="43.65763" lon="3.33251">
        <ele>184.60000610352</ele>
        <time>2019-12-12T13:44:34Z</time>
      </trkpt>
      <trkpt lat="43.65746" lon="3.33227">
        <ele>184.19999694824</ele>
        <time>2019-12-12T13:44:38Z</time>
      </trkpt>
      <trkpt lat="43.65724" lon="3.332">
        <ele>183.60000610352</ele>
        <time>2019-12-12T13:44:43Z</time>
      </trkpt>
      <trkpt lat="43.65698" lon="3.33175">
        <ele>183</ele>
        <time>2019-12-12T13:44:48Z</time>
      </trkpt>
      <trkpt lat="43.65676" lon="3.33155">
        <ele>182.60000610352</ele>
        <time>2019-12-12T13:44:52Z</time>
      </trkpt>
      <trkpt lat="43.65654" lon="3.33136">
        <ele>181.80000305176</ele>
        <time>2019-12-12T13:44:56Z</time>
      </trkpt>
      <trkpt lat="43.6562" lon="3.33103">
        <ele>181.19999694824</ele>
        <time>2019-12-12T13:45:02Z</time>
      </trkpt>
      <trkpt lat="43.65603" lon="3.33083">
        <ele>181</ele>
        <time>2019-12-12T13:45:05Z</time>
      </trkpt>
      <trkpt lat="43.65579" lon="3.33046">
        <ele>180.19999694824</ele>
        <time>2019-12-12T13:45:10Z</time>
      </trkpt>
      <trkpt lat="43.6557" lon="3.3303">
        <ele>179.80000305176</ele>
        <time>2019-12-12T13:45:12Z</time>
      </trkpt>
      <trkpt lat="43.65547" lon="3.3298">
        <ele>179.19999694824</ele>
        <time>2019-12-12T13:45:18Z</time>
      </trkpt>
      <trkpt lat="43.65537" lon="3.32956">
        <ele>178.80000305176</ele>
        <time>2019-12-12T13:45:21Z</time>
      </trkpt>
      <trkpt lat="43.65521" lon="3.32917">
        <ele>178.39999389648</ele>
        <time>2019-12-12T13:45:26Z</time>
      </trkpt>
      <trkpt lat="43.65495" lon="3.32852">
        <ele>177.80000305176</ele>
        <time>2019-12-12T13:45:34Z</time>
      </trkpt>
      <trkpt lat="43.65492" lon="3.32843">
        <ele>177.60000610352</ele>
        <time>2019-12-12T13:45:35Z</time>
      </trkpt>
      <trkpt lat="43.65482" lon="3.32789">
        <ele>176.80000305176</ele>
        <time>2019-12-12T13:45:41Z</time>
      </trkpt>
      <trkpt lat="43.65481" lon="3.3278">
        <ele>176.80000305176</ele>
        <time>2019-12-12T13:45:42Z</time>
      </trkpt>
      <trkpt lat="43.65481" lon="3.32739">
        <ele>176.19999694824</ele>
        <time>2019-12-12T13:45:47Z</time>
      </trkpt>
      <trkpt lat="43.65482" lon="3.32715">
        <ele>175.60000610352</ele>
        <time>2019-12-12T13:45:50Z</time>
      </trkpt>
      <trkpt lat="43.65486" lon="3.32648">
        <ele>175</ele>
        <time>2019-12-12T13:45:58Z</time>
      </trkpt>
      <trkpt lat="43.65488" lon="3.32604">
        <ele>174.60000610352</ele>
        <time>2019-12-12T13:46:03Z</time>
      </trkpt>
      <trkpt lat="43.65488" lon="3.32572">
        <ele>174.19999694824</ele>
        <time>2019-12-12T13:46:07Z</time>
      </trkpt>
      <trkpt lat="43.65486" lon="3.32493">
        <ele>174</ele>
        <time>2019-12-12T13:46:17Z</time>
      </trkpt>
      <trkpt lat="43.65486" lon="3.32485">
        <ele>174</ele>
        <time>2019-12-12T13:46:18Z</time>
      </trkpt>
      <trkpt lat="43.65484" lon="3.32425">
        <ele>174.19999694824</ele>
        <time>2019-12-12T13:46:26Z</time>
      </trkpt>
      <trkpt lat="43.65479" lon="3.32357">
        <ele>174.19999694824</ele>
        <time>2019-12-12T13:46:36Z</time>
      </trkpt>
      <trkpt lat="43.65478" lon="3.32345">
        <ele>174.19999694824</ele>
        <time>2019-12-12T13:46:39Z</time>
      </trkpt>
      <trkpt lat="43.65471" lon="3.32346">
        <ele>174.19999694824</ele>
        <time>2019-12-12T13:46:43Z</time>
      </trkpt>
      <trkpt lat="43.65464" lon="3.32357">
        <ele>174.19999694824</ele>
        <time>2019-12-12T13:46:47Z</time>
      </trkpt>
      <trkpt lat="43.6546" lon="3.32362">
        <ele>174</ele>
        <time>2019-12-12T13:46:49Z</time>
      </trkpt>
      <trkpt lat="43.65449" lon="3.32369">
        <ele>174</ele>
        <time>2019-12-12T13:46:52Z</time>
      </trkpt>
      <trkpt lat="43.65445" lon="3.32371">
        <ele>173.80000305176</ele>
        <time>2019-12-12T13:46:53Z</time>
      </trkpt>
      <trkpt lat="43.65441" lon="3.32373">
        <ele>173.80000305176</ele>
        <time>2019-12-12T13:46:54Z</time>
      </trkpt>
      <trkpt lat="43.65436" lon="3.32375">
        <ele>173.80000305176</ele>
        <time>2019-12-12T13:46:55Z</time>
      </trkpt>
      <trkpt lat="43.65426" lon="3.32389">
        <ele>173.19999694824</ele>
        <time>2019-12-12T13:46:58Z</time>
      </trkpt>
      <trkpt lat="43.65422" lon="3.32394">
        <ele>172.80000305176</ele>
        <time>2019-12-12T13:46:59Z</time>
      </trkpt>
      <trkpt lat="43.65415" lon="3.32405">
        <ele>171.60000610352</ele>
        <time>2019-12-12T13:47:01Z</time>
      </trkpt>
      <trkpt lat="43.65406" lon="3.32415">
        <ele>170.39999389648</ele>
        <time>2019-12-12T13:47:03Z</time>
      </trkpt>
      <trkpt lat="43.65402" lon="3.3242">
        <ele>169.80000305176</ele>
        <time>2019-12-12T13:47:04Z</time>
      </trkpt>
      <trkpt lat="43.65397" lon="3.32425">
        <ele>169.39999389648</ele>
        <time>2019-12-12T13:47:05Z</time>
      </trkpt>
      <trkpt lat="43.6539" lon="3.32433">
        <ele>168.19999694824</ele>
        <time>2019-12-12T13:47:07Z</time>
      </trkpt>
      <trkpt lat="43.65383" lon="3.32441">
        <ele>167.60000610352</ele>
        <time>2019-12-12T13:47:09Z</time>
      </trkpt>
      <trkpt lat="43.65372" lon="3.32451">
        <ele>167</ele>
        <time>2019-12-12T13:47:12Z</time>
      </trkpt>
      <trkpt lat="43.65363" lon="3.32452">
        <ele>167</ele>
        <time>2019-12-12T13:47:14Z</time>
      </trkpt>
      <trkpt lat="43.65351" lon="3.32439">
        <ele>166.39999389648</ele>
        <time>2019-12-12T13:47:17Z</time>
      </trkpt>
      <trkpt lat="43.65346" lon="3.32435">
        <ele>166.19999694824</ele>
        <time>2019-12-12T13:47:18Z</time>
      </trkpt>
      <trkpt lat="43.65342" lon="3.32432">
        <ele>166</ele>
        <time>2019-12-12T13:47:19Z</time>
      </trkpt>
      <trkpt lat="43.65335" lon="3.3243">
        <ele>165.60000610352</ele>
        <time>2019-12-12T13:47:21Z</time>
      </trkpt>
      <trkpt lat="43.65331" lon="3.32435">
        <ele>164.80000305176</ele>
        <time>2019-12-12T13:47:23Z</time>
      </trkpt>
      <trkpt lat="43.6533" lon="3.32439">
        <ele>164.19999694824</ele>
        <time>2019-12-12T13:47:24Z</time>
      </trkpt>
      <trkpt lat="43.65329" lon="3.3245">
        <ele>162.80000305176</ele>
        <time>2019-12-12T13:47:26Z</time>
      </trkpt>
      <trkpt lat="43.65327" lon="3.32466">
        <ele>161.80000305176</ele>
        <time>2019-12-12T13:47:29Z</time>
      </trkpt>
      <trkpt lat="43.65326" lon="3.3247">
        <ele>161.60000610352</ele>
        <time>2019-12-12T13:47:30Z</time>
      </trkpt>
      <trkpt lat="43.65318" lon="3.325">
        <ele>161.39999389648</ele>
        <time>2019-12-12T13:47:38Z</time>
      </trkpt>
      <trkpt lat="43.65315" lon="3.32508">
        <ele>161.39999389648</ele>
        <time>2019-12-12T13:47:43Z</time>
      </trkpt>
      <trkpt lat="43.65315" lon="3.32511">
        <ele>161.80000305176</ele>
        <time>2019-12-12T13:48:05Z</time>
      </trkpt>
      <trkpt lat="43.65308" lon="3.32518">
        <ele>161.80000305176</ele>
        <time>2019-12-12T13:48:08Z</time>
      </trkpt>
      <trkpt lat="43.65304" lon="3.3252">
        <ele>161.80000305176</ele>
        <time>2019-12-12T13:48:09Z</time>
      </trkpt>
      <trkpt lat="43.65291" lon="3.32527">
        <ele>161.80000305176</ele>
        <time>2019-12-12T13:48:12Z</time>
      </trkpt>
      <trkpt lat="43.65282" lon="3.32528">
        <ele>161.60000610352</ele>
        <time>2019-12-12T13:48:14Z</time>
      </trkpt>
      <trkpt lat="43.65274" lon="3.32527">
        <ele>161.39999389648</ele>
        <time>2019-12-12T13:48:16Z</time>
      </trkpt>
      <trkpt lat="43.65271" lon="3.32527">
        <ele>160.80000305176</ele>
        <time>2019-12-12T13:48:17Z</time>
      </trkpt>
      <trkpt lat="43.65264" lon="3.32527">
        <ele>159.60000610352</ele>
        <time>2019-12-12T13:48:19Z</time>
      </trkpt>
      <trkpt lat="43.65247" lon="3.3253">
        <ele>158.60000610352</ele>
        <time>2019-12-12T13:48:25Z</time>
      </trkpt>
      <trkpt lat="43.65245" lon="3.3253">
        <ele>158.39999389648</ele>
        <time>2019-12-12T13:48:26Z</time>
      </trkpt>
      <trkpt lat="43.65233" lon="3.32526">
        <ele>158</ele>
        <time>2019-12-12T13:48:31Z</time>
      </trkpt>
      <trkpt lat="43.65223" lon="3.32525">
        <ele>157.80000305176</ele>
        <time>2019-12-12T13:48:35Z</time>
      </trkpt>
      <trkpt lat="43.6521" lon="3.32515">
        <ele>157.39999389648</ele>
        <time>2019-12-12T13:48:41Z</time>
      </trkpt>
      <trkpt lat="43.652" lon="3.32502">
        <ele>157.39999389648</ele>
        <time>2019-12-12T13:48:47Z</time>
      </trkpt>
      <trkpt lat="43.65195" lon="3.32494">
        <ele>157.39999389648</ele>
        <time>2019-12-12T13:48:53Z</time>
      </trkpt>
      <trkpt lat="43.65194" lon="3.32489">
        <ele>157.80000305176</ele>
        <time>2019-12-12T13:48:58Z</time>
      </trkpt>
      <trkpt lat="43.65194" lon="3.32488">
        <ele>157.80000305176</ele>
        <time>2019-12-12T13:48:59Z</time>
      </trkpt>
      <trkpt lat="43.65199" lon="3.32483">
        <ele>158</ele>
        <time>2019-12-12T13:49:05Z</time>
      </trkpt>
      <trkpt lat="43.65197" lon="3.32482">
        <ele>158</ele>
        <time>2019-12-12T13:49:08Z</time>
      </trkpt>
      <trkpt lat="43.65196" lon="3.32484">
        <ele>158</ele>
        <time>2019-12-12T13:49:09Z</time>
      </trkpt>
      <trkpt lat="43.65195" lon="3.3249">
        <ele>158</ele>
        <time>2019-12-12T13:49:16Z</time>
      </trkpt>
      <trkpt lat="43.6519" lon="3.32491">
        <ele>158</ele>
        <time>2019-12-12T13:49:23Z</time>
      </trkpt>
      <trkpt lat="43.65191" lon="3.3249">
        <ele>158</ele>
        <time>2019-12-12T13:49:56Z</time>
      </trkpt>
      <trkpt lat="43.65192" lon="3.32489">
        <ele>158</ele>
        <time>2019-12-12T13:49:57Z</time>
      </trkpt>
      <trkpt lat="43.65193" lon="3.32487">
        <ele>158</ele>
        <time>2019-12-12T13:50:00Z</time>
      </trkpt>
      <trkpt lat="43.65194" lon="3.32486">
        <ele>158</ele>
        <time>2019-12-12T13:50:02Z</time>
      </trkpt>
      <trkpt lat="43.65194" lon="3.32485">
        <ele>158.19999694824</ele>
        <time>2019-12-12T13:50:04Z</time>
      </trkpt>
      <trkpt lat="43.65195" lon="3.32482">
        <ele>158.39999389648</ele>
        <time>2019-12-12T13:50:06Z</time>
      </trkpt>
      <trkpt lat="43.65197" lon="3.32478">
        <ele>158.39999389648</ele>
        <time>2019-12-12T13:50:08Z</time>
      </trkpt>
      <trkpt lat="43.65197" lon="3.32468">
        <ele>158.39999389648</ele>
        <time>2019-12-12T13:50:11Z</time>
      </trkpt>
      <trkpt lat="43.65198" lon="3.32448">
        <ele>158.39999389648</ele>
        <time>2019-12-12T13:50:17Z</time>
      </trkpt>
      <trkpt lat="43.65194" lon="3.32425">
        <ele>158.39999389648</ele>
        <time>2019-12-12T13:50:24Z</time>
      </trkpt>
      <trkpt lat="43.65194" lon="3.32422">
        <ele>158.39999389648</ele>
        <time>2019-12-12T13:50:25Z</time>
      </trkpt>
      <trkpt lat="43.65196" lon="3.32412">
        <ele>158.60000610352</ele>
        <time>2019-12-12T13:50:29Z</time>
      </trkpt>
      <trkpt lat="43.65197" lon="3.324">
        <ele>158.80000305176</ele>
        <time>2019-12-12T13:50:35Z</time>
      </trkpt>
      <trkpt lat="43.65197" lon="3.32399">
        <ele>158.80000305176</ele>
        <time>2019-12-12T13:50:37Z</time>
      </trkpt>
      <trkpt lat="43.65198" lon="3.32396">
        <ele>159.19999694824</ele>
        <time>2019-12-12T13:50:43Z</time>
      </trkpt>
      <trkpt lat="43.65198" lon="3.32394">
        <ele>159.19999694824</ele>
        <time>2019-12-12T13:50:44Z</time>
      </trkpt>
      <trkpt lat="43.65199" lon="3.32389">
        <ele>159.19999694824</ele>
        <time>2019-12-12T13:50:47Z</time>
      </trkpt>
      <trkpt lat="43.65198" lon="3.32387">
        <ele>159.19999694824</ele>
        <time>2019-12-12T13:50:49Z</time>
      </trkpt>
      <trkpt lat="43.65195" lon="3.32374">
        <ele>159.19999694824</ele>
        <time>2019-12-12T13:51:00Z</time>
      </trkpt>
      <trkpt lat="43.65197" lon="3.32365">
        <ele>159.60000610352</ele>
        <time>2019-12-12T13:51:07Z</time>
      </trkpt>
      <trkpt lat="43.65197" lon="3.32364">
        <ele>159.60000610352</ele>
        <time>2019-12-12T13:51:08Z</time>
      </trkpt>
      <trkpt lat="43.65198" lon="3.32354">
        <ele>159.60000610352</ele>
        <time>2019-12-12T13:51:15Z</time>
      </trkpt>
      <trkpt lat="43.65199" lon="3.32349">
        <ele>159.60000610352</ele>
        <time>2019-12-12T13:51:20Z</time>
      </trkpt>
      <trkpt lat="43.65198" lon="3.32342">
        <ele>159.60000610352</ele>
        <time>2019-12-12T13:51:28Z</time>
      </trkpt>
      <trkpt lat="43.65197" lon="3.32339">
        <ele>159.39999389648</ele>
        <time>2019-12-12T13:51:31Z</time>
      </trkpt>
      <trkpt lat="43.65193" lon="3.3234">
        <ele>159.39999389648</ele>
        <time>2019-12-12T13:51:38Z</time>
      </trkpt>
      <trkpt lat="43.65191" lon="3.32338">
        <ele>159.80000305176</ele>
        <time>2019-12-12T13:51:42Z</time>
      </trkpt>
      <trkpt lat="43.6519" lon="3.32338">
        <ele>160.19999694824</ele>
        <time>2019-12-12T13:51:44Z</time>
      </trkpt>
      <trkpt lat="43.6519" lon="3.32338">
        <ele>160.39999389648</ele>
        <time>2019-12-12T13:51:45Z</time>
      </trkpt>
      <trkpt lat="43.65189" lon="3.32343">
        <ele>161.39999389648</ele>
        <time>2019-12-12T13:52:00Z</time>
      </trkpt>
      <trkpt lat="43.65187" lon="3.32349">
        <ele>161.39999389648</ele>
        <time>2019-12-12T13:52:03Z</time>
      </trkpt>
      <trkpt lat="43.65182" lon="3.3237">
        <ele>161.39999389648</ele>
        <time>2019-12-12T13:52:09Z</time>
      </trkpt>
      <trkpt lat="43.65176" lon="3.32397">
        <ele>160.80000305176</ele>
        <time>2019-12-12T13:52:16Z</time>
      </trkpt>
      <trkpt lat="43.6517" lon="3.32417">
        <ele>160.80000305176</ele>
        <time>2019-12-12T13:52:22Z</time>
      </trkpt>
      <trkpt lat="43.65157" lon="3.32429">
        <ele>160.80000305176</ele>
        <time>2019-12-12T13:52:28Z</time>
      </trkpt>
      <trkpt lat="43.65132" lon="3.32442">
        <ele>160.60000610352</ele>
        <time>2019-12-12T13:52:35Z</time>
      </trkpt>
      <trkpt lat="43.65126" lon="3.32447">
        <ele>160.39999389648</ele>
        <time>2019-12-12T13:52:37Z</time>
      </trkpt>
      <trkpt lat="43.65112" lon="3.32465">
        <ele>160.39999389648</ele>
        <time>2019-12-12T13:52:43Z</time>
      </trkpt>
      <trkpt lat="43.65104" lon="3.32492">
        <ele>161</ele>
        <time>2019-12-12T13:52:50Z</time>
      </trkpt>
      <trkpt lat="43.65094" lon="3.32521">
        <ele>161.19999694824</ele>
        <time>2019-12-12T13:52:57Z</time>
      </trkpt>
      <trkpt lat="43.65087" lon="3.32529">
        <ele>161.39999389648</ele>
        <time>2019-12-12T13:53:00Z</time>
      </trkpt>
      <trkpt lat="43.65081" lon="3.32532">
        <ele>161.80000305176</ele>
        <time>2019-12-12T13:53:02Z</time>
      </trkpt>
      <trkpt lat="43.6506" lon="3.32535">
        <ele>162.39999389648</ele>
        <time>2019-12-12T13:53:09Z</time>
      </trkpt>
      <trkpt lat="43.65049" lon="3.32533">
        <ele>162.39999389648</ele>
        <time>2019-12-12T13:53:12Z</time>
      </trkpt>
      <trkpt lat="43.65038" lon="3.32528">
        <ele>162.60000610352</ele>
        <time>2019-12-12T13:53:15Z</time>
      </trkpt>
      <trkpt lat="43.65012" lon="3.32513">
        <ele>162.60000610352</ele>
        <time>2019-12-12T13:53:22Z</time>
      </trkpt>
      <trkpt lat="43.6498" lon="3.32492">
        <ele>162.39999389648</ele>
        <time>2019-12-12T13:53:29Z</time>
      </trkpt>
      <trkpt lat="43.64975" lon="3.32489">
        <ele>162.39999389648</ele>
        <time>2019-12-12T13:53:30Z</time>
      </trkpt>
      <trkpt lat="43.64967" lon="3.32485">
        <ele>162.39999389648</ele>
        <time>2019-12-12T13:53:32Z</time>
      </trkpt>
      <trkpt lat="43.64953" lon="3.32481">
        <ele>162</ele>
        <time>2019-12-12T13:53:35Z</time>
      </trkpt>
      <trkpt lat="43.64931" lon="3.32474">
        <ele>161.60000610352</ele>
        <time>2019-12-12T13:53:40Z</time>
      </trkpt>
      <trkpt lat="43.64918" lon="3.32467">
        <ele>161.60000610352</ele>
        <time>2019-12-12T13:53:43Z</time>
      </trkpt>
      <trkpt lat="43.64907" lon="3.3246">
        <ele>161.60000610352</ele>
        <time>2019-12-12T13:53:46Z</time>
      </trkpt>
      <trkpt lat="43.64892" lon="3.32447">
        <ele>161.80000305176</ele>
        <time>2019-12-12T13:53:50Z</time>
      </trkpt>
      <trkpt lat="43.64847" lon="3.32412">
        <ele>162.19999694824</ele>
        <time>2019-12-12T13:54:02Z</time>
      </trkpt>
      <trkpt lat="43.64812" lon="3.3239">
        <ele>162.80000305176</ele>
        <time>2019-12-12T13:54:11Z</time>
      </trkpt>
      <trkpt lat="43.64808" lon="3.32387">
        <ele>163</ele>
        <time>2019-12-12T13:54:12Z</time>
      </trkpt>
      <trkpt lat="43.64788" lon="3.32385">
        <ele>163</ele>
        <time>2019-12-12T13:54:16Z</time>
      </trkpt>
      <trkpt lat="43.64772" lon="3.32396">
        <ele>163</ele>
        <time>2019-12-12T13:54:20Z</time>
      </trkpt>
      <trkpt lat="43.64759" lon="3.32424">
        <ele>162.39999389648</ele>
        <time>2019-12-12T13:54:25Z</time>
      </trkpt>
      <trkpt lat="43.64758" lon="3.3243">
        <ele>162.19999694824</ele>
        <time>2019-12-12T13:54:26Z</time>
      </trkpt>
      <trkpt lat="43.64743" lon="3.32467">
        <ele>162</ele>
        <time>2019-12-12T13:54:32Z</time>
      </trkpt>
      <trkpt lat="43.6474" lon="3.32473">
        <ele>161.80000305176</ele>
        <time>2019-12-12T13:54:33Z</time>
      </trkpt>
      <trkpt lat="43.64736" lon="3.32477">
        <ele>161.80000305176</ele>
        <time>2019-12-12T13:54:34Z</time>
      </trkpt>
      <trkpt lat="43.64728" lon="3.32485">
        <ele>161.19999694824</ele>
        <time>2019-12-12T13:54:36Z</time>
      </trkpt>
      <trkpt lat="43.6471" lon="3.32494">
        <ele>160.80000305176</ele>
        <time>2019-12-12T13:54:40Z</time>
      </trkpt>
      <trkpt lat="43.64705" lon="3.32495">
        <ele>160.80000305176</ele>
        <time>2019-12-12T13:54:41Z</time>
      </trkpt>
      <trkpt lat="43.647" lon="3.32495">
        <ele>160.60000610352</ele>
        <time>2019-12-12T13:54:42Z</time>
      </trkpt>
      <trkpt lat="43.64669" lon="3.32497">
        <ele>160.19999694824</ele>
        <time>2019-12-12T13:54:48Z</time>
      </trkpt>
      <trkpt lat="43.64646" lon="3.32498">
        <ele>159.80000305176</ele>
        <time>2019-12-12T13:54:52Z</time>
      </trkpt>
      <trkpt lat="43.64618" lon="3.32495">
        <ele>159</ele>
        <time>2019-12-12T13:54:57Z</time>
      </trkpt>
      <trkpt lat="43.64582" lon="3.32485">
        <ele>159</ele>
        <time>2019-12-12T13:55:04Z</time>
      </trkpt>
      <trkpt lat="43.64557" lon="3.3248">
        <ele>159</ele>
        <time>2019-12-12T13:55:09Z</time>
      </trkpt>
      <trkpt lat="43.64543" lon="3.32475">
        <ele>159</ele>
        <time>2019-12-12T13:55:12Z</time>
      </trkpt>
      <trkpt lat="43.64535" lon="3.32473">
        <ele>159.19999694824</ele>
        <time>2019-12-12T13:55:14Z</time>
      </trkpt>
      <trkpt lat="43.64522" lon="3.32476">
        <ele>159.39999389648</ele>
        <time>2019-12-12T13:55:17Z</time>
      </trkpt>
      <trkpt lat="43.64514" lon="3.32482">
        <ele>159.39999389648</ele>
        <time>2019-12-12T13:55:19Z</time>
      </trkpt>
      <trkpt lat="43.64503" lon="3.32491">
        <ele>159.60000610352</ele>
        <time>2019-12-12T13:55:22Z</time>
      </trkpt>
      <trkpt lat="43.64469" lon="3.32506">
        <ele>159.60000610352</ele>
        <time>2019-12-12T13:55:29Z</time>
      </trkpt>
      <trkpt lat="43.64437" lon="3.32517">
        <ele>159.60000610352</ele>
        <time>2019-12-12T13:55:37Z</time>
      </trkpt>
      <trkpt lat="43.64414" lon="3.32524">
        <ele>159.60000610352</ele>
        <time>2019-12-12T13:55:44Z</time>
      </trkpt>
      <trkpt lat="43.64403" lon="3.32525">
        <ele>159.39999389648</ele>
        <time>2019-12-12T13:55:50Z</time>
      </trkpt>
      <trkpt lat="43.64388" lon="3.32527">
        <ele>159.19999694824</ele>
        <time>2019-12-12T13:55:57Z</time>
      </trkpt>
      <trkpt lat="43.6437" lon="3.32531">
        <ele>159</ele>
        <time>2019-12-12T13:56:04Z</time>
      </trkpt>
      <trkpt lat="43.64348" lon="3.32534">
        <ele>159.19999694824</ele>
        <time>2019-12-12T13:56:11Z</time>
      </trkpt>
      <trkpt lat="43.64317" lon="3.32532">
        <ele>159.39999389648</ele>
        <time>2019-12-12T13:56:20Z</time>
      </trkpt>
      <trkpt lat="43.64289" lon="3.32523">
        <ele>159.39999389648</ele>
        <time>2019-12-12T13:56:26Z</time>
      </trkpt>
      <trkpt lat="43.64236" lon="3.32497">
        <ele>159.19999694824</ele>
        <time>2019-12-12T13:56:38Z</time>
      </trkpt>
      <trkpt lat="43.64206" lon="3.32482">
        <ele>159.19999694824</ele>
        <time>2019-12-12T13:56:45Z</time>
      </trkpt>
      <trkpt lat="43.64169" lon="3.32459">
        <ele>159.60000610352</ele>
        <time>2019-12-12T13:56:54Z</time>
      </trkpt>
      <trkpt lat="43.64133" lon="3.32439">
        <ele>159.60000610352</ele>
        <time>2019-12-12T13:57:02Z</time>
      </trkpt>
      <trkpt lat="43.64106" lon="3.32434">
        <ele>159.60000610352</ele>
        <time>2019-12-12T13:57:09Z</time>
      </trkpt>
      <trkpt lat="43.64089" lon="3.32431">
        <ele>159</ele>
        <time>2019-12-12T13:57:16Z</time>
      </trkpt>
      <trkpt lat="43.64082" lon="3.32429">
        <ele>158.80000305176</ele>
        <time>2019-12-12T13:57:18Z</time>
      </trkpt>
      <trkpt lat="43.64071" lon="3.32424">
        <ele>158.80000305176</ele>
        <time>2019-12-12T13:57:21Z</time>
      </trkpt>
      <trkpt lat="43.64043" lon="3.32419">
        <ele>158.80000305176</ele>
        <time>2019-12-12T13:57:28Z</time>
      </trkpt>
      <trkpt lat="43.64017" lon="3.32427">
        <ele>159.39999389648</ele>
        <time>2019-12-12T13:57:34Z</time>
      </trkpt>
      <trkpt lat="43.63988" lon="3.32437">
        <ele>160</ele>
        <time>2019-12-12T13:57:41Z</time>
      </trkpt>
      <trkpt lat="43.63979" lon="3.32441">
        <ele>160.19999694824</ele>
        <time>2019-12-12T13:57:43Z</time>
      </trkpt>
      <trkpt lat="43.63953" lon="3.32451">
        <ele>160.80000305176</ele>
        <time>2019-12-12T13:57:49Z</time>
      </trkpt>
      <trkpt lat="43.63949" lon="3.32452">
        <ele>161</ele>
        <time>2019-12-12T13:57:50Z</time>
      </trkpt>
      <trkpt lat="43.63945" lon="3.32454">
        <ele>161.19999694824</ele>
        <time>2019-12-12T13:57:52Z</time>
      </trkpt>
      <trkpt lat="43.63929" lon="3.3246">
        <ele>161.60000610352</ele>
        <time>2019-12-12T13:57:55Z</time>
      </trkpt>
      <trkpt lat="43.63904" lon="3.32469">
        <ele>162.19999694824</ele>
        <time>2019-12-12T13:58:01Z</time>
      </trkpt>
      <trkpt lat="43.63896" lon="3.32471">
        <ele>162.39999389648</ele>
        <time>2019-12-12T13:58:03Z</time>
      </trkpt>
      <trkpt lat="43.63871" lon="3.32473">
        <ele>163.19999694824</ele>
        <time>2019-12-12T13:58:09Z</time>
      </trkpt>
      <trkpt lat="43.63864" lon="3.32473">
        <ele>163.39999389648</ele>
        <time>2019-12-12T13:58:11Z</time>
      </trkpt>
      <trkpt lat="43.63845" lon="3.32474">
        <ele>164.39999389648</ele>
        <time>2019-12-12T13:58:16Z</time>
      </trkpt>
      <trkpt lat="43.63831" lon="3.32476">
        <ele>165.60000610352</ele>
        <time>2019-12-12T13:58:20Z</time>
      </trkpt>
      <trkpt lat="43.63827" lon="3.32475">
        <ele>165.80000305176</ele>
        <time>2019-12-12T13:58:21Z</time>
      </trkpt>
      <trkpt lat="43.63813" lon="3.32473">
        <ele>166.80000305176</ele>
        <time>2019-12-12T13:58:25Z</time>
      </trkpt>
      <trkpt lat="43.63803" lon="3.32467">
        <ele>167.39999389648</ele>
        <time>2019-12-12T13:58:28Z</time>
      </trkpt>
      <trkpt lat="43.63799" lon="3.32465">
        <ele>167.80000305176</ele>
        <time>2019-12-12T13:58:29Z</time>
      </trkpt>
      <trkpt lat="43.63787" lon="3.32464">
        <ele>168.39999389648</ele>
        <time>2019-12-12T13:58:32Z</time>
      </trkpt>
      <trkpt lat="43.6378" lon="3.32466">
        <ele>169</ele>
        <time>2019-12-12T13:58:34Z</time>
      </trkpt>
      <trkpt lat="43.63772" lon="3.32467">
        <ele>170</ele>
        <time>2019-12-12T13:58:37Z</time>
      </trkpt>
      <trkpt lat="43.63771" lon="3.32467">
        <ele>170.39999389648</ele>
        <time>2019-12-12T13:58:38Z</time>
      </trkpt>
      <trkpt lat="43.63768" lon="3.32467">
        <ele>171.19999694824</ele>
        <time>2019-12-12T13:58:40Z</time>
      </trkpt>
      <trkpt lat="43.63763" lon="3.32464">
        <ele>172.39999389648</ele>
        <time>2019-12-12T13:58:43Z</time>
      </trkpt>
      <trkpt lat="43.6376" lon="3.3246">
        <ele>173.80000305176</ele>
        <time>2019-12-12T13:58:46Z</time>
      </trkpt>
      <trkpt lat="43.63754" lon="3.32458">
        <ele>174.39999389648</ele>
        <time>2019-12-12T13:58:50Z</time>
      </trkpt>
      <trkpt lat="43.6374" lon="3.32452">
        <ele>174.80000305176</ele>
        <time>2019-12-12T13:58:56Z</time>
      </trkpt>
      <trkpt lat="43.63722" lon="3.32442">
        <ele>175.19999694824</ele>
        <time>2019-12-12T13:59:03Z</time>
      </trkpt>
      <trkpt lat="43.6371" lon="3.32428">
        <ele>175.39999389648</ele>
        <time>2019-12-12T13:59:09Z</time>
      </trkpt>
      <trkpt lat="43.63705" lon="3.32422">
        <ele>175.80000305176</ele>
        <time>2019-12-12T13:59:11Z</time>
      </trkpt>
      <trkpt lat="43.63689" lon="3.32399">
        <ele>176.39999389648</ele>
        <time>2019-12-12T13:59:18Z</time>
      </trkpt>
      <trkpt lat="43.63666" lon="3.32366">
        <ele>176.80000305176</ele>
        <time>2019-12-12T13:59:28Z</time>
      </trkpt>
      <trkpt lat="43.63664" lon="3.32363">
        <ele>177</ele>
        <time>2019-12-12T13:59:29Z</time>
      </trkpt>
      <trkpt lat="43.63641" lon="3.32332">
        <ele>177.80000305176</ele>
        <time>2019-12-12T13:59:38Z</time>
      </trkpt>
      <trkpt lat="43.63632" lon="3.32321">
        <ele>178</ele>
        <time>2019-12-12T13:59:41Z</time>
      </trkpt>
      <trkpt lat="43.63615" lon="3.32304">
        <ele>178.39999389648</ele>
        <time>2019-12-12T13:59:46Z</time>
      </trkpt>
      <trkpt lat="43.63585" lon="3.32281">
        <ele>178.39999389648</ele>
        <time>2019-12-12T13:59:53Z</time>
      </trkpt>
      <trkpt lat="43.63554" lon="3.32273">
        <ele>178.39999389648</ele>
        <time>2019-12-12T13:59:59Z</time>
      </trkpt>
      <trkpt lat="43.6352" lon="3.32269">
        <ele>178.39999389648</ele>
        <time>2019-12-12T14:00:06Z</time>
      </trkpt>
      <trkpt lat="43.63481" lon="3.32267">
        <ele>179.19999694824</ele>
        <time>2019-12-12T14:00:15Z</time>
      </trkpt>
      <trkpt lat="43.63476" lon="3.32267">
        <ele>179.19999694824</ele>
        <time>2019-12-12T14:00:16Z</time>
      </trkpt>
      <trkpt lat="43.63443" lon="3.32265">
        <ele>179.60000610352</ele>
        <time>2019-12-12T14:00:23Z</time>
      </trkpt>
      <trkpt lat="43.63397" lon="3.32262">
        <ele>179.80000305176</ele>
        <time>2019-12-12T14:00:31Z</time>
      </trkpt>
      <trkpt lat="43.63365" lon="3.32256">
        <ele>180</ele>
        <time>2019-12-12T14:00:37Z</time>
      </trkpt>
      <trkpt lat="43.63354" lon="3.3225">
        <ele>180</ele>
        <time>2019-12-12T14:00:39Z</time>
      </trkpt>
      <trkpt lat="43.63341" lon="3.32238">
        <ele>180.19999694824</ele>
        <time>2019-12-12T14:00:42Z</time>
      </trkpt>
      <trkpt lat="43.63328" lon="3.32223">
        <ele>180.39999389648</ele>
        <time>2019-12-12T14:00:45Z</time>
      </trkpt>
      <trkpt lat="43.63289" lon="3.32177">
        <ele>180.80000305176</ele>
        <time>2019-12-12T14:00:54Z</time>
      </trkpt>
      <trkpt lat="43.6325" lon="3.32131">
        <ele>181</ele>
        <time>2019-12-12T14:01:03Z</time>
      </trkpt>
      <trkpt lat="43.63219" lon="3.32094">
        <ele>181.19999694824</ele>
        <time>2019-12-12T14:01:10Z</time>
      </trkpt>
      <trkpt lat="43.63183" lon="3.32052">
        <ele>181.19999694824</ele>
        <time>2019-12-12T14:01:17Z</time>
      </trkpt>
      <trkpt lat="43.63156" lon="3.32027">
        <ele>181.19999694824</ele>
        <time>2019-12-12T14:01:23Z</time>
      </trkpt>
      <trkpt lat="43.63136" lon="3.32013">
        <ele>181.60000610352</ele>
        <time>2019-12-12T14:01:27Z</time>
      </trkpt>
      <trkpt lat="43.63115" lon="3.31999">
        <ele>182.80000305176</ele>
        <time>2019-12-12T14:01:31Z</time>
      </trkpt>
      <trkpt lat="43.6311" lon="3.31996">
        <ele>183.19999694824</ele>
        <time>2019-12-12T14:01:32Z</time>
      </trkpt>
      <trkpt lat="43.6306" lon="3.31967">
        <ele>184</ele>
        <time>2019-12-12T14:01:41Z</time>
      </trkpt>
      <trkpt lat="43.63054" lon="3.31965">
        <ele>184.19999694824</ele>
        <time>2019-12-12T14:01:42Z</time>
      </trkpt>
      <trkpt lat="43.62998" lon="3.31934">
        <ele>184.39999389648</ele>
        <time>2019-12-12T14:01:51Z</time>
      </trkpt>
      <trkpt lat="43.62964" lon="3.31915">
        <ele>184</ele>
        <time>2019-12-12T14:01:57Z</time>
      </trkpt>
      <trkpt lat="43.62916" lon="3.31886">
        <ele>184.80000305176</ele>
        <time>2019-12-12T14:02:06Z</time>
      </trkpt>
      <trkpt lat="43.62902" lon="3.31878">
        <ele>185.19999694824</ele>
        <time>2019-12-12T14:02:09Z</time>
      </trkpt>
      <trkpt lat="43.62871" lon="3.31863">
        <ele>186.19999694824</ele>
        <time>2019-12-12T14:02:15Z</time>
      </trkpt>
      <trkpt lat="43.62845" lon="3.31853">
        <ele>187.19999694824</ele>
        <time>2019-12-12T14:02:20Z</time>
      </trkpt>
      <trkpt lat="43.62823" lon="3.31846">
        <ele>188.19999694824</ele>
        <time>2019-12-12T14:02:24Z</time>
      </trkpt>
      <trkpt lat="43.62817" lon="3.31844">
        <ele>188.39999389648</ele>
        <time>2019-12-12T14:02:25Z</time>
      </trkpt>
      <trkpt lat="43.62773" lon="3.3184">
        <ele>189.39999389648</ele>
        <time>2019-12-12T14:02:33Z</time>
      </trkpt>
      <trkpt lat="43.62762" lon="3.31839">
        <ele>189.60000610352</ele>
        <time>2019-12-12T14:02:35Z</time>
      </trkpt>
      <trkpt lat="43.62728" lon="3.31831">
        <ele>190.39999389648</ele>
        <time>2019-12-12T14:02:41Z</time>
      </trkpt>
      <trkpt lat="43.62717" lon="3.31827">
        <ele>190.80000305176</ele>
        <time>2019-12-12T14:02:43Z</time>
      </trkpt>
      <trkpt lat="43.62679" lon="3.31815">
        <ele>191.19999694824</ele>
        <time>2019-12-12T14:02:50Z</time>
      </trkpt>
      <trkpt lat="43.62648" lon="3.31804">
        <ele>191.80000305176</ele>
        <time>2019-12-12T14:02:56Z</time>
      </trkpt>
      <trkpt lat="43.62634" lon="3.318">
        <ele>192.19999694824</ele>
        <time>2019-12-12T14:02:59Z</time>
      </trkpt>
      <trkpt lat="43.62603" lon="3.31792">
        <ele>193</ele>
        <time>2019-12-12T14:03:05Z</time>
      </trkpt>
      <trkpt lat="43.62587" lon="3.31787">
        <ele>193.60000610352</ele>
        <time>2019-12-12T14:03:08Z</time>
      </trkpt>
      <trkpt lat="43.62561" lon="3.31779">
        <ele>194</ele>
        <time>2019-12-12T14:03:13Z</time>
      </trkpt>
      <trkpt lat="43.6254" lon="3.31773">
        <ele>194.60000610352</ele>
        <time>2019-12-12T14:03:17Z</time>
      </trkpt>
      <trkpt lat="43.6252" lon="3.31766">
        <ele>195.19999694824</ele>
        <time>2019-12-12T14:03:21Z</time>
      </trkpt>
      <trkpt lat="43.62484" lon="3.31754">
        <ele>196.19999694824</ele>
        <time>2019-12-12T14:03:28Z</time>
      </trkpt>
      <trkpt lat="43.62473" lon="3.31751">
        <ele>196.60000610352</ele>
        <time>2019-12-12T14:03:30Z</time>
      </trkpt>
      <trkpt lat="43.62432" lon="3.31738">
        <ele>197.39999389648</ele>
        <time>2019-12-12T14:03:38Z</time>
      </trkpt>
      <trkpt lat="43.62427" lon="3.31736">
        <ele>197.80000305176</ele>
        <time>2019-12-12T14:03:39Z</time>
      </trkpt>
      <trkpt lat="43.62395" lon="3.31727">
        <ele>198.60000610352</ele>
        <time>2019-12-12T14:03:45Z</time>
      </trkpt>
      <trkpt lat="43.6237" lon="3.31719">
        <ele>199.39999389648</ele>
        <time>2019-12-12T14:03:50Z</time>
      </trkpt>
      <trkpt lat="43.62354" lon="3.31714">
        <ele>199.60000610352</ele>
        <time>2019-12-12T14:03:53Z</time>
      </trkpt>
      <trkpt lat="43.62317" lon="3.31704">
        <ele>200.80000305176</ele>
        <time>2019-12-12T14:04:00Z</time>
      </trkpt>
      <trkpt lat="43.62271" lon="3.31689">
        <ele>201.80000305176</ele>
        <time>2019-12-12T14:04:09Z</time>
      </trkpt>
      <trkpt lat="43.62235" lon="3.31678">
        <ele>203</ele>
        <time>2019-12-12T14:04:16Z</time>
      </trkpt>
      <trkpt lat="43.6222" lon="3.31672">
        <ele>203.19999694824</ele>
        <time>2019-12-12T14:04:19Z</time>
      </trkpt>
      <trkpt lat="43.62192" lon="3.31654">
        <ele>204</ele>
        <time>2019-12-12T14:04:25Z</time>
      </trkpt>
      <trkpt lat="43.62183" lon="3.31647">
        <ele>204.39999389648</ele>
        <time>2019-12-12T14:04:27Z</time>
      </trkpt>
      <trkpt lat="43.62166" lon="3.31634">
        <ele>205.19999694824</ele>
        <time>2019-12-12T14:04:31Z</time>
      </trkpt>
      <trkpt lat="43.62155" lon="3.31624">
        <ele>205.60000610352</ele>
        <time>2019-12-12T14:04:34Z</time>
      </trkpt>
      <trkpt lat="43.62143" lon="3.31614">
        <ele>206.39999389648</ele>
        <time>2019-12-12T14:04:37Z</time>
      </trkpt>
      <trkpt lat="43.62135" lon="3.31607">
        <ele>206.60000610352</ele>
        <time>2019-12-12T14:04:39Z</time>
      </trkpt>
      <trkpt lat="43.62121" lon="3.31595">
        <ele>207.39999389648</ele>
        <time>2019-12-12T14:04:43Z</time>
      </trkpt>
      <trkpt lat="43.62111" lon="3.31587">
        <ele>208.19999694824</ele>
        <time>2019-12-12T14:04:46Z</time>
      </trkpt>
      <trkpt lat="43.62104" lon="3.31581">
        <ele>208.60000610352</ele>
        <time>2019-12-12T14:04:48Z</time>
      </trkpt>
      <trkpt lat="43.62095" lon="3.31573">
        <ele>209.19999694824</ele>
        <time>2019-12-12T14:04:51Z</time>
      </trkpt>
      <trkpt lat="43.62089" lon="3.31568">
        <ele>209.60000610352</ele>
        <time>2019-12-12T14:04:53Z</time>
      </trkpt>
      <trkpt lat="43.62075" lon="3.31555">
        <ele>210.39999389648</ele>
        <time>2019-12-12T14:04:57Z</time>
      </trkpt>
      <trkpt lat="43.62068" lon="3.31551">
        <ele>211.19999694824</ele>
        <time>2019-12-12T14:04:59Z</time>
      </trkpt>
      <trkpt lat="43.62053" lon="3.31545">
        <ele>211.80000305176</ele>
        <time>2019-12-12T14:05:03Z</time>
      </trkpt>
      <trkpt lat="43.62049" lon="3.31545">
        <ele>211.80000305176</ele>
        <time>2019-12-12T14:05:04Z</time>
      </trkpt>
      <trkpt lat="43.62037" lon="3.3155">
        <ele>212.19999694824</ele>
        <time>2019-12-12T14:05:07Z</time>
      </trkpt>
      <trkpt lat="43.62034" lon="3.31554">
        <ele>212.60000610352</ele>
        <time>2019-12-12T14:05:08Z</time>
      </trkpt>
      <trkpt lat="43.6203" lon="3.31558">
        <ele>212.80000305176</ele>
        <time>2019-12-12T14:05:09Z</time>
      </trkpt>
      <trkpt lat="43.62021" lon="3.3157">
        <ele>213.19999694824</ele>
        <time>2019-12-12T14:05:12Z</time>
      </trkpt>
      <trkpt lat="43.62009" lon="3.3159">
        <ele>214</ele>
        <time>2019-12-12T14:05:16Z</time>
      </trkpt>
      <trkpt lat="43.62006" lon="3.31594">
        <ele>214.39999389648</ele>
        <time>2019-12-12T14:05:17Z</time>
      </trkpt>
      <trkpt lat="43.62" lon="3.31603">
        <ele>214.80000305176</ele>
        <time>2019-12-12T14:05:19Z</time>
      </trkpt>
      <trkpt lat="43.61993" lon="3.3161">
        <ele>215.60000610352</ele>
        <time>2019-12-12T14:05:21Z</time>
      </trkpt>
      <trkpt lat="43.61991" lon="3.31613">
        <ele>216</ele>
        <time>2019-12-12T14:05:22Z</time>
      </trkpt>
      <trkpt lat="43.61978" lon="3.3162">
        <ele>217</ele>
        <time>2019-12-12T14:05:26Z</time>
      </trkpt>
      <trkpt lat="43.61976" lon="3.31622">
        <ele>217.39999389648</ele>
        <time>2019-12-12T14:05:27Z</time>
      </trkpt>
      <trkpt lat="43.61974" lon="3.31625">
        <ele>218</ele>
        <time>2019-12-12T14:05:28Z</time>
      </trkpt>
      <trkpt lat="43.61969" lon="3.31629">
        <ele>218.80000305176</ele>
        <time>2019-12-12T14:05:30Z</time>
      </trkpt>
      <trkpt lat="43.61967" lon="3.31632">
        <ele>219.19999694824</ele>
        <time>2019-12-12T14:05:32Z</time>
      </trkpt>
      <trkpt lat="43.61966" lon="3.31639">
        <ele>219.60000610352</ele>
        <time>2019-12-12T14:05:33Z</time>
      </trkpt>
      <trkpt lat="43.61966" lon="3.31642">
        <ele>219.80000305176</ele>
        <time>2019-12-12T14:05:34Z</time>
      </trkpt>
      <trkpt lat="43.61969" lon="3.31647">
        <ele>220.19999694824</ele>
        <time>2019-12-12T14:05:37Z</time>
      </trkpt>
      <trkpt lat="43.61969" lon="3.31649">
        <ele>220.19999694824</ele>
        <time>2019-12-12T14:05:38Z</time>
      </trkpt>
      <trkpt lat="43.61965" lon="3.31652">
        <ele>220.80000305176</ele>
        <time>2019-12-12T14:05:43Z</time>
      </trkpt>
      <trkpt lat="43.61964" lon="3.31659">
        <ele>221.19999694824</ele>
        <time>2019-12-12T14:05:47Z</time>
      </trkpt>
      <trkpt lat="43.61964" lon="3.3166">
        <ele>221.19999694824</ele>
        <time>2019-12-12T14:05:48Z</time>
      </trkpt>
      <trkpt lat="43.61964" lon="3.31661">
        <ele>221.39999389648</ele>
        <time>2019-12-12T14:05:49Z</time>
      </trkpt>
      <trkpt lat="43.61964" lon="3.31661">
        <ele>221.39999389648</ele>
        <time>2019-12-12T14:05:50Z</time>
      </trkpt>
      <trkpt lat="43.61965" lon="3.31662">
        <ele>222.19999694824</ele>
        <time>2019-12-12T14:06:54Z</time>
      </trkpt>
      <trkpt lat="43.61966" lon="3.31664">
        <ele>222.19999694824</ele>
        <time>2019-12-12T14:06:55Z</time>
      </trkpt>
      <trkpt lat="43.6197" lon="3.31677">
        <ele>222.19999694824</ele>
        <time>2019-12-12T14:07:01Z</time>
      </trkpt>
      <trkpt lat="43.61967" lon="3.31692">
        <ele>222.19999694824</ele>
        <time>2019-12-12T14:07:05Z</time>
      </trkpt>
      <trkpt lat="43.61957" lon="3.31711">
        <ele>222.19999694824</ele>
        <time>2019-12-12T14:07:11Z</time>
      </trkpt>
      <trkpt lat="43.61952" lon="3.31723">
        <ele>222.80000305176</ele>
        <time>2019-12-12T14:07:15Z</time>
      </trkpt>
      <trkpt lat="43.61952" lon="3.31727">
        <ele>222.80000305176</ele>
        <time>2019-12-12T14:07:16Z</time>
      </trkpt>
      <trkpt lat="43.61953" lon="3.31759">
        <ele>222.80000305176</ele>
        <time>2019-12-12T14:07:22Z</time>
      </trkpt>
      <trkpt lat="43.61958" lon="3.31789">
        <ele>222.60000610352</ele>
        <time>2019-12-12T14:07:26Z</time>
      </trkpt>
      <trkpt lat="43.6196" lon="3.31798">
        <ele>222.39999389648</ele>
        <time>2019-12-12T14:07:27Z</time>
      </trkpt>
      <trkpt lat="43.61965" lon="3.31825">
        <ele>221.39999389648</ele>
        <time>2019-12-12T14:07:30Z</time>
      </trkpt>
      <trkpt lat="43.61968" lon="3.31843">
        <ele>220.39999389648</ele>
        <time>2019-12-12T14:07:32Z</time>
      </trkpt>
      <trkpt lat="43.61969" lon="3.3186">
        <ele>219.19999694824</ele>
        <time>2019-12-12T14:07:34Z</time>
      </trkpt>
      <trkpt lat="43.61967" lon="3.31875">
        <ele>218</ele>
        <time>2019-12-12T14:07:36Z</time>
      </trkpt>
      <trkpt lat="43.61964" lon="3.3189">
        <ele>217.60000610352</ele>
        <time>2019-12-12T14:07:38Z</time>
      </trkpt>
      <trkpt lat="43.6195" lon="3.31937">
        <ele>217.39999389648</ele>
        <time>2019-12-12T14:07:45Z</time>
      </trkpt>
      <trkpt lat="43.61938" lon="3.31996">
        <ele>218</ele>
        <time>2019-12-12T14:07:54Z</time>
      </trkpt>
      <trkpt lat="43.61935" lon="3.32022">
        <ele>219.19999694824</ele>
        <time>2019-12-12T14:07:58Z</time>
      </trkpt>
      <trkpt lat="43.6193" lon="3.32052">
        <ele>220</ele>
        <time>2019-12-12T14:08:03Z</time>
      </trkpt>
      <trkpt lat="43.61926" lon="3.32077">
        <ele>220.39999389648</ele>
        <time>2019-12-12T14:08:07Z</time>
      </trkpt>
      <trkpt lat="43.61921" lon="3.32103">
        <ele>221.39999389648</ele>
        <time>2019-12-12T14:08:11Z</time>
      </trkpt>
      <trkpt lat="43.6192" lon="3.32116">
        <ele>221.80000305176</ele>
        <time>2019-12-12T14:08:13Z</time>
      </trkpt>
      <trkpt lat="43.61921" lon="3.32136">
        <ele>222.60000610352</ele>
        <time>2019-12-12T14:08:16Z</time>
      </trkpt>
      <trkpt lat="43.61921" lon="3.32164">
        <ele>223.80000305176</ele>
        <time>2019-12-12T14:08:20Z</time>
      </trkpt>
      <trkpt lat="43.61919" lon="3.32184">
        <ele>224.60000610352</ele>
        <time>2019-12-12T14:08:23Z</time>
      </trkpt>
      <trkpt lat="43.61917" lon="3.32197">
        <ele>225.39999389648</ele>
        <time>2019-12-12T14:08:25Z</time>
      </trkpt>
      <trkpt lat="43.61916" lon="3.32209">
        <ele>226.19999694824</ele>
        <time>2019-12-12T14:08:27Z</time>
      </trkpt>
      <trkpt lat="43.61915" lon="3.32215">
        <ele>226.39999389648</ele>
        <time>2019-12-12T14:08:28Z</time>
      </trkpt>
      <trkpt lat="43.61913" lon="3.32227">
        <ele>227.60000610352</ele>
        <time>2019-12-12T14:08:30Z</time>
      </trkpt>
      <trkpt lat="43.61913" lon="3.32239">
        <ele>228.80000305176</ele>
        <time>2019-12-12T14:08:32Z</time>
      </trkpt>
      <trkpt lat="43.61913" lon="3.3225">
        <ele>230.19999694824</ele>
        <time>2019-12-12T14:08:34Z</time>
      </trkpt>
      <trkpt lat="43.61913" lon="3.32259">
        <ele>231.39999389648</ele>
        <time>2019-12-12T14:08:36Z</time>
      </trkpt>
      <trkpt lat="43.61912" lon="3.32267">
        <ele>232.60000610352</ele>
        <time>2019-12-12T14:08:38Z</time>
      </trkpt>
      <trkpt lat="43.61911" lon="3.3228">
        <ele>233.80000305176</ele>
        <time>2019-12-12T14:08:41Z</time>
      </trkpt>
      <trkpt lat="43.6191" lon="3.32285">
        <ele>234.39999389648</ele>
        <time>2019-12-12T14:08:42Z</time>
      </trkpt>
      <trkpt lat="43.61909" lon="3.32289">
        <ele>234.80000305176</ele>
        <time>2019-12-12T14:08:43Z</time>
      </trkpt>
      <trkpt lat="43.61907" lon="3.32301">
        <ele>236</ele>
        <time>2019-12-12T14:08:46Z</time>
      </trkpt>
      <trkpt lat="43.61902" lon="3.32318">
        <ele>236.80000305176</ele>
        <time>2019-12-12T14:08:50Z</time>
      </trkpt>
      <trkpt lat="43.61899" lon="3.32326">
        <ele>237</ele>
        <time>2019-12-12T14:08:52Z</time>
      </trkpt>
      <trkpt lat="43.61892" lon="3.32351">
        <ele>238</ele>
        <time>2019-12-12T14:08:58Z</time>
      </trkpt>
      <trkpt lat="43.6189" lon="3.32359">
        <ele>238</ele>
        <time>2019-12-12T14:09:00Z</time>
      </trkpt>
      <trkpt lat="43.61883" lon="3.32388">
        <ele>239</ele>
        <time>2019-12-12T14:09:07Z</time>
      </trkpt>
      <trkpt lat="43.61882" lon="3.32392">
        <ele>239.19999694824</ele>
        <time>2019-12-12T14:09:08Z</time>
      </trkpt>
      <trkpt lat="43.61873" lon="3.32418">
        <ele>240.39999389648</ele>
        <time>2019-12-12T14:09:14Z</time>
      </trkpt>
      <trkpt lat="43.61855" lon="3.32457">
        <ele>241.60000610352</ele>
        <time>2019-12-12T14:09:24Z</time>
      </trkpt>
      <trkpt lat="43.61854" lon="3.32461">
        <ele>241.80000305176</ele>
        <time>2019-12-12T14:09:25Z</time>
      </trkpt>
      <trkpt lat="43.61845" lon="3.32482">
        <ele>242.60000610352</ele>
        <time>2019-12-12T14:09:30Z</time>
      </trkpt>
      <trkpt lat="43.61835" lon="3.32508">
        <ele>243.19999694824</ele>
        <time>2019-12-12T14:09:36Z</time>
      </trkpt>
      <trkpt lat="43.61828" lon="3.32521">
        <ele>243.80000305176</ele>
        <time>2019-12-12T14:09:39Z</time>
      </trkpt>
      <trkpt lat="43.61817" lon="3.32542">
        <ele>244.60000610352</ele>
        <time>2019-12-12T14:09:44Z</time>
      </trkpt>
      <trkpt lat="43.61815" lon="3.32552">
        <ele>244.80000305176</ele>
        <time>2019-12-12T14:09:46Z</time>
      </trkpt>
      <trkpt lat="43.6181" lon="3.32576">
        <ele>245.19999694824</ele>
        <time>2019-12-12T14:09:51Z</time>
      </trkpt>
      <trkpt lat="43.61806" lon="3.326">
        <ele>245.80000305176</ele>
        <time>2019-12-12T14:09:56Z</time>
      </trkpt>
      <trkpt lat="43.61802" lon="3.32614">
        <ele>246.39999389648</ele>
        <time>2019-12-12T14:09:59Z</time>
      </trkpt>
      <trkpt lat="43.618" lon="3.32625">
        <ele>246.80000305176</ele>
        <time>2019-12-12T14:10:01Z</time>
      </trkpt>
      <trkpt lat="43.61797" lon="3.32636">
        <ele>247.39999389648</ele>
        <time>2019-12-12T14:10:03Z</time>
      </trkpt>
      <trkpt lat="43.61796" lon="3.32653">
        <ele>248</ele>
        <time>2019-12-12T14:10:06Z</time>
      </trkpt>
      <trkpt lat="43.61795" lon="3.32659">
        <ele>248</ele>
        <time>2019-12-12T14:10:07Z</time>
      </trkpt>
      <trkpt lat="43.61796" lon="3.32704">
        <ele>248.39999389648</ele>
        <time>2019-12-12T14:10:15Z</time>
      </trkpt>
      <trkpt lat="43.61805" lon="3.32744">
        <ele>249</ele>
        <time>2019-12-12T14:10:22Z</time>
      </trkpt>
      <trkpt lat="43.61813" lon="3.32792">
        <ele>249.60000610352</ele>
        <time>2019-12-12T14:10:30Z</time>
      </trkpt>
      <trkpt lat="43.61808" lon="3.32817">
        <ele>249.80000305176</ele>
        <time>2019-12-12T14:10:35Z</time>
      </trkpt>
      <trkpt lat="43.618" lon="3.32828">
        <ele>250</ele>
        <time>2019-12-12T14:10:38Z</time>
      </trkpt>
      <trkpt lat="43.6179" lon="3.32842">
        <ele>250.60000610352</ele>
        <time>2019-12-12T14:10:42Z</time>
      </trkpt>
      <trkpt lat="43.61786" lon="3.3285">
        <ele>251.19999694824</ele>
        <time>2019-12-12T14:10:44Z</time>
      </trkpt>
      <trkpt lat="43.61781" lon="3.32868">
        <ele>252</ele>
        <time>2019-12-12T14:10:48Z</time>
      </trkpt>
      <trkpt lat="43.61781" lon="3.32873">
        <ele>252.19999694824</ele>
        <time>2019-12-12T14:10:49Z</time>
      </trkpt>
      <trkpt lat="43.61784" lon="3.32897">
        <ele>253.19999694824</ele>
        <time>2019-12-12T14:10:54Z</time>
      </trkpt>
      <trkpt lat="43.61785" lon="3.32901">
        <ele>253.60000610352</ele>
        <time>2019-12-12T14:10:55Z</time>
      </trkpt>
      <trkpt lat="43.6179" lon="3.3292">
        <ele>254.60000610352</ele>
        <time>2019-12-12T14:10:59Z</time>
      </trkpt>
      <trkpt lat="43.61795" lon="3.32937">
        <ele>255.19999694824</ele>
        <time>2019-12-12T14:11:03Z</time>
      </trkpt>
      <trkpt lat="43.61799" lon="3.3295">
        <ele>255.80000305176</ele>
        <time>2019-12-12T14:11:07Z</time>
      </trkpt>
      <trkpt lat="43.61806" lon="3.32975">
        <ele>256.79998779297</ele>
        <time>2019-12-12T14:11:12Z</time>
      </trkpt>
      <trkpt lat="43.61808" lon="3.32983">
        <ele>257.60000610352</ele>
        <time>2019-12-12T14:11:14Z</time>
      </trkpt>
      <trkpt lat="43.6181" lon="3.32991">
        <ele>258</ele>
        <time>2019-12-12T14:11:16Z</time>
      </trkpt>
      <trkpt lat="43.61812" lon="3.33012">
        <ele>258.79998779297</ele>
        <time>2019-12-12T14:11:21Z</time>
      </trkpt>
      <trkpt lat="43.61812" lon="3.33016">
        <ele>259</ele>
        <time>2019-12-12T14:11:22Z</time>
      </trkpt>
      <trkpt lat="43.61813" lon="3.33032">
        <ele>260.20001220703</ele>
        <time>2019-12-12T14:11:26Z</time>
      </trkpt>
      <trkpt lat="43.61812" lon="3.33044">
        <ele>261.39999389648</ele>
        <time>2019-12-12T14:11:29Z</time>
      </trkpt>
      <trkpt lat="43.61812" lon="3.33048">
        <ele>261.60000610352</ele>
        <time>2019-12-12T14:11:30Z</time>
      </trkpt>
      <trkpt lat="43.6181" lon="3.33064">
        <ele>262.39999389648</ele>
        <time>2019-12-12T14:11:34Z</time>
      </trkpt>
      <trkpt lat="43.61807" lon="3.33084">
        <ele>263.60000610352</ele>
        <time>2019-12-12T14:11:39Z</time>
      </trkpt>
      <trkpt lat="43.61804" lon="3.33103">
        <ele>264.60000610352</ele>
        <time>2019-12-12T14:11:44Z</time>
      </trkpt>
      <trkpt lat="43.61803" lon="3.33111">
        <ele>265</ele>
        <time>2019-12-12T14:11:46Z</time>
      </trkpt>
      <trkpt lat="43.618" lon="3.33126">
        <ele>265.79998779297</ele>
        <time>2019-12-12T14:11:50Z</time>
      </trkpt>
      <trkpt lat="43.61797" lon="3.33137">
        <ele>266.79998779297</ele>
        <time>2019-12-12T14:11:53Z</time>
      </trkpt>
      <trkpt lat="43.61795" lon="3.33148">
        <ele>267.39999389648</ele>
        <time>2019-12-12T14:11:56Z</time>
      </trkpt>
      <trkpt lat="43.61795" lon="3.33151">
        <ele>267.79998779297</ele>
        <time>2019-12-12T14:11:57Z</time>
      </trkpt>
      <trkpt lat="43.61792" lon="3.33166">
        <ele>268.79998779297</ele>
        <time>2019-12-12T14:12:01Z</time>
      </trkpt>
      <trkpt lat="43.6179" lon="3.33177">
        <ele>269.79998779297</ele>
        <time>2019-12-12T14:12:04Z</time>
      </trkpt>
      <trkpt lat="43.61787" lon="3.33188">
        <ele>271</ele>
        <time>2019-12-12T14:12:07Z</time>
      </trkpt>
      <trkpt lat="43.61785" lon="3.33203">
        <ele>272.39999389648</ele>
        <time>2019-12-12T14:12:11Z</time>
      </trkpt>
      <trkpt lat="43.61782" lon="3.33218">
        <ele>273.60000610352</ele>
        <time>2019-12-12T14:12:15Z</time>
      </trkpt>
      <trkpt lat="43.61779" lon="3.33233">
        <ele>275</ele>
        <time>2019-12-12T14:12:19Z</time>
      </trkpt>
      <trkpt lat="43.61778" lon="3.33237">
        <ele>275.20001220703</ele>
        <time>2019-12-12T14:12:20Z</time>
      </trkpt>
      <trkpt lat="43.61776" lon="3.33249">
        <ele>275.79998779297</ele>
        <time>2019-12-12T14:12:23Z</time>
      </trkpt>
      <trkpt lat="43.61772" lon="3.33265">
        <ele>276.79998779297</ele>
        <time>2019-12-12T14:12:27Z</time>
      </trkpt>
      <trkpt lat="43.6177" lon="3.33277">
        <ele>277.39999389648</ele>
        <time>2019-12-12T14:12:30Z</time>
      </trkpt>
      <trkpt lat="43.61769" lon="3.33282">
        <ele>277.79998779297</ele>
        <time>2019-12-12T14:12:31Z</time>
      </trkpt>
      <trkpt lat="43.61767" lon="3.33299">
        <ele>278.79998779297</ele>
        <time>2019-12-12T14:12:35Z</time>
      </trkpt>
      <trkpt lat="43.61765" lon="3.33318">
        <ele>280.20001220703</ele>
        <time>2019-12-12T14:12:39Z</time>
      </trkpt>
      <trkpt lat="43.61765" lon="3.33323">
        <ele>280.60000610352</ele>
        <time>2019-12-12T14:12:40Z</time>
      </trkpt>
      <trkpt lat="43.61762" lon="3.33337">
        <ele>281.20001220703</ele>
        <time>2019-12-12T14:12:43Z</time>
      </trkpt>
      <trkpt lat="43.61756" lon="3.33362">
        <ele>282</ele>
        <time>2019-12-12T14:12:48Z</time>
      </trkpt>
      <trkpt lat="43.61751" lon="3.33375">
        <ele>282.39999389648</ele>
        <time>2019-12-12T14:12:51Z</time>
      </trkpt>
      <trkpt lat="43.61742" lon="3.33392">
        <ele>282.60000610352</ele>
        <time>2019-12-12T14:12:55Z</time>
      </trkpt>
      <trkpt lat="43.61732" lon="3.33412">
        <ele>283.39999389648</ele>
        <time>2019-12-12T14:13:00Z</time>
      </trkpt>
      <trkpt lat="43.61721" lon="3.33433">
        <ele>284.39999389648</ele>
        <time>2019-12-12T14:13:05Z</time>
      </trkpt>
      <trkpt lat="43.61713" lon="3.3345">
        <ele>285.60000610352</ele>
        <time>2019-12-12T14:13:09Z</time>
      </trkpt>
      <trkpt lat="43.61705" lon="3.33467">
        <ele>286.20001220703</ele>
        <time>2019-12-12T14:13:13Z</time>
      </trkpt>
      <trkpt lat="43.61694" lon="3.33493">
        <ele>286.79998779297</ele>
        <time>2019-12-12T14:13:19Z</time>
      </trkpt>
      <trkpt lat="43.6169" lon="3.33502">
        <ele>287</ele>
        <time>2019-12-12T14:13:21Z</time>
      </trkpt>
      <trkpt lat="43.61677" lon="3.33533">
        <ele>287.79998779297</ele>
        <time>2019-12-12T14:13:28Z</time>
      </trkpt>
      <trkpt lat="43.6167" lon="3.33547">
        <ele>288</ele>
        <time>2019-12-12T14:13:31Z</time>
      </trkpt>
      <trkpt lat="43.6165" lon="3.33589">
        <ele>288.20001220703</ele>
        <time>2019-12-12T14:13:40Z</time>
      </trkpt>
      <trkpt lat="43.6163" lon="3.33622">
        <ele>288.20001220703</ele>
        <time>2019-12-12T14:13:47Z</time>
      </trkpt>
      <trkpt lat="43.6162" lon="3.33633">
        <ele>288.39999389648</ele>
        <time>2019-12-12T14:13:50Z</time>
      </trkpt>
      <trkpt lat="43.61609" lon="3.33642">
        <ele>288.39999389648</ele>
        <time>2019-12-12T14:13:53Z</time>
      </trkpt>
      <trkpt lat="43.61587" lon="3.33654">
        <ele>288.39999389648</ele>
        <time>2019-12-12T14:13:59Z</time>
      </trkpt>
      <trkpt lat="43.61549" lon="3.33662">
        <ele>288.39999389648</ele>
        <time>2019-12-12T14:14:07Z</time>
      </trkpt>
      <trkpt lat="43.61544" lon="3.33664">
        <ele>288.39999389648</ele>
        <time>2019-12-12T14:14:08Z</time>
      </trkpt>
      <trkpt lat="43.61528" lon="3.33679">
        <ele>288.39999389648</ele>
        <time>2019-12-12T14:14:11Z</time>
      </trkpt>
      <trkpt lat="43.61521" lon="3.33708">
        <ele>288</ele>
        <time>2019-12-12T14:14:14Z</time>
      </trkpt>
      <trkpt lat="43.6152" lon="3.33719">
        <ele>287.79998779297</ele>
        <time>2019-12-12T14:14:15Z</time>
      </trkpt>
      <trkpt lat="43.61517" lon="3.33752">
        <ele>286.79998779297</ele>
        <time>2019-12-12T14:14:18Z</time>
      </trkpt>
      <trkpt lat="43.61514" lon="3.33774">
        <ele>285.60000610352</ele>
        <time>2019-12-12T14:14:20Z</time>
      </trkpt>
      <trkpt lat="43.61512" lon="3.33784">
        <ele>284.60000610352</ele>
        <time>2019-12-12T14:14:21Z</time>
      </trkpt>
      <trkpt lat="43.61507" lon="3.33804">
        <ele>283</ele>
        <time>2019-12-12T14:14:23Z</time>
      </trkpt>
      <trkpt lat="43.61503" lon="3.33823">
        <ele>282</ele>
        <time>2019-12-12T14:14:25Z</time>
      </trkpt>
      <trkpt lat="43.61497" lon="3.33852">
        <ele>280.79998779297</ele>
        <time>2019-12-12T14:14:28Z</time>
      </trkpt>
      <trkpt lat="43.61496" lon="3.33872">
        <ele>280.20001220703</ele>
        <time>2019-12-12T14:14:30Z</time>
      </trkpt>
      <trkpt lat="43.61497" lon="3.33893">
        <ele>279.60000610352</ele>
        <time>2019-12-12T14:14:32Z</time>
      </trkpt>
      <trkpt lat="43.61506" lon="3.33938">
        <ele>278.79998779297</ele>
        <time>2019-12-12T14:14:36Z</time>
      </trkpt>
      <trkpt lat="43.6151" lon="3.3396">
        <ele>277.60000610352</ele>
        <time>2019-12-12T14:14:38Z</time>
      </trkpt>
      <trkpt lat="43.61514" lon="3.33992">
        <ele>276.20001220703</ele>
        <time>2019-12-12T14:14:41Z</time>
      </trkpt>
      <trkpt lat="43.61516" lon="3.34012">
        <ele>275</ele>
        <time>2019-12-12T14:14:43Z</time>
      </trkpt>
      <trkpt lat="43.61518" lon="3.34021">
        <ele>274</ele>
        <time>2019-12-12T14:14:44Z</time>
      </trkpt>
      <trkpt lat="43.61525" lon="3.34037">
        <ele>272.79998779297</ele>
        <time>2019-12-12T14:14:46Z</time>
      </trkpt>
      <trkpt lat="43.61533" lon="3.3405">
        <ele>272.20001220703</ele>
        <time>2019-12-12T14:14:48Z</time>
      </trkpt>
      <trkpt lat="43.61545" lon="3.34076">
        <ele>272</ele>
        <time>2019-12-12T14:14:52Z</time>
      </trkpt>
      <trkpt lat="43.61549" lon="3.3409">
        <ele>271.79998779297</ele>
        <time>2019-12-12T14:14:54Z</time>
      </trkpt>
      <trkpt lat="43.61554" lon="3.34127">
        <ele>271.60000610352</ele>
        <time>2019-12-12T14:14:59Z</time>
      </trkpt>
      <trkpt lat="43.61555" lon="3.34134">
        <ele>271.60000610352</ele>
        <time>2019-12-12T14:15:00Z</time>
      </trkpt>
      <trkpt lat="43.6156" lon="3.34166">
        <ele>271.20001220703</ele>
        <time>2019-12-12T14:15:05Z</time>
      </trkpt>
      <trkpt lat="43.6156" lon="3.34173">
        <ele>271</ele>
        <time>2019-12-12T14:15:06Z</time>
      </trkpt>
      <trkpt lat="43.6156" lon="3.34205">
        <ele>270.60000610352</ele>
        <time>2019-12-12T14:15:10Z</time>
      </trkpt>
      <trkpt lat="43.6156" lon="3.34231">
        <ele>270.60000610352</ele>
        <time>2019-12-12T14:15:13Z</time>
      </trkpt>
      <trkpt lat="43.61563" lon="3.3428">
        <ele>269.60000610352</ele>
        <time>2019-12-12T14:15:18Z</time>
      </trkpt>
      <trkpt lat="43.6157" lon="3.34323">
        <ele>268</ele>
        <time>2019-12-12T14:15:22Z</time>
      </trkpt>
      <trkpt lat="43.61572" lon="3.34346">
        <ele>266.60000610352</ele>
        <time>2019-12-12T14:15:24Z</time>
      </trkpt>
      <trkpt lat="43.61575" lon="3.34368">
        <ele>265.20001220703</ele>
        <time>2019-12-12T14:15:26Z</time>
      </trkpt>
      <trkpt lat="43.61577" lon="3.34388">
        <ele>264</ele>
        <time>2019-12-12T14:15:28Z</time>
      </trkpt>
      <trkpt lat="43.61579" lon="3.34406">
        <ele>262.79998779297</ele>
        <time>2019-12-12T14:15:30Z</time>
      </trkpt>
      <trkpt lat="43.61579" lon="3.34415">
        <ele>262.20001220703</ele>
        <time>2019-12-12T14:15:31Z</time>
      </trkpt>
      <trkpt lat="43.61577" lon="3.34433">
        <ele>261.60000610352</ele>
        <time>2019-12-12T14:15:33Z</time>
      </trkpt>
      <trkpt lat="43.61575" lon="3.34442">
        <ele>261.39999389648</ele>
        <time>2019-12-12T14:15:34Z</time>
      </trkpt>
      <trkpt lat="43.61568" lon="3.34482">
        <ele>261.39999389648</ele>
        <time>2019-12-12T14:15:39Z</time>
      </trkpt>
      <trkpt lat="43.61567" lon="3.3449">
        <ele>261.20001220703</ele>
        <time>2019-12-12T14:15:40Z</time>
      </trkpt>
      <trkpt lat="43.61561" lon="3.34542">
        <ele>261</ele>
        <time>2019-12-12T14:15:46Z</time>
      </trkpt>
      <trkpt lat="43.61556" lon="3.34572">
        <ele>260.60000610352</ele>
        <time>2019-12-12T14:15:49Z</time>
      </trkpt>
      <trkpt lat="43.61557" lon="3.34594">
        <ele>260.39999389648</ele>
        <time>2019-12-12T14:15:51Z</time>
      </trkpt>
      <trkpt lat="43.6156" lon="3.34615">
        <ele>259.60000610352</ele>
        <time>2019-12-12T14:15:53Z</time>
      </trkpt>
      <trkpt lat="43.61567" lon="3.34655">
        <ele>257.79998779297</ele>
        <time>2019-12-12T14:15:57Z</time>
      </trkpt>
      <trkpt lat="43.61568" lon="3.34677">
        <ele>256.79998779297</ele>
        <time>2019-12-12T14:15:59Z</time>
      </trkpt>
      <trkpt lat="43.6157" lon="3.34701">
        <ele>256</ele>
        <time>2019-12-12T14:16:01Z</time>
      </trkpt>
      <trkpt lat="43.61572" lon="3.34713">
        <ele>255.60000610352</ele>
        <time>2019-12-12T14:16:02Z</time>
      </trkpt>
      <trkpt lat="43.61582" lon="3.34758">
        <ele>254.39999389648</ele>
        <time>2019-12-12T14:16:06Z</time>
      </trkpt>
      <trkpt lat="43.61588" lon="3.34779">
        <ele>252.80000305176</ele>
        <time>2019-12-12T14:16:08Z</time>
      </trkpt>
      <trkpt lat="43.61594" lon="3.34799">
        <ele>251.39999389648</ele>
        <time>2019-12-12T14:16:10Z</time>
      </trkpt>
      <trkpt lat="43.61602" lon="3.34815">
        <ele>250.80000305176</ele>
        <time>2019-12-12T14:16:12Z</time>
      </trkpt>
      <trkpt lat="43.6161" lon="3.34828">
        <ele>250.39999389648</ele>
        <time>2019-12-12T14:16:14Z</time>
      </trkpt>
      <trkpt lat="43.61622" lon="3.34837">
        <ele>249.80000305176</ele>
        <time>2019-12-12T14:16:16Z</time>
      </trkpt>
      <trkpt lat="43.61637" lon="3.34848">
        <ele>249</ele>
        <time>2019-12-12T14:16:19Z</time>
      </trkpt>
      <trkpt lat="43.6165" lon="3.34864">
        <ele>248.60000610352</ele>
        <time>2019-12-12T14:16:22Z</time>
      </trkpt>
      <trkpt lat="43.61654" lon="3.34886">
        <ele>248</ele>
        <time>2019-12-12T14:16:25Z</time>
      </trkpt>
      <trkpt lat="43.61653" lon="3.34893">
        <ele>247.80000305176</ele>
        <time>2019-12-12T14:16:26Z</time>
      </trkpt>
      <trkpt lat="43.61653" lon="3.34908">
        <ele>247.80000305176</ele>
        <time>2019-12-12T14:16:28Z</time>
      </trkpt>
      <trkpt lat="43.61655" lon="3.34929">
        <ele>247.80000305176</ele>
        <time>2019-12-12T14:16:31Z</time>
      </trkpt>
      <trkpt lat="43.61661" lon="3.34982">
        <ele>249.19999694824</ele>
        <time>2019-12-12T14:16:39Z</time>
      </trkpt>
      <trkpt lat="43.61666" lon="3.34996">
        <ele>250.19999694824</ele>
        <time>2019-12-12T14:16:42Z</time>
      </trkpt>
      <trkpt lat="43.61673" lon="3.3501">
        <ele>251</ele>
        <time>2019-12-12T14:16:45Z</time>
      </trkpt>
      <trkpt lat="43.61676" lon="3.35015">
        <ele>251.39999389648</ele>
        <time>2019-12-12T14:16:46Z</time>
      </trkpt>
      <trkpt lat="43.61696" lon="3.35046">
        <ele>251.80000305176</ele>
        <time>2019-12-12T14:16:52Z</time>
      </trkpt>
      <trkpt lat="43.61725" lon="3.35093">
        <ele>250.80000305176</ele>
        <time>2019-12-12T14:17:00Z</time>
      </trkpt>
      <trkpt lat="43.61732" lon="3.35105">
        <ele>250.39999389648</ele>
        <time>2019-12-12T14:17:02Z</time>
      </trkpt>
      <trkpt lat="43.61743" lon="3.35122">
        <ele>249.39999389648</ele>
        <time>2019-12-12T14:17:05Z</time>
      </trkpt>
      <trkpt lat="43.61752" lon="3.35138">
        <ele>249.19999694824</ele>
        <time>2019-12-12T14:17:08Z</time>
      </trkpt>
      <trkpt lat="43.61774" lon="3.3518">
        <ele>249.39999389648</ele>
        <time>2019-12-12T14:17:16Z</time>
      </trkpt>
      <trkpt lat="43.61794" lon="3.35213">
        <ele>250</ele>
        <time>2019-12-12T14:17:23Z</time>
      </trkpt>
      <trkpt lat="43.61814" lon="3.35252">
        <ele>250.19999694824</ele>
        <time>2019-12-12T14:17:29Z</time>
      </trkpt>
      <trkpt lat="43.61823" lon="3.35275">
        <ele>250</ele>
        <time>2019-12-12T14:17:32Z</time>
      </trkpt>
      <trkpt lat="43.61827" lon="3.35293">
        <ele>249.19999694824</ele>
        <time>2019-12-12T14:17:34Z</time>
      </trkpt>
      <trkpt lat="43.61829" lon="3.35323">
        <ele>247.80000305176</ele>
        <time>2019-12-12T14:17:37Z</time>
      </trkpt>
      <trkpt lat="43.6183" lon="3.35353">
        <ele>246.39999389648</ele>
        <time>2019-12-12T14:17:40Z</time>
      </trkpt>
      <trkpt lat="43.6183" lon="3.35362">
        <ele>245.80000305176</ele>
        <time>2019-12-12T14:17:41Z</time>
      </trkpt>
      <trkpt lat="43.61831" lon="3.35372">
        <ele>245.19999694824</ele>
        <time>2019-12-12T14:17:42Z</time>
      </trkpt>
      <trkpt lat="43.61834" lon="3.35392">
        <ele>244.19999694824</ele>
        <time>2019-12-12T14:17:44Z</time>
      </trkpt>
      <trkpt lat="43.61836" lon="3.35401">
        <ele>243.60000610352</ele>
        <time>2019-12-12T14:17:45Z</time>
      </trkpt>
      <trkpt lat="43.61839" lon="3.35411">
        <ele>243</ele>
        <time>2019-12-12T14:17:46Z</time>
      </trkpt>
      <trkpt lat="43.61845" lon="3.35429">
        <ele>242.19999694824</ele>
        <time>2019-12-12T14:17:48Z</time>
      </trkpt>
      <trkpt lat="43.61855" lon="3.35453">
        <ele>241.80000305176</ele>
        <time>2019-12-12T14:17:51Z</time>
      </trkpt>
      <trkpt lat="43.61858" lon="3.3546">
        <ele>241.60000610352</ele>
        <time>2019-12-12T14:17:52Z</time>
      </trkpt>
      <trkpt lat="43.61859" lon="3.35477">
        <ele>241.19999694824</ele>
        <time>2019-12-12T14:17:54Z</time>
      </trkpt>
      <trkpt lat="43.61853" lon="3.355">
        <ele>240</ele>
        <time>2019-12-12T14:17:57Z</time>
      </trkpt>
      <trkpt lat="43.61851" lon="3.35508">
        <ele>239.80000305176</ele>
        <time>2019-12-12T14:17:58Z</time>
      </trkpt>
      <trkpt lat="43.61835" lon="3.35548">
        <ele>239.19999694824</ele>
        <time>2019-12-12T14:18:03Z</time>
      </trkpt>
      <trkpt lat="43.61833" lon="3.35557">
        <ele>239</ele>
        <time>2019-12-12T14:18:04Z</time>
      </trkpt>
      <trkpt lat="43.61832" lon="3.35566">
        <ele>239</ele>
        <time>2019-12-12T14:18:05Z</time>
      </trkpt>
      <trkpt lat="43.61836" lon="3.35584">
        <ele>238.60000610352</ele>
        <time>2019-12-12T14:18:07Z</time>
      </trkpt>
      <trkpt lat="43.6184" lon="3.35592">
        <ele>238.19999694824</ele>
        <time>2019-12-12T14:18:08Z</time>
      </trkpt>
      <trkpt lat="43.61843" lon="3.356">
        <ele>237.60000610352</ele>
        <time>2019-12-12T14:18:09Z</time>
      </trkpt>
      <trkpt lat="43.61849" lon="3.35616">
        <ele>236.39999389648</ele>
        <time>2019-12-12T14:18:11Z</time>
      </trkpt>
      <trkpt lat="43.6185" lon="3.35624">
        <ele>235.80000305176</ele>
        <time>2019-12-12T14:18:12Z</time>
      </trkpt>
      <trkpt lat="43.61851" lon="3.35654">
        <ele>235.19999694824</ele>
        <time>2019-12-12T14:18:16Z</time>
      </trkpt>
      <trkpt lat="43.6185" lon="3.3566">
        <ele>235.19999694824</ele>
        <time>2019-12-12T14:18:17Z</time>
      </trkpt>
      <trkpt lat="43.61842" lon="3.35693">
        <ele>235.19999694824</ele>
        <time>2019-12-12T14:18:22Z</time>
      </trkpt>
      <trkpt lat="43.61829" lon="3.35734">
        <ele>235.39999389648</ele>
        <time>2019-12-12T14:18:27Z</time>
      </trkpt>
      <trkpt lat="43.61821" lon="3.35762">
        <ele>235.39999389648</ele>
        <time>2019-12-12T14:18:30Z</time>
      </trkpt>
      <trkpt lat="43.61811" lon="3.35789">
        <ele>235</ele>
        <time>2019-12-12T14:18:33Z</time>
      </trkpt>
      <trkpt lat="43.61805" lon="3.35806">
        <ele>234.19999694824</ele>
        <time>2019-12-12T14:18:35Z</time>
      </trkpt>
      <trkpt lat="43.61797" lon="3.35831">
        <ele>233.19999694824</ele>
        <time>2019-12-12T14:18:38Z</time>
      </trkpt>
      <trkpt lat="43.6179" lon="3.35856">
        <ele>232.19999694824</ele>
        <time>2019-12-12T14:18:41Z</time>
      </trkpt>
      <trkpt lat="43.61787" lon="3.35865">
        <ele>232</ele>
        <time>2019-12-12T14:18:42Z</time>
      </trkpt>
      <trkpt lat="43.61773" lon="3.3591">
        <ele>231.19999694824</ele>
        <time>2019-12-12T14:18:48Z</time>
      </trkpt>
      <trkpt lat="43.61771" lon="3.35918">
        <ele>231</ele>
        <time>2019-12-12T14:18:49Z</time>
      </trkpt>
      <trkpt lat="43.61769" lon="3.35926">
        <ele>230.80000305176</ele>
        <time>2019-12-12T14:18:50Z</time>
      </trkpt>
      <trkpt lat="43.61753" lon="3.35987">
        <ele>230</ele>
        <time>2019-12-12T14:18:58Z</time>
      </trkpt>
      <trkpt lat="43.61751" lon="3.35995">
        <ele>229.80000305176</ele>
        <time>2019-12-12T14:18:59Z</time>
      </trkpt>
      <trkpt lat="43.61743" lon="3.36029">
        <ele>229</ele>
        <time>2019-12-12T14:19:03Z</time>
      </trkpt>
      <trkpt lat="43.61737" lon="3.36055">
        <ele>228</ele>
        <time>2019-12-12T14:19:06Z</time>
      </trkpt>
      <trkpt lat="43.61735" lon="3.36064">
        <ele>227.60000610352</ele>
        <time>2019-12-12T14:19:07Z</time>
      </trkpt>
      <trkpt lat="43.61734" lon="3.36074">
        <ele>227.19999694824</ele>
        <time>2019-12-12T14:19:08Z</time>
      </trkpt>
      <trkpt lat="43.61728" lon="3.36103">
        <ele>226.39999389648</ele>
        <time>2019-12-12T14:19:11Z</time>
      </trkpt>
      <trkpt lat="43.61725" lon="3.36112">
        <ele>226.19999694824</ele>
        <time>2019-12-12T14:19:12Z</time>
      </trkpt>
      <trkpt lat="43.61723" lon="3.36121">
        <ele>226</ele>
        <time>2019-12-12T14:19:13Z</time>
      </trkpt>
      <trkpt lat="43.61721" lon="3.36153">
        <ele>225.60000610352</ele>
        <time>2019-12-12T14:19:16Z</time>
      </trkpt>
      <trkpt lat="43.61722" lon="3.36163">
        <ele>225.19999694824</ele>
        <time>2019-12-12T14:19:17Z</time>
      </trkpt>
      <trkpt lat="43.61723" lon="3.36174">
        <ele>225</ele>
        <time>2019-12-12T14:19:18Z</time>
      </trkpt>
      <trkpt lat="43.61726" lon="3.36194">
        <ele>224</ele>
        <time>2019-12-12T14:19:20Z</time>
      </trkpt>
      <trkpt lat="43.61728" lon="3.36205">
        <ele>223.19999694824</ele>
        <time>2019-12-12T14:19:21Z</time>
      </trkpt>
      <trkpt lat="43.61729" lon="3.36215">
        <ele>222.80000305176</ele>
        <time>2019-12-12T14:19:22Z</time>
      </trkpt>
      <trkpt lat="43.61733" lon="3.36245">
        <ele>221.80000305176</ele>
        <time>2019-12-12T14:19:25Z</time>
      </trkpt>
      <trkpt lat="43.61732" lon="3.36265">
        <ele>221</ele>
        <time>2019-12-12T14:19:27Z</time>
      </trkpt>
      <trkpt lat="43.6173" lon="3.36274">
        <ele>220.80000305176</ele>
        <time>2019-12-12T14:19:28Z</time>
      </trkpt>
      <trkpt lat="43.61723" lon="3.3629">
        <ele>220</ele>
        <time>2019-12-12T14:19:30Z</time>
      </trkpt>
      <trkpt lat="43.61718" lon="3.36297">
        <ele>219.80000305176</ele>
        <time>2019-12-12T14:19:31Z</time>
      </trkpt>
      <trkpt lat="43.61713" lon="3.36303">
        <ele>219.19999694824</ele>
        <time>2019-12-12T14:19:32Z</time>
      </trkpt>
      <trkpt lat="43.617" lon="3.36322">
        <ele>218.60000610352</ele>
        <time>2019-12-12T14:19:35Z</time>
      </trkpt>
      <trkpt lat="43.61694" lon="3.36347">
        <ele>218</ele>
        <time>2019-12-12T14:19:38Z</time>
      </trkpt>
      <trkpt lat="43.61696" lon="3.36374">
        <ele>217.80000305176</ele>
        <time>2019-12-12T14:19:41Z</time>
      </trkpt>
      <trkpt lat="43.61698" lon="3.36393">
        <ele>217.60000610352</ele>
        <time>2019-12-12T14:19:43Z</time>
      </trkpt>
      <trkpt lat="43.617" lon="3.36413">
        <ele>217.60000610352</ele>
        <time>2019-12-12T14:19:45Z</time>
      </trkpt>
      <trkpt lat="43.61701" lon="3.36423">
        <ele>217.60000610352</ele>
        <time>2019-12-12T14:19:46Z</time>
      </trkpt>
      <trkpt lat="43.617" lon="3.36442">
        <ele>217.39999389648</ele>
        <time>2019-12-12T14:19:48Z</time>
      </trkpt>
      <trkpt lat="43.61694" lon="3.36493">
        <ele>216.39999389648</ele>
        <time>2019-12-12T14:19:53Z</time>
      </trkpt>
      <trkpt lat="43.6169" lon="3.36524">
        <ele>216</ele>
        <time>2019-12-12T14:19:56Z</time>
      </trkpt>
      <trkpt lat="43.6168" lon="3.36572">
        <ele>215.19999694824</ele>
        <time>2019-12-12T14:20:01Z</time>
      </trkpt>
      <trkpt lat="43.61677" lon="3.36581">
        <ele>215</ele>
        <time>2019-12-12T14:20:02Z</time>
      </trkpt>
      <trkpt lat="43.6166" lon="3.36631">
        <ele>214</ele>
        <time>2019-12-12T14:20:08Z</time>
      </trkpt>
      <trkpt lat="43.61656" lon="3.36651">
        <ele>213</ele>
        <time>2019-12-12T14:20:11Z</time>
      </trkpt>
      <trkpt lat="43.61656" lon="3.36659">
        <ele>212.80000305176</ele>
        <time>2019-12-12T14:20:12Z</time>
      </trkpt>
      <trkpt lat="43.61657" lon="3.36667">
        <ele>212.60000610352</ele>
        <time>2019-12-12T14:20:13Z</time>
      </trkpt>
      <trkpt lat="43.61671" lon="3.36687">
        <ele>212</ele>
        <time>2019-12-12T14:20:16Z</time>
      </trkpt>
      <trkpt lat="43.61684" lon="3.36704">
        <ele>211.60000610352</ele>
        <time>2019-12-12T14:20:19Z</time>
      </trkpt>
      <trkpt lat="43.61686" lon="3.36712">
        <ele>211.39999389648</ele>
        <time>2019-12-12T14:20:20Z</time>
      </trkpt>
      <trkpt lat="43.61688" lon="3.36721">
        <ele>211</ele>
        <time>2019-12-12T14:20:21Z</time>
      </trkpt>
      <trkpt lat="43.61691" lon="3.36729">
        <ele>209.80000305176</ele>
        <time>2019-12-12T14:20:22Z</time>
      </trkpt>
      <trkpt lat="43.61693" lon="3.36738">
        <ele>208.80000305176</ele>
        <time>2019-12-12T14:20:23Z</time>
      </trkpt>
      <trkpt lat="43.61694" lon="3.36746">
        <ele>208</ele>
        <time>2019-12-12T14:20:24Z</time>
      </trkpt>
      <trkpt lat="43.61695" lon="3.36764">
        <ele>207</ele>
        <time>2019-12-12T14:20:26Z</time>
      </trkpt>
      <trkpt lat="43.61695" lon="3.36772">
        <ele>206.80000305176</ele>
        <time>2019-12-12T14:20:27Z</time>
      </trkpt>
      <trkpt lat="43.61695" lon="3.3678">
        <ele>206.80000305176</ele>
        <time>2019-12-12T14:20:28Z</time>
      </trkpt>
      <trkpt lat="43.61694" lon="3.36832">
        <ele>206.60000610352</ele>
        <time>2019-12-12T14:20:35Z</time>
      </trkpt>
      <trkpt lat="43.61696" lon="3.36875">
        <ele>208</ele>
        <time>2019-12-12T14:20:42Z</time>
      </trkpt>
      <trkpt lat="43.61701" lon="3.369">
        <ele>209.19999694824</ele>
        <time>2019-12-12T14:20:46Z</time>
      </trkpt>
      <trkpt lat="43.61706" lon="3.36924">
        <ele>210</ele>
        <time>2019-12-12T14:20:50Z</time>
      </trkpt>
      <trkpt lat="43.61707" lon="3.3693">
        <ele>210.39999389648</ele>
        <time>2019-12-12T14:20:51Z</time>
      </trkpt>
      <trkpt lat="43.61712" lon="3.36971">
        <ele>211.80000305176</ele>
        <time>2019-12-12T14:20:58Z</time>
      </trkpt>
      <trkpt lat="43.61712" lon="3.36977">
        <ele>212</ele>
        <time>2019-12-12T14:20:59Z</time>
      </trkpt>
      <trkpt lat="43.61714" lon="3.36988">
        <ele>212.80000305176</ele>
        <time>2019-12-12T14:21:01Z</time>
      </trkpt>
      <trkpt lat="43.61719" lon="3.37026">
        <ele>214</ele>
        <time>2019-12-12T14:21:08Z</time>
      </trkpt>
      <trkpt lat="43.6172" lon="3.37031">
        <ele>214.19999694824</ele>
        <time>2019-12-12T14:21:09Z</time>
      </trkpt>
      <trkpt lat="43.61725" lon="3.37056">
        <ele>215</ele>
        <time>2019-12-12T14:21:15Z</time>
      </trkpt>
      <trkpt lat="43.61726" lon="3.3706">
        <ele>215.19999694824</ele>
        <time>2019-12-12T14:21:16Z</time>
      </trkpt>
      <trkpt lat="43.6173" lon="3.37074">
        <ele>216.80000305176</ele>
        <time>2019-12-12T14:21:20Z</time>
      </trkpt>
      <trkpt lat="43.61734" lon="3.37086">
        <ele>217.80000305176</ele>
        <time>2019-12-12T14:21:23Z</time>
      </trkpt>
      <trkpt lat="43.61735" lon="3.37091">
        <ele>218.19999694824</ele>
        <time>2019-12-12T14:21:24Z</time>
      </trkpt>
      <trkpt lat="43.61736" lon="3.37101">
        <ele>219</ele>
        <time>2019-12-12T14:21:26Z</time>
      </trkpt>
      <trkpt lat="43.61737" lon="3.37106">
        <ele>219.39999389648</ele>
        <time>2019-12-12T14:21:27Z</time>
      </trkpt>
      <trkpt lat="43.61738" lon="3.37118">
        <ele>220</ele>
        <time>2019-12-12T14:21:29Z</time>
      </trkpt>
      <trkpt lat="43.61738" lon="3.37129">
        <ele>221.19999694824</ele>
        <time>2019-12-12T14:21:31Z</time>
      </trkpt>
      <trkpt lat="43.6174" lon="3.37148">
        <ele>222.60000610352</ele>
        <time>2019-12-12T14:21:34Z</time>
      </trkpt>
      <trkpt lat="43.61742" lon="3.37162">
        <ele>223.60000610352</ele>
        <time>2019-12-12T14:21:36Z</time>
      </trkpt>
      <trkpt lat="43.61744" lon="3.37168">
        <ele>224.19999694824</ele>
        <time>2019-12-12T14:21:37Z</time>
      </trkpt>
      <trkpt lat="43.61749" lon="3.37181">
        <ele>225.19999694824</ele>
        <time>2019-12-12T14:21:39Z</time>
      </trkpt>
      <trkpt lat="43.61752" lon="3.37186">
        <ele>225.80000305176</ele>
        <time>2019-12-12T14:21:40Z</time>
      </trkpt>
      <trkpt lat="43.61754" lon="3.37192">
        <ele>226.39999389648</ele>
        <time>2019-12-12T14:21:41Z</time>
      </trkpt>
      <trkpt lat="43.61756" lon="3.37197">
        <ele>227</ele>
        <time>2019-12-12T14:21:42Z</time>
      </trkpt>
      <trkpt lat="43.61759" lon="3.37208">
        <ele>227.80000305176</ele>
        <time>2019-12-12T14:21:44Z</time>
      </trkpt>
      <trkpt lat="43.6176" lon="3.37224">
        <ele>228.80000305176</ele>
        <time>2019-12-12T14:21:47Z</time>
      </trkpt>
      <trkpt lat="43.6176" lon="3.37229">
        <ele>229.19999694824</ele>
        <time>2019-12-12T14:21:48Z</time>
      </trkpt>
      <trkpt lat="43.61761" lon="3.37239">
        <ele>230.39999389648</ele>
        <time>2019-12-12T14:21:50Z</time>
      </trkpt>
      <trkpt lat="43.61762" lon="3.37253">
        <ele>231.39999389648</ele>
        <time>2019-12-12T14:21:53Z</time>
      </trkpt>
      <trkpt lat="43.61763" lon="3.37258">
        <ele>231.60000610352</ele>
        <time>2019-12-12T14:21:54Z</time>
      </trkpt>
      <trkpt lat="43.61773" lon="3.37293">
        <ele>232</ele>
        <time>2019-12-12T14:22:01Z</time>
      </trkpt>
      <trkpt lat="43.61777" lon="3.37334">
        <ele>232.19999694824</ele>
        <time>2019-12-12T14:22:09Z</time>
      </trkpt>
      <trkpt lat="43.61776" lon="3.37353">
        <ele>233</ele>
        <time>2019-12-12T14:22:13Z</time>
      </trkpt>
      <trkpt lat="43.61776" lon="3.37366">
        <ele>233.80000305176</ele>
        <time>2019-12-12T14:22:15Z</time>
      </trkpt>
      <trkpt lat="43.61776" lon="3.37373">
        <ele>234.19999694824</ele>
        <time>2019-12-12T14:22:16Z</time>
      </trkpt>
      <trkpt lat="43.61775" lon="3.37387">
        <ele>235.39999389648</ele>
        <time>2019-12-12T14:22:18Z</time>
      </trkpt>
      <trkpt lat="43.61775" lon="3.37413">
        <ele>236.39999389648</ele>
        <time>2019-12-12T14:22:22Z</time>
      </trkpt>
      <trkpt lat="43.61776" lon="3.37419">
        <ele>236.60000610352</ele>
        <time>2019-12-12T14:22:23Z</time>
      </trkpt>
      <trkpt lat="43.6178" lon="3.37427">
        <ele>236.80000305176</ele>
        <time>2019-12-12T14:22:25Z</time>
      </trkpt>
      <trkpt lat="43.61783" lon="3.37436">
        <ele>238</ele>
        <time>2019-12-12T14:22:28Z</time>
      </trkpt>
      <trkpt lat="43.61784" lon="3.37438">
        <ele>238.39999389648</ele>
        <time>2019-12-12T14:22:29Z</time>
      </trkpt>
      <trkpt lat="43.61785" lon="3.37444">
        <ele>239.19999694824</ele>
        <time>2019-12-12T14:22:31Z</time>
      </trkpt>
      <trkpt lat="43.61789" lon="3.37454">
        <ele>240.80000305176</ele>
        <time>2019-12-12T14:22:34Z</time>
      </trkpt>
      <trkpt lat="43.61791" lon="3.37457">
        <ele>241.19999694824</ele>
        <time>2019-12-12T14:22:35Z</time>
      </trkpt>
      <trkpt lat="43.61794" lon="3.37464">
        <ele>241.80000305176</ele>
        <time>2019-12-12T14:22:37Z</time>
      </trkpt>
      <trkpt lat="43.61803" lon="3.37483">
        <ele>242.39999389648</ele>
        <time>2019-12-12T14:22:42Z</time>
      </trkpt>
      <trkpt lat="43.6182" lon="3.37513">
        <ele>243</ele>
        <time>2019-12-12T14:22:50Z</time>
      </trkpt>
      <trkpt lat="43.61833" lon="3.37524">
        <ele>243.60000610352</ele>
        <time>2019-12-12T14:22:55Z</time>
      </trkpt>
      <trkpt lat="43.61846" lon="3.37533">
        <ele>244.19999694824</ele>
        <time>2019-12-12T14:22:59Z</time>
      </trkpt>
      <trkpt lat="43.61854" lon="3.37541">
        <ele>245.19999694824</ele>
        <time>2019-12-12T14:23:02Z</time>
      </trkpt>
      <trkpt lat="43.61857" lon="3.37544">
        <ele>245.39999389648</ele>
        <time>2019-12-12T14:23:03Z</time>
      </trkpt>
      <trkpt lat="43.61868" lon="3.37567">
        <ele>245.80000305176</ele>
        <time>2019-12-12T14:23:09Z</time>
      </trkpt>
      <trkpt lat="43.6187" lon="3.37589">
        <ele>246.39999389648</ele>
        <time>2019-12-12T14:23:14Z</time>
      </trkpt>
      <trkpt lat="43.61871" lon="3.37595">
        <ele>246.80000305176</ele>
        <time>2019-12-12T14:23:15Z</time>
      </trkpt>
      <trkpt lat="43.61872" lon="3.37624">
        <ele>247.80000305176</ele>
        <time>2019-12-12T14:23:19Z</time>
      </trkpt>
      <trkpt lat="43.61872" lon="3.37645">
        <ele>249.39999389648</ele>
        <time>2019-12-12T14:23:22Z</time>
      </trkpt>
      <trkpt lat="43.61873" lon="3.37657">
        <ele>249.80000305176</ele>
        <time>2019-12-12T14:23:24Z</time>
      </trkpt>
      <trkpt lat="43.61874" lon="3.37663">
        <ele>250</ele>
        <time>2019-12-12T14:23:25Z</time>
      </trkpt>
      <trkpt lat="43.61881" lon="3.37676">
        <ele>250.19999694824</ele>
        <time>2019-12-12T14:23:28Z</time>
      </trkpt>
      <trkpt lat="43.61883" lon="3.3768">
        <ele>250.60000610352</ele>
        <time>2019-12-12T14:23:29Z</time>
      </trkpt>
      <trkpt lat="43.61886" lon="3.37682">
        <ele>250.80000305176</ele>
        <time>2019-12-12T14:23:30Z</time>
      </trkpt>
      <trkpt lat="43.61893" lon="3.37689">
        <ele>252</ele>
        <time>2019-12-12T14:23:33Z</time>
      </trkpt>
      <trkpt lat="43.61898" lon="3.37695">
        <ele>252.80000305176</ele>
        <time>2019-12-12T14:23:36Z</time>
      </trkpt>
      <trkpt lat="43.619" lon="3.37697">
        <ele>253</ele>
        <time>2019-12-12T14:23:37Z</time>
      </trkpt>
      <trkpt lat="43.61912" lon="3.37707">
        <ele>254</ele>
        <time>2019-12-12T14:23:42Z</time>
      </trkpt>
      <trkpt lat="43.61937" lon="3.37722">
        <ele>254.60000610352</ele>
        <time>2019-12-12T14:23:51Z</time>
      </trkpt>
      <trkpt lat="43.61952" lon="3.37738">
        <ele>254.60000610352</ele>
        <time>2019-12-12T14:23:57Z</time>
      </trkpt>
      <trkpt lat="43.61966" lon="3.37755">
        <ele>254.80000305176</ele>
        <time>2019-12-12T14:24:02Z</time>
      </trkpt>
      <trkpt lat="43.61972" lon="3.37773">
        <ele>254.80000305176</ele>
        <time>2019-12-12T14:24:06Z</time>
      </trkpt>
      <trkpt lat="43.61979" lon="3.37796">
        <ele>255.19999694824</ele>
        <time>2019-12-12T14:24:11Z</time>
      </trkpt>
      <trkpt lat="43.61983" lon="3.37807">
        <ele>255.39999389648</ele>
        <time>2019-12-12T14:24:13Z</time>
      </trkpt>
      <trkpt lat="43.61992" lon="3.37836">
        <ele>255.60000610352</ele>
        <time>2019-12-12T14:24:17Z</time>
      </trkpt>
      <trkpt lat="43.61994" lon="3.37846">
        <ele>255.60000610352</ele>
        <time>2019-12-12T14:24:18Z</time>
      </trkpt>
      <trkpt lat="43.62004" lon="3.37906">
        <ele>255</ele>
        <time>2019-12-12T14:24:23Z</time>
      </trkpt>
      <trkpt lat="43.6201" lon="3.37932">
        <ele>253.39999389648</ele>
        <time>2019-12-12T14:24:25Z</time>
      </trkpt>
      <trkpt lat="43.62013" lon="3.37944">
        <ele>252.19999694824</ele>
        <time>2019-12-12T14:24:26Z</time>
      </trkpt>
      <trkpt lat="43.62017" lon="3.37956">
        <ele>251.19999694824</ele>
        <time>2019-12-12T14:24:27Z</time>
      </trkpt>
      <trkpt lat="43.62021" lon="3.37967">
        <ele>249.80000305176</ele>
        <time>2019-12-12T14:24:28Z</time>
      </trkpt>
      <trkpt lat="43.62025" lon="3.37978">
        <ele>248.39999389648</ele>
        <time>2019-12-12T14:24:29Z</time>
      </trkpt>
      <trkpt lat="43.62029" lon="3.37989">
        <ele>247.19999694824</ele>
        <time>2019-12-12T14:24:30Z</time>
      </trkpt>
      <trkpt lat="43.62039" lon="3.38012">
        <ele>246.19999694824</ele>
        <time>2019-12-12T14:24:32Z</time>
      </trkpt>
      <trkpt lat="43.62047" lon="3.38036">
        <ele>245.19999694824</ele>
        <time>2019-12-12T14:24:34Z</time>
      </trkpt>
      <trkpt lat="43.62054" lon="3.3808">
        <ele>243.80000305176</ele>
        <time>2019-12-12T14:24:38Z</time>
      </trkpt>
      <trkpt lat="43.62061" lon="3.38124">
        <ele>242.80000305176</ele>
        <time>2019-12-12T14:24:43Z</time>
      </trkpt>
      <trkpt lat="43.62062" lon="3.38136">
        <ele>242.60000610352</ele>
        <time>2019-12-12T14:24:44Z</time>
      </trkpt>
      <trkpt lat="43.62067" lon="3.38176">
        <ele>242</ele>
        <time>2019-12-12T14:24:47Z</time>
      </trkpt>
      <trkpt lat="43.62069" lon="3.38205">
        <ele>241.60000610352</ele>
        <time>2019-12-12T14:24:49Z</time>
      </trkpt>
      <trkpt lat="43.62067" lon="3.38218">
        <ele>241.39999389648</ele>
        <time>2019-12-12T14:24:50Z</time>
      </trkpt>
      <trkpt lat="43.62057" lon="3.38257">
        <ele>240.19999694824</ele>
        <time>2019-12-12T14:24:53Z</time>
      </trkpt>
      <trkpt lat="43.62054" lon="3.3827">
        <ele>239.60000610352</ele>
        <time>2019-12-12T14:24:54Z</time>
      </trkpt>
      <trkpt lat="43.62051" lon="3.38283">
        <ele>238.39999389648</ele>
        <time>2019-12-12T14:24:55Z</time>
      </trkpt>
      <trkpt lat="43.62049" lon="3.38295">
        <ele>237</ele>
        <time>2019-12-12T14:24:56Z</time>
      </trkpt>
      <trkpt lat="43.62046" lon="3.38307">
        <ele>235.60000610352</ele>
        <time>2019-12-12T14:24:57Z</time>
      </trkpt>
      <trkpt lat="43.62042" lon="3.38332">
        <ele>233.60000610352</ele>
        <time>2019-12-12T14:24:59Z</time>
      </trkpt>
      <trkpt lat="43.6204" lon="3.38343">
        <ele>232.39999389648</ele>
        <time>2019-12-12T14:25:00Z</time>
      </trkpt>
      <trkpt lat="43.62039" lon="3.38355">
        <ele>231.19999694824</ele>
        <time>2019-12-12T14:25:01Z</time>
      </trkpt>
      <trkpt lat="43.62037" lon="3.38379">
        <ele>230</ele>
        <time>2019-12-12T14:25:03Z</time>
      </trkpt>
      <trkpt lat="43.62033" lon="3.38426">
        <ele>229.19999694824</ele>
        <time>2019-12-12T14:25:07Z</time>
      </trkpt>
      <trkpt lat="43.62032" lon="3.3845">
        <ele>229</ele>
        <time>2019-12-12T14:25:09Z</time>
      </trkpt>
      <trkpt lat="43.62032" lon="3.38497">
        <ele>228.60000610352</ele>
        <time>2019-12-12T14:25:13Z</time>
      </trkpt>
      <trkpt lat="43.62031" lon="3.38552">
        <ele>228.19999694824</ele>
        <time>2019-12-12T14:25:18Z</time>
      </trkpt>
      <trkpt lat="43.62026" lon="3.38596">
        <ele>228.19999694824</ele>
        <time>2019-12-12T14:25:23Z</time>
      </trkpt>
      <trkpt lat="43.62022" lon="3.38635">
        <ele>228.39999389648</ele>
        <time>2019-12-12T14:25:29Z</time>
      </trkpt>
      <trkpt lat="43.62024" lon="3.38642">
        <ele>228.80000305176</ele>
        <time>2019-12-12T14:25:30Z</time>
      </trkpt>
      <trkpt lat="43.62036" lon="3.38653">
        <ele>230</ele>
        <time>2019-12-12T14:25:33Z</time>
      </trkpt>
      <trkpt lat="43.62047" lon="3.38653">
        <ele>230.60000610352</ele>
        <time>2019-12-12T14:25:34Z</time>
      </trkpt>
      <trkpt lat="43.62047" lon="3.38653">
        <ele>231</ele>
        <time>2019-12-12T14:25:35Z</time>
      </trkpt>
      <trkpt lat="43.62065" lon="3.38652">
        <ele>231.80000305176</ele>
        <time>2019-12-12T14:25:37Z</time>
      </trkpt>
      <trkpt lat="43.62065" lon="3.38652">
        <ele>232.19999694824</ele>
        <time>2019-12-12T14:25:38Z</time>
      </trkpt>
      <trkpt lat="43.6208" lon="3.38646">
        <ele>233.39999389648</ele>
        <time>2019-12-12T14:25:40Z</time>
      </trkpt>
      <trkpt lat="43.62085" lon="3.38645">
        <ele>233.80000305176</ele>
        <time>2019-12-12T14:25:42Z</time>
      </trkpt>
      <trkpt lat="43.6209" lon="3.38645">
        <ele>233.80000305176</ele>
        <time>2019-12-12T14:25:43Z</time>
      </trkpt>
      <trkpt lat="43.62095" lon="3.38653">
        <ele>234.19999694824</ele>
        <time>2019-12-12T14:25:45Z</time>
      </trkpt>
      <trkpt lat="43.62095" lon="3.38659">
        <ele>234.39999389648</ele>
        <time>2019-12-12T14:25:46Z</time>
      </trkpt>
      <trkpt lat="43.62092" lon="3.38672">
        <ele>235</ele>
        <time>2019-12-12T14:25:48Z</time>
      </trkpt>
      <trkpt lat="43.62087" lon="3.38687">
        <ele>235.39999389648</ele>
        <time>2019-12-12T14:25:49Z</time>
      </trkpt>
      <trkpt lat="43.62079" lon="3.38712">
        <ele>237.19999694824</ele>
        <time>2019-12-12T14:25:52Z</time>
      </trkpt>
      <trkpt lat="43.62076" lon="3.3872">
        <ele>237.39999389648</ele>
        <time>2019-12-12T14:25:53Z</time>
      </trkpt>
      <trkpt lat="43.62066" lon="3.38741">
        <ele>238</ele>
        <time>2019-12-12T14:25:56Z</time>
      </trkpt>
      <trkpt lat="43.6206" lon="3.38756">
        <ele>238.19999694824</ele>
        <time>2019-12-12T14:25:59Z</time>
      </trkpt>
      <trkpt lat="43.62058" lon="3.38764">
        <ele>238.19999694824</ele>
        <time>2019-12-12T14:26:00Z</time>
      </trkpt>
      <trkpt lat="43.62053" lon="3.3878">
        <ele>238.19999694824</ele>
        <time>2019-12-12T14:26:01Z</time>
      </trkpt>
      <trkpt lat="43.62041" lon="3.38814">
        <ele>238</ele>
        <time>2019-12-12T14:26:06Z</time>
      </trkpt>
      <trkpt lat="43.62038" lon="3.38824">
        <ele>238</ele>
        <time>2019-12-12T14:26:07Z</time>
      </trkpt>
      <trkpt lat="43.62037" lon="3.38856">
        <ele>237.60000610352</ele>
        <time>2019-12-12T14:26:09Z</time>
      </trkpt>
      <trkpt lat="43.6204" lon="3.38866">
        <ele>237.19999694824</ele>
        <time>2019-12-12T14:26:10Z</time>
      </trkpt>
      <trkpt lat="43.6204" lon="3.38866">
        <ele>236.80000305176</ele>
        <time>2019-12-12T14:26:11Z</time>
      </trkpt>
      <trkpt lat="43.62043" lon="3.38875">
        <ele>236.19999694824</ele>
        <time>2019-12-12T14:26:12Z</time>
      </trkpt>
      <trkpt lat="43.62059" lon="3.38893">
        <ele>234.60000610352</ele>
        <time>2019-12-12T14:26:14Z</time>
      </trkpt>
      <trkpt lat="43.62059" lon="3.38893">
        <ele>234</ele>
        <time>2019-12-12T14:26:15Z</time>
      </trkpt>
      <trkpt lat="43.62065" lon="3.38898">
        <ele>233.39999389648</ele>
        <time>2019-12-12T14:26:16Z</time>
      </trkpt>
      <trkpt lat="43.62076" lon="3.38914">
        <ele>232.80000305176</ele>
        <time>2019-12-12T14:26:19Z</time>
      </trkpt>
      <trkpt lat="43.6208" lon="3.38938">
        <ele>232.80000305176</ele>
        <time>2019-12-12T14:26:22Z</time>
      </trkpt>
      <trkpt lat="43.62081" lon="3.38944">
        <ele>232.80000305176</ele>
        <time>2019-12-12T14:26:23Z</time>
      </trkpt>
      <trkpt lat="43.62082" lon="3.38957">
        <ele>232.60000610352</ele>
        <time>2019-12-12T14:26:25Z</time>
      </trkpt>
      <trkpt lat="43.62081" lon="3.38976">
        <ele>232.39999389648</ele>
        <time>2019-12-12T14:26:28Z</time>
      </trkpt>
      <trkpt lat="43.62081" lon="3.38983">
        <ele>232.39999389648</ele>
        <time>2019-12-12T14:26:29Z</time>
      </trkpt>
      <trkpt lat="43.62081" lon="3.39015">
        <ele>231.19999694824</ele>
        <time>2019-12-12T14:26:33Z</time>
      </trkpt>
      <trkpt lat="43.62081" lon="3.39025">
        <ele>230.60000610352</ele>
        <time>2019-12-12T14:26:34Z</time>
      </trkpt>
      <trkpt lat="43.62081" lon="3.39036">
        <ele>230</ele>
        <time>2019-12-12T14:26:35Z</time>
      </trkpt>
      <trkpt lat="43.62082" lon="3.39059">
        <ele>228</ele>
        <time>2019-12-12T14:26:37Z</time>
      </trkpt>
      <trkpt lat="43.62083" lon="3.39084">
        <ele>226.80000305176</ele>
        <time>2019-12-12T14:26:39Z</time>
      </trkpt>
      <trkpt lat="43.62085" lon="3.39111">
        <ele>225.39999389648</ele>
        <time>2019-12-12T14:26:41Z</time>
      </trkpt>
      <trkpt lat="43.62086" lon="3.3914">
        <ele>223.39999389648</ele>
        <time>2019-12-12T14:26:43Z</time>
      </trkpt>
      <trkpt lat="43.62086" lon="3.39155">
        <ele>222</ele>
        <time>2019-12-12T14:26:44Z</time>
      </trkpt>
      <trkpt lat="43.62087" lon="3.39169">
        <ele>220.60000610352</ele>
        <time>2019-12-12T14:26:45Z</time>
      </trkpt>
      <trkpt lat="43.62087" lon="3.39183">
        <ele>219.39999389648</ele>
        <time>2019-12-12T14:26:46Z</time>
      </trkpt>
      <trkpt lat="43.62087" lon="3.39197">
        <ele>218</ele>
        <time>2019-12-12T14:26:47Z</time>
      </trkpt>
      <trkpt lat="43.62087" lon="3.3921">
        <ele>216.60000610352</ele>
        <time>2019-12-12T14:26:48Z</time>
      </trkpt>
      <trkpt lat="43.62088" lon="3.39223">
        <ele>215</ele>
        <time>2019-12-12T14:26:49Z</time>
      </trkpt>
      <trkpt lat="43.62088" lon="3.39237">
        <ele>213.60000610352</ele>
        <time>2019-12-12T14:26:50Z</time>
      </trkpt>
      <trkpt lat="43.62088" lon="3.39251">
        <ele>212.39999389648</ele>
        <time>2019-12-12T14:26:51Z</time>
      </trkpt>
      <trkpt lat="43.62086" lon="3.39282">
        <ele>210.60000610352</ele>
        <time>2019-12-12T14:26:53Z</time>
      </trkpt>
      <trkpt lat="43.62083" lon="3.39312">
        <ele>209.80000305176</ele>
        <time>2019-12-12T14:26:55Z</time>
      </trkpt>
      <trkpt lat="43.62079" lon="3.39327">
        <ele>209.60000610352</ele>
        <time>2019-12-12T14:26:56Z</time>
      </trkpt>
      <trkpt lat="43.62065" lon="3.39355">
        <ele>209.19999694824</ele>
        <time>2019-12-12T14:26:58Z</time>
      </trkpt>
      <trkpt lat="43.62051" lon="3.39382">
        <ele>207.60000610352</ele>
        <time>2019-12-12T14:27:00Z</time>
      </trkpt>
      <trkpt lat="43.62045" lon="3.39396">
        <ele>206</ele>
        <time>2019-12-12T14:27:01Z</time>
      </trkpt>
      <trkpt lat="43.62041" lon="3.39411">
        <ele>205.19999694824</ele>
        <time>2019-12-12T14:27:02Z</time>
      </trkpt>
      <trkpt lat="43.62039" lon="3.39427">
        <ele>204.39999389648</ele>
        <time>2019-12-12T14:27:03Z</time>
      </trkpt>
      <trkpt lat="43.62037" lon="3.39461">
        <ele>202.60000610352</ele>
        <time>2019-12-12T14:27:05Z</time>
      </trkpt>
      <trkpt lat="43.62035" lon="3.39479">
        <ele>198.80000305176</ele>
        <time>2019-12-12T14:27:06Z</time>
      </trkpt>
      <trkpt lat="43.62032" lon="3.39496">
        <ele>196.39999389648</ele>
        <time>2019-12-12T14:27:07Z</time>
      </trkpt>
      <trkpt lat="43.62028" lon="3.39513">
        <ele>194.39999389648</ele>
        <time>2019-12-12T14:27:08Z</time>
      </trkpt>
      <trkpt lat="43.62025" lon="3.3953">
        <ele>193</ele>
        <time>2019-12-12T14:27:09Z</time>
      </trkpt>
      <trkpt lat="43.6202" lon="3.39546">
        <ele>191.39999389648</ele>
        <time>2019-12-12T14:27:10Z</time>
      </trkpt>
      <trkpt lat="43.62015" lon="3.39563">
        <ele>189.60000610352</ele>
        <time>2019-12-12T14:27:11Z</time>
      </trkpt>
      <trkpt lat="43.6201" lon="3.39579">
        <ele>187.60000610352</ele>
        <time>2019-12-12T14:27:12Z</time>
      </trkpt>
      <trkpt lat="43.62005" lon="3.39595">
        <ele>186</ele>
        <time>2019-12-12T14:27:13Z</time>
      </trkpt>
      <trkpt lat="43.61999" lon="3.3961">
        <ele>184.39999389648</ele>
        <time>2019-12-12T14:27:14Z</time>
      </trkpt>
      <trkpt lat="43.61991" lon="3.39624">
        <ele>182.60000610352</ele>
        <time>2019-12-12T14:27:15Z</time>
      </trkpt>
      <trkpt lat="43.61983" lon="3.39637">
        <ele>181</ele>
        <time>2019-12-12T14:27:16Z</time>
      </trkpt>
      <trkpt lat="43.61968" lon="3.39663">
        <ele>178.60000610352</ele>
        <time>2019-12-12T14:27:18Z</time>
      </trkpt>
      <trkpt lat="43.61961" lon="3.39676">
        <ele>177.60000610352</ele>
        <time>2019-12-12T14:27:19Z</time>
      </trkpt>
      <trkpt lat="43.61955" lon="3.39689">
        <ele>176.39999389648</ele>
        <time>2019-12-12T14:27:20Z</time>
      </trkpt>
      <trkpt lat="43.6195" lon="3.39703">
        <ele>175.39999389648</ele>
        <time>2019-12-12T14:27:21Z</time>
      </trkpt>
      <trkpt lat="43.61945" lon="3.39715">
        <ele>174.19999694824</ele>
        <time>2019-12-12T14:27:22Z</time>
      </trkpt>
      <trkpt lat="43.61941" lon="3.39724">
        <ele>173.19999694824</ele>
        <time>2019-12-12T14:27:23Z</time>
      </trkpt>
      <trkpt lat="43.61939" lon="3.3973">
        <ele>172.80000305176</ele>
        <time>2019-12-12T14:27:24Z</time>
      </trkpt>
      <trkpt lat="43.61938" lon="3.39734">
        <ele>172.60000610352</ele>
        <time>2019-12-12T14:27:25Z</time>
      </trkpt>
      <trkpt lat="43.61936" lon="3.39737">
        <ele>172.39999389648</ele>
        <time>2019-12-12T14:27:28Z</time>
      </trkpt>
      <trkpt lat="43.61935" lon="3.39738">
        <ele>175.60000610352</ele>
        <time>2019-12-12T14:27:51Z</time>
      </trkpt>
      <trkpt lat="43.61935" lon="3.39738">
        <ele>175.60000610352</ele>
        <time>2019-12-12T14:27:53Z</time>
      </trkpt>
      <trkpt lat="43.61936" lon="3.3974">
        <ele>175.80000305176</ele>
        <time>2019-12-12T14:28:05Z</time>
      </trkpt>
      <trkpt lat="43.61946" lon="3.39742">
        <ele>175.80000305176</ele>
        <time>2019-12-12T14:28:09Z</time>
      </trkpt>
      <trkpt lat="43.6195" lon="3.39743">
        <ele>175.80000305176</ele>
        <time>2019-12-12T14:28:10Z</time>
      </trkpt>
      <trkpt lat="43.61969" lon="3.3975">
        <ele>176</ele>
        <time>2019-12-12T14:28:15Z</time>
      </trkpt>
      <trkpt lat="43.62001" lon="3.39747">
        <ele>176.19999694824</ele>
        <time>2019-12-12T14:28:23Z</time>
      </trkpt>
      <trkpt lat="43.62012" lon="3.39745">
        <ele>176.60000610352</ele>
        <time>2019-12-12T14:28:26Z</time>
      </trkpt>
      <trkpt lat="43.62026" lon="3.39743">
        <ele>177.39999389648</ele>
        <time>2019-12-12T14:28:30Z</time>
      </trkpt>
      <trkpt lat="43.62033" lon="3.39742">
        <ele>178.39999389648</ele>
        <time>2019-12-12T14:28:32Z</time>
      </trkpt>
      <trkpt lat="43.62048" lon="3.3974">
        <ele>179.60000610352</ele>
        <time>2019-12-12T14:28:37Z</time>
      </trkpt>
      <trkpt lat="43.62051" lon="3.3974">
        <ele>180</ele>
        <time>2019-12-12T14:28:38Z</time>
      </trkpt>
      <trkpt lat="43.62059" lon="3.39739">
        <ele>180.80000305176</ele>
        <time>2019-12-12T14:28:41Z</time>
      </trkpt>
      <trkpt lat="43.6207" lon="3.39737">
        <ele>181.80000305176</ele>
        <time>2019-12-12T14:28:45Z</time>
      </trkpt>
      <trkpt lat="43.62075" lon="3.39736">
        <ele>182.39999389648</ele>
        <time>2019-12-12T14:28:47Z</time>
      </trkpt>
      <trkpt lat="43.62079" lon="3.39734">
        <ele>183</ele>
        <time>2019-12-12T14:28:49Z</time>
      </trkpt>
      <trkpt lat="43.62086" lon="3.39731">
        <ele>184</ele>
        <time>2019-12-12T14:28:53Z</time>
      </trkpt>
      <trkpt lat="43.62098" lon="3.39732">
        <ele>185.19999694824</ele>
        <time>2019-12-12T14:28:58Z</time>
      </trkpt>
      <trkpt lat="43.62104" lon="3.39737">
        <ele>186.60000610352</ele>
        <time>2019-12-12T14:29:01Z</time>
      </trkpt>
      <trkpt lat="43.62107" lon="3.39742">
        <ele>187.19999694824</ele>
        <time>2019-12-12T14:29:03Z</time>
      </trkpt>
      <trkpt lat="43.62109" lon="3.39745">
        <ele>187.60000610352</ele>
        <time>2019-12-12T14:29:04Z</time>
      </trkpt>
      <trkpt lat="43.62116" lon="3.39756">
        <ele>188.60000610352</ele>
        <time>2019-12-12T14:29:08Z</time>
      </trkpt>
      <trkpt lat="43.62123" lon="3.39768">
        <ele>189.80000305176</ele>
        <time>2019-12-12T14:29:13Z</time>
      </trkpt>
      <trkpt lat="43.62129" lon="3.39776">
        <ele>190.80000305176</ele>
        <time>2019-12-12T14:29:17Z</time>
      </trkpt>
      <trkpt lat="43.62131" lon="3.39781">
        <ele>191.80000305176</ele>
        <time>2019-12-12T14:29:20Z</time>
      </trkpt>
      <trkpt lat="43.62133" lon="3.39787">
        <ele>192.19999694824</ele>
        <time>2019-12-12T14:29:21Z</time>
      </trkpt>
      <trkpt lat="43.62134" lon="3.39797">
        <ele>193.19999694824</ele>
        <time>2019-12-12T14:29:24Z</time>
      </trkpt>
      <trkpt lat="43.62135" lon="3.39805">
        <ele>193.60000610352</ele>
        <time>2019-12-12T14:29:26Z</time>
      </trkpt>
      <trkpt lat="43.62137" lon="3.39837">
        <ele>193.80000305176</ele>
        <time>2019-12-12T14:29:32Z</time>
      </trkpt>
      <trkpt lat="43.62136" lon="3.39866">
        <ele>192.19999694824</ele>
        <time>2019-12-12T14:29:38Z</time>
      </trkpt>
      <trkpt lat="43.62135" lon="3.3988">
        <ele>192</ele>
        <time>2019-12-12T14:29:39Z</time>
      </trkpt>
      <trkpt lat="43.62134" lon="3.39895">
        <ele>191.19999694824</ele>
        <time>2019-12-12T14:29:41Z</time>
      </trkpt>
      <trkpt lat="43.62134" lon="3.39902">
        <ele>190.80000305176</ele>
        <time>2019-12-12T14:29:42Z</time>
      </trkpt>
      <trkpt lat="43.62132" lon="3.39908">
        <ele>190</ele>
        <time>2019-12-12T14:29:44Z</time>
      </trkpt>
      <trkpt lat="43.62127" lon="3.39918">
        <ele>189.80000305176</ele>
        <time>2019-12-12T14:29:45Z</time>
      </trkpt>
      <trkpt lat="43.62124" lon="3.39923">
        <ele>189.60000610352</ele>
        <time>2019-12-12T14:29:46Z</time>
      </trkpt>
      <trkpt lat="43.62117" lon="3.39933">
        <ele>188.39999389648</ele>
        <time>2019-12-12T14:29:48Z</time>
      </trkpt>
      <trkpt lat="43.62113" lon="3.39937">
        <ele>187.80000305176</ele>
        <time>2019-12-12T14:29:49Z</time>
      </trkpt>
      <trkpt lat="43.6211" lon="3.39941">
        <ele>187.39999389648</ele>
        <time>2019-12-12T14:29:50Z</time>
      </trkpt>
      <trkpt lat="43.62107" lon="3.39946">
        <ele>187.19999694824</ele>
        <time>2019-12-12T14:29:51Z</time>
      </trkpt>
      <trkpt lat="43.621" lon="3.39959">
        <ele>187</ele>
        <time>2019-12-12T14:29:54Z</time>
      </trkpt>
      <trkpt lat="43.6208" lon="3.39993">
        <ele>188.60000610352</ele>
        <time>2019-12-12T14:30:03Z</time>
      </trkpt>
      <trkpt lat="43.62066" lon="3.40007">
        <ele>190</ele>
        <time>2019-12-12T14:30:08Z</time>
      </trkpt>
      <trkpt lat="43.62063" lon="3.4001">
        <ele>190.19999694824</ele>
        <time>2019-12-12T14:30:09Z</time>
      </trkpt>
      <trkpt lat="43.6206" lon="3.40015">
        <ele>190.19999694824</ele>
        <time>2019-12-12T14:30:10Z</time>
      </trkpt>
      <trkpt lat="43.62049" lon="3.40034">
        <ele>190.19999694824</ele>
        <time>2019-12-12T14:30:14Z</time>
      </trkpt>
      <trkpt lat="43.62039" lon="3.40051">
        <ele>190.39999389648</ele>
        <time>2019-12-12T14:30:19Z</time>
      </trkpt>
      <trkpt lat="43.62029" lon="3.40067">
        <ele>191</ele>
        <time>2019-12-12T14:30:25Z</time>
      </trkpt>
      <trkpt lat="43.62027" lon="3.40069">
        <ele>191.19999694824</ele>
        <time>2019-12-12T14:30:26Z</time>
      </trkpt>
      <trkpt lat="43.6202" lon="3.40081">
        <ele>192.19999694824</ele>
        <time>2019-12-12T14:30:29Z</time>
      </trkpt>
      <trkpt lat="43.62012" lon="3.40092">
        <ele>193.39999389648</ele>
        <time>2019-12-12T14:30:32Z</time>
      </trkpt>
      <trkpt lat="43.62001" lon="3.40116">
        <ele>194.60000610352</ele>
        <time>2019-12-12T14:30:39Z</time>
      </trkpt>
      <trkpt lat="43.61996" lon="3.40127">
        <ele>196</ele>
        <time>2019-12-12T14:30:42Z</time>
      </trkpt>
      <trkpt lat="43.6199" lon="3.40137">
        <ele>197</ele>
        <time>2019-12-12T14:30:45Z</time>
      </trkpt>
      <trkpt lat="43.61986" lon="3.40143">
        <ele>197.39999389648</ele>
        <time>2019-12-12T14:30:47Z</time>
      </trkpt>
      <trkpt lat="43.61982" lon="3.4015">
        <ele>198</ele>
        <time>2019-12-12T14:30:49Z</time>
      </trkpt>
      <trkpt lat="43.61977" lon="3.40161">
        <ele>199.19999694824</ele>
        <time>2019-12-12T14:30:52Z</time>
      </trkpt>
      <trkpt lat="43.6197" lon="3.40176">
        <ele>200.19999694824</ele>
        <time>2019-12-12T14:30:56Z</time>
      </trkpt>
      <trkpt lat="43.61968" lon="3.4018">
        <ele>200.60000610352</ele>
        <time>2019-12-12T14:30:57Z</time>
      </trkpt>
      <trkpt lat="43.61958" lon="3.40195">
        <ele>201.60000610352</ele>
        <time>2019-12-12T14:31:02Z</time>
      </trkpt>
      <trkpt lat="43.61957" lon="3.40198">
        <ele>201.80000305176</ele>
        <time>2019-12-12T14:31:03Z</time>
      </trkpt>
      <trkpt lat="43.61952" lon="3.40214">
        <ele>202.80000305176</ele>
        <time>2019-12-12T14:31:07Z</time>
      </trkpt>
      <trkpt lat="43.6195" lon="3.40221">
        <ele>203.39999389648</ele>
        <time>2019-12-12T14:31:09Z</time>
      </trkpt>
      <trkpt lat="43.61949" lon="3.40229">
        <ele>204</ele>
        <time>2019-12-12T14:31:11Z</time>
      </trkpt>
      <trkpt lat="43.61946" lon="3.40244">
        <ele>205.39999389648</ele>
        <time>2019-12-12T14:31:15Z</time>
      </trkpt>
      <trkpt lat="43.61945" lon="3.40251">
        <ele>206.19999694824</ele>
        <time>2019-12-12T14:31:17Z</time>
      </trkpt>
      <trkpt lat="43.61944" lon="3.40255">
        <ele>206.60000610352</ele>
        <time>2019-12-12T14:31:18Z</time>
      </trkpt>
      <trkpt lat="43.61944" lon="3.40266">
        <ele>208</ele>
        <time>2019-12-12T14:31:21Z</time>
      </trkpt>
      <trkpt lat="43.61945" lon="3.40271">
        <ele>208.19999694824</ele>
        <time>2019-12-12T14:31:22Z</time>
      </trkpt>
      <trkpt lat="43.61946" lon="3.40281">
        <ele>209.39999389648</ele>
        <time>2019-12-12T14:31:24Z</time>
      </trkpt>
      <trkpt lat="43.61948" lon="3.40304">
        <ele>210.19999694824</ele>
        <time>2019-12-12T14:31:29Z</time>
      </trkpt>
      <trkpt lat="43.61948" lon="3.40323">
        <ele>210.39999389648</ele>
        <time>2019-12-12T14:31:33Z</time>
      </trkpt>
      <trkpt lat="43.61948" lon="3.40332">
        <ele>211</ele>
        <time>2019-12-12T14:31:36Z</time>
      </trkpt>
      <trkpt lat="43.61943" lon="3.40361">
        <ele>211.60000610352</ele>
        <time>2019-12-12T14:31:41Z</time>
      </trkpt>
      <trkpt lat="43.61942" lon="3.40366">
        <ele>211.80000305176</ele>
        <time>2019-12-12T14:31:42Z</time>
      </trkpt>
      <trkpt lat="43.61937" lon="3.404">
        <ele>212.60000610352</ele>
        <time>2019-12-12T14:31:49Z</time>
      </trkpt>
      <trkpt lat="43.61936" lon="3.40405">
        <ele>212.60000610352</ele>
        <time>2019-12-12T14:31:50Z</time>
      </trkpt>
      <trkpt lat="43.61939" lon="3.40438">
        <ele>213.60000610352</ele>
        <time>2019-12-12T14:31:56Z</time>
      </trkpt>
      <trkpt lat="43.6194" lon="3.40454">
        <ele>213.60000610352</ele>
        <time>2019-12-12T14:31:59Z</time>
      </trkpt>
      <trkpt lat="43.61944" lon="3.40472">
        <ele>213.60000610352</ele>
        <time>2019-12-12T14:32:02Z</time>
      </trkpt>
      <trkpt lat="43.61951" lon="3.40504">
        <ele>213.60000610352</ele>
        <time>2019-12-12T14:32:08Z</time>
      </trkpt>
      <trkpt lat="43.61953" lon="3.40515">
        <ele>213.60000610352</ele>
        <time>2019-12-12T14:32:10Z</time>
      </trkpt>
      <trkpt lat="43.61956" lon="3.40527">
        <ele>213.60000610352</ele>
        <time>2019-12-12T14:32:13Z</time>
      </trkpt>
      <trkpt lat="43.61958" lon="3.40531">
        <ele>213.39999389648</ele>
        <time>2019-12-12T14:32:14Z</time>
      </trkpt>
      <trkpt lat="43.61968" lon="3.40539">
        <ele>213.39999389648</ele>
        <time>2019-12-12T14:32:17Z</time>
      </trkpt>
      <trkpt lat="43.61976" lon="3.40543">
        <ele>213.39999389648</ele>
        <time>2019-12-12T14:32:18Z</time>
      </trkpt>
      <trkpt lat="43.62001" lon="3.40555">
        <ele>213.19999694824</ele>
        <time>2019-12-12T14:32:23Z</time>
      </trkpt>
      <trkpt lat="43.62027" lon="3.40552">
        <ele>213.19999694824</ele>
        <time>2019-12-12T14:32:27Z</time>
      </trkpt>
      <trkpt lat="43.62035" lon="3.40549">
        <ele>212.60000610352</ele>
        <time>2019-12-12T14:32:28Z</time>
      </trkpt>
      <trkpt lat="43.62042" lon="3.40547">
        <ele>212</ele>
        <time>2019-12-12T14:32:29Z</time>
      </trkpt>
      <trkpt lat="43.6205" lon="3.40546">
        <ele>211.39999389648</ele>
        <time>2019-12-12T14:32:30Z</time>
      </trkpt>
      <trkpt lat="43.62057" lon="3.40547">
        <ele>210.80000305176</ele>
        <time>2019-12-12T14:32:31Z</time>
      </trkpt>
      <trkpt lat="43.62064" lon="3.40549">
        <ele>210.19999694824</ele>
        <time>2019-12-12T14:32:32Z</time>
      </trkpt>
      <trkpt lat="43.62072" lon="3.40552">
        <ele>209.39999389648</ele>
        <time>2019-12-12T14:32:33Z</time>
      </trkpt>
      <trkpt lat="43.62079" lon="3.40557">
        <ele>208</ele>
        <time>2019-12-12T14:32:34Z</time>
      </trkpt>
      <trkpt lat="43.62086" lon="3.40563">
        <ele>206.80000305176</ele>
        <time>2019-12-12T14:32:35Z</time>
      </trkpt>
      <trkpt lat="43.62094" lon="3.40571">
        <ele>205.80000305176</ele>
        <time>2019-12-12T14:32:36Z</time>
      </trkpt>
      <trkpt lat="43.62101" lon="3.40579">
        <ele>204.80000305176</ele>
        <time>2019-12-12T14:32:37Z</time>
      </trkpt>
      <trkpt lat="43.62108" lon="3.40588">
        <ele>203.60000610352</ele>
        <time>2019-12-12T14:32:38Z</time>
      </trkpt>
      <trkpt lat="43.62114" lon="3.40599">
        <ele>202.39999389648</ele>
        <time>2019-12-12T14:32:39Z</time>
      </trkpt>
      <trkpt lat="43.62126" lon="3.40622">
        <ele>200.80000305176</ele>
        <time>2019-12-12T14:32:41Z</time>
      </trkpt>
      <trkpt lat="43.62131" lon="3.40634">
        <ele>200.19999694824</ele>
        <time>2019-12-12T14:32:42Z</time>
      </trkpt>
      <trkpt lat="43.62135" lon="3.40646">
        <ele>198.80000305176</ele>
        <time>2019-12-12T14:32:43Z</time>
      </trkpt>
      <trkpt lat="43.6214" lon="3.40658">
        <ele>197.39999389648</ele>
        <time>2019-12-12T14:32:44Z</time>
      </trkpt>
      <trkpt lat="43.62144" lon="3.40671">
        <ele>196.39999389648</ele>
        <time>2019-12-12T14:32:45Z</time>
      </trkpt>
      <trkpt lat="43.6215" lon="3.40697">
        <ele>194.19999694824</ele>
        <time>2019-12-12T14:32:47Z</time>
      </trkpt>
      <trkpt lat="43.62153" lon="3.40709">
        <ele>193</ele>
        <time>2019-12-12T14:32:48Z</time>
      </trkpt>
      <trkpt lat="43.62158" lon="3.40735">
        <ele>191</ele>
        <time>2019-12-12T14:32:50Z</time>
      </trkpt>
      <trkpt lat="43.62162" lon="3.40758">
        <ele>190</ele>
        <time>2019-12-12T14:32:52Z</time>
      </trkpt>
      <trkpt lat="43.62167" lon="3.4078">
        <ele>189.39999389648</ele>
        <time>2019-12-12T14:32:54Z</time>
      </trkpt>
      <trkpt lat="43.62169" lon="3.40791">
        <ele>188.60000610352</ele>
        <time>2019-12-12T14:32:56Z</time>
      </trkpt>
      <trkpt lat="43.62177" lon="3.40828">
        <ele>187.60000610352</ele>
        <time>2019-12-12T14:32:59Z</time>
      </trkpt>
      <trkpt lat="43.62179" lon="3.40837">
        <ele>187.39999389648</ele>
        <time>2019-12-12T14:33:00Z</time>
      </trkpt>
      <trkpt lat="43.6219" lon="3.40886">
        <ele>186.39999389648</ele>
        <time>2019-12-12T14:33:06Z</time>
      </trkpt>
      <trkpt lat="43.62192" lon="3.40894">
        <ele>186.39999389648</ele>
        <time>2019-12-12T14:33:07Z</time>
      </trkpt>
      <trkpt lat="43.62194" lon="3.40901">
        <ele>186.19999694824</ele>
        <time>2019-12-12T14:33:08Z</time>
      </trkpt>
      <trkpt lat="43.62209" lon="3.40926">
        <ele>185</ele>
        <time>2019-12-12T14:33:11Z</time>
      </trkpt>
      <trkpt lat="43.62223" lon="3.40946">
        <ele>183.60000610352</ele>
        <time>2019-12-12T14:33:14Z</time>
      </trkpt>
      <trkpt lat="43.62236" lon="3.40968">
        <ele>183.19999694824</ele>
        <time>2019-12-12T14:33:17Z</time>
      </trkpt>
      <trkpt lat="43.62245" lon="3.40983">
        <ele>182.19999694824</ele>
        <time>2019-12-12T14:33:19Z</time>
      </trkpt>
      <trkpt lat="43.62261" lon="3.41014">
        <ele>181</ele>
        <time>2019-12-12T14:33:23Z</time>
      </trkpt>
      <trkpt lat="43.62267" lon="3.41031">
        <ele>180.39999389648</ele>
        <time>2019-12-12T14:33:25Z</time>
      </trkpt>
      <trkpt lat="43.62279" lon="3.41066">
        <ele>180</ele>
        <time>2019-12-12T14:33:29Z</time>
      </trkpt>
      <trkpt lat="43.62287" lon="3.41094">
        <ele>179.80000305176</ele>
        <time>2019-12-12T14:33:32Z</time>
      </trkpt>
      <trkpt lat="43.6229" lon="3.41104">
        <ele>178.60000610352</ele>
        <time>2019-12-12T14:33:34Z</time>
      </trkpt>
      <trkpt lat="43.62294" lon="3.41125">
        <ele>178.19999694824</ele>
        <time>2019-12-12T14:33:35Z</time>
      </trkpt>
      <trkpt lat="43.62295" lon="3.41146">
        <ele>177.60000610352</ele>
        <time>2019-12-12T14:33:37Z</time>
      </trkpt>
      <trkpt lat="43.62295" lon="3.41146">
        <ele>177.60000610352</ele>
        <time>2019-12-12T14:33:38Z</time>
      </trkpt>
      <trkpt lat="43.62293" lon="3.41186">
        <ele>176.39999389648</ele>
        <time>2019-12-12T14:33:41Z</time>
      </trkpt>
      <trkpt lat="43.62292" lon="3.41205">
        <ele>175</ele>
        <time>2019-12-12T14:33:43Z</time>
      </trkpt>
      <trkpt lat="43.62293" lon="3.41223">
        <ele>173.80000305176</ele>
        <time>2019-12-12T14:33:46Z</time>
      </trkpt>
      <trkpt lat="43.623" lon="3.41226">
        <ele>172.80000305176</ele>
        <time>2019-12-12T14:33:48Z</time>
      </trkpt>
      <trkpt lat="43.62305" lon="3.41225">
        <ele>172.39999389648</ele>
        <time>2019-12-12T14:33:49Z</time>
      </trkpt>
      <trkpt lat="43.62315" lon="3.41225">
        <ele>171.60000610352</ele>
        <time>2019-12-12T14:33:51Z</time>
      </trkpt>
      <trkpt lat="43.62338" lon="3.41225">
        <ele>170.39999389648</ele>
        <time>2019-12-12T14:33:55Z</time>
      </trkpt>
      <trkpt lat="43.62344" lon="3.41224">
        <ele>170.19999694824</ele>
        <time>2019-12-12T14:33:56Z</time>
      </trkpt>
      <trkpt lat="43.62355" lon="3.41221">
        <ele>169.60000610352</ele>
        <time>2019-12-12T14:33:58Z</time>
      </trkpt>
      <trkpt lat="43.62361" lon="3.41218">
        <ele>169.39999389648</ele>
        <time>2019-12-12T14:34:00Z</time>
      </trkpt>
      <trkpt lat="43.6237" lon="3.41211">
        <ele>169.39999389648</ele>
        <time>2019-12-12T14:34:01Z</time>
      </trkpt>
      <trkpt lat="43.62385" lon="3.41203">
        <ele>169</ele>
        <time>2019-12-12T14:34:04Z</time>
      </trkpt>
      <trkpt lat="43.6239" lon="3.41204">
        <ele>168.60000610352</ele>
        <time>2019-12-12T14:34:05Z</time>
      </trkpt>
      <trkpt lat="43.62395" lon="3.41206">
        <ele>168.60000610352</ele>
        <time>2019-12-12T14:34:06Z</time>
      </trkpt>
      <trkpt lat="43.62404" lon="3.41213">
        <ele>168.39999389648</ele>
        <time>2019-12-12T14:34:08Z</time>
      </trkpt>
      <trkpt lat="43.62409" lon="3.41217">
        <ele>168.39999389648</ele>
        <time>2019-12-12T14:34:09Z</time>
      </trkpt>
      <trkpt lat="43.62457" lon="3.41255">
        <ele>168.19999694824</ele>
        <time>2019-12-12T14:34:19Z</time>
      </trkpt>
      <trkpt lat="43.62461" lon="3.4126">
        <ele>168</ele>
        <time>2019-12-12T14:34:21Z</time>
      </trkpt>
      <trkpt lat="43.62469" lon="3.41281">
        <ele>168</ele>
        <time>2019-12-12T14:34:23Z</time>
      </trkpt>
      <trkpt lat="43.6248" lon="3.41309">
        <ele>168</ele>
        <time>2019-12-12T14:34:27Z</time>
      </trkpt>
      <trkpt lat="43.62491" lon="3.41326">
        <ele>167.60000610352</ele>
        <time>2019-12-12T14:34:30Z</time>
      </trkpt>
      <trkpt lat="43.625" lon="3.41335">
        <ele>167.39999389648</ele>
        <time>2019-12-12T14:34:32Z</time>
      </trkpt>
      <trkpt lat="43.62524" lon="3.41357">
        <ele>167.19999694824</ele>
        <time>2019-12-12T14:34:37Z</time>
      </trkpt>
      <trkpt lat="43.62545" lon="3.41368">
        <ele>166.39999389648</ele>
        <time>2019-12-12T14:34:41Z</time>
      </trkpt>
      <trkpt lat="43.62551" lon="3.4137">
        <ele>166.19999694824</ele>
        <time>2019-12-12T14:34:42Z</time>
      </trkpt>
      <trkpt lat="43.62577" lon="3.41378">
        <ele>165.19999694824</ele>
        <time>2019-12-12T14:34:46Z</time>
      </trkpt>
      <trkpt lat="43.62584" lon="3.41381">
        <ele>165.19999694824</ele>
        <time>2019-12-12T14:34:47Z</time>
      </trkpt>
      <trkpt lat="43.6259" lon="3.41385">
        <ele>165</ele>
        <time>2019-12-12T14:34:48Z</time>
      </trkpt>
      <trkpt lat="43.626" lon="3.41398">
        <ele>164.19999694824</ele>
        <time>2019-12-12T14:34:50Z</time>
      </trkpt>
      <trkpt lat="43.62607" lon="3.41411">
        <ele>163.19999694824</ele>
        <time>2019-12-12T14:34:52Z</time>
      </trkpt>
      <trkpt lat="43.6261" lon="3.41417">
        <ele>162.80000305176</ele>
        <time>2019-12-12T14:34:53Z</time>
      </trkpt>
      <trkpt lat="43.62614" lon="3.41429">
        <ele>162.39999389648</ele>
        <time>2019-12-12T14:34:55Z</time>
      </trkpt>
      <trkpt lat="43.62618" lon="3.41439">
        <ele>162.19999694824</ele>
        <time>2019-12-12T14:34:57Z</time>
      </trkpt>
      <trkpt lat="43.62632" lon="3.41462">
        <ele>162.19999694824</ele>
        <time>2019-12-12T14:35:02Z</time>
      </trkpt>
      <trkpt lat="43.62642" lon="3.41476">
        <ele>164</ele>
        <time>2019-12-12T14:35:05Z</time>
      </trkpt>
      <trkpt lat="43.62658" lon="3.41498">
        <ele>164.80000305176</ele>
        <time>2019-12-12T14:35:10Z</time>
      </trkpt>
      <trkpt lat="43.62678" lon="3.4152">
        <ele>165</ele>
        <time>2019-12-12T14:35:15Z</time>
      </trkpt>
      <trkpt lat="43.62699" lon="3.4155">
        <ele>164.60000610352</ele>
        <time>2019-12-12T14:35:21Z</time>
      </trkpt>
      <trkpt lat="43.62702" lon="3.41555">
        <ele>164.39999389648</ele>
        <time>2019-12-12T14:35:22Z</time>
      </trkpt>
      <trkpt lat="43.62712" lon="3.4156">
        <ele>163.80000305176</ele>
        <time>2019-12-12T14:35:24Z</time>
      </trkpt>
      <trkpt lat="43.62722" lon="3.4156">
        <ele>163.19999694824</ele>
        <time>2019-12-12T14:35:26Z</time>
      </trkpt>
      <trkpt lat="43.62737" lon="3.41558">
        <ele>162.80000305176</ele>
        <time>2019-12-12T14:35:29Z</time>
      </trkpt>
      <trkpt lat="43.62782" lon="3.4156">
        <ele>163</ele>
        <time>2019-12-12T14:35:37Z</time>
      </trkpt>
      <trkpt lat="43.62805" lon="3.41573">
        <ele>163.39999389648</ele>
        <time>2019-12-12T14:35:42Z</time>
      </trkpt>
      <trkpt lat="43.62805" lon="3.41573">
        <ele>163.39999389648</ele>
        <time>2019-12-12T14:35:43Z</time>
      </trkpt>
      <trkpt lat="43.62848" lon="3.41608">
        <ele>164.19999694824</ele>
        <time>2019-12-12T14:35:52Z</time>
      </trkpt>
      <trkpt lat="43.62851" lon="3.41612">
        <ele>164.39999389648</ele>
        <time>2019-12-12T14:35:53Z</time>
      </trkpt>
      <trkpt lat="43.6287" lon="3.41628">
        <ele>165.39999389648</ele>
        <time>2019-12-12T14:35:59Z</time>
      </trkpt>
      <trkpt lat="43.62881" lon="3.4163">
        <ele>165.39999389648</ele>
        <time>2019-12-12T14:36:02Z</time>
      </trkpt>
      <trkpt lat="43.62887" lon="3.41627">
        <ele>165.39999389648</ele>
        <time>2019-12-12T14:36:03Z</time>
      </trkpt>
      <trkpt lat="43.62901" lon="3.41615">
        <ele>166.60000610352</ele>
        <time>2019-12-12T14:36:08Z</time>
      </trkpt>
      <trkpt lat="43.6291" lon="3.41607">
        <ele>167.60000610352</ele>
        <time>2019-12-12T14:36:12Z</time>
      </trkpt>
      <trkpt lat="43.62927" lon="3.41594">
        <ele>168.39999389648</ele>
        <time>2019-12-12T14:36:16Z</time>
      </trkpt>
      <trkpt lat="43.62927" lon="3.41594">
        <ele>168.60000610352</ele>
        <time>2019-12-12T14:36:17Z</time>
      </trkpt>
      <trkpt lat="43.62941" lon="3.41582">
        <ele>169.80000305176</ele>
        <time>2019-12-12T14:36:20Z</time>
      </trkpt>
      <trkpt lat="43.62959" lon="3.41565">
        <ele>170.80000305176</ele>
        <time>2019-12-12T14:36:26Z</time>
      </trkpt>
      <trkpt lat="43.62968" lon="3.41553">
        <ele>171</ele>
        <time>2019-12-12T14:36:29Z</time>
      </trkpt>
      <trkpt lat="43.62975" lon="3.41545">
        <ele>171</ele>
        <time>2019-12-12T14:36:30Z</time>
      </trkpt>
      <trkpt lat="43.62986" lon="3.41527">
        <ele>171.39999389648</ele>
        <time>2019-12-12T14:36:34Z</time>
      </trkpt>
      <trkpt lat="43.62994" lon="3.41513">
        <ele>172</ele>
        <time>2019-12-12T14:36:37Z</time>
      </trkpt>
      <trkpt lat="43.63003" lon="3.41495">
        <ele>172.80000305176</ele>
        <time>2019-12-12T14:36:41Z</time>
      </trkpt>
      <trkpt lat="43.63009" lon="3.41482">
        <ele>173.39999389648</ele>
        <time>2019-12-12T14:36:44Z</time>
      </trkpt>
      <trkpt lat="43.6302" lon="3.4147">
        <ele>174</ele>
        <time>2019-12-12T14:36:49Z</time>
      </trkpt>
      <trkpt lat="43.63023" lon="3.41469">
        <ele>174.39999389648</ele>
        <time>2019-12-12T14:36:50Z</time>
      </trkpt>
      <trkpt lat="43.63032" lon="3.41474">
        <ele>174.80000305176</ele>
        <time>2019-12-12T14:36:52Z</time>
      </trkpt>
      <trkpt lat="43.63032" lon="3.41474">
        <ele>175</ele>
        <time>2019-12-12T14:36:53Z</time>
      </trkpt>
      <trkpt lat="43.63038" lon="3.41481">
        <ele>175.60000610352</ele>
        <time>2019-12-12T14:36:55Z</time>
      </trkpt>
      <trkpt lat="43.63049" lon="3.41499">
        <ele>176</ele>
        <time>2019-12-12T14:36:59Z</time>
      </trkpt>
      <trkpt lat="43.63068" lon="3.41533">
        <ele>176.19999694824</ele>
        <time>2019-12-12T14:37:06Z</time>
      </trkpt>
      <trkpt lat="43.6309" lon="3.41553">
        <ele>175.80000305176</ele>
        <time>2019-12-12T14:37:12Z</time>
      </trkpt>
      <trkpt lat="43.63098" lon="3.41559">
        <ele>175.60000610352</ele>
        <time>2019-12-12T14:37:14Z</time>
      </trkpt>
      <trkpt lat="43.63112" lon="3.41574">
        <ele>175.60000610352</ele>
        <time>2019-12-12T14:37:18Z</time>
      </trkpt>
      <trkpt lat="43.63128" lon="3.41599">
        <ele>175.39999389648</ele>
        <time>2019-12-12T14:37:23Z</time>
      </trkpt>
      <trkpt lat="43.6313" lon="3.41605">
        <ele>175.39999389648</ele>
        <time>2019-12-12T14:37:24Z</time>
      </trkpt>
      <trkpt lat="43.63136" lon="3.41626">
        <ele>175.19999694824</ele>
        <time>2019-12-12T14:37:27Z</time>
      </trkpt>
      <trkpt lat="43.63142" lon="3.4164">
        <ele>174.80000305176</ele>
        <time>2019-12-12T14:37:29Z</time>
      </trkpt>
      <trkpt lat="43.63148" lon="3.41654">
        <ele>174.60000610352</ele>
        <time>2019-12-12T14:37:31Z</time>
      </trkpt>
      <trkpt lat="43.63157" lon="3.41674">
        <ele>174.19999694824</ele>
        <time>2019-12-12T14:37:34Z</time>
      </trkpt>
      <trkpt lat="43.63169" lon="3.41701">
        <ele>173.80000305176</ele>
        <time>2019-12-12T14:37:37Z</time>
      </trkpt>
      <trkpt lat="43.63183" lon="3.41734">
        <ele>173.60000610352</ele>
        <time>2019-12-12T14:37:42Z</time>
      </trkpt>
      <trkpt lat="43.63195" lon="3.4176">
        <ele>173.60000610352</ele>
        <time>2019-12-12T14:37:46Z</time>
      </trkpt>
      <trkpt lat="43.63212" lon="3.41796">
        <ele>173.19999694824</ele>
        <time>2019-12-12T14:37:53Z</time>
      </trkpt>
      <trkpt lat="43.63216" lon="3.41806">
        <ele>173.19999694824</ele>
        <time>2019-12-12T14:37:59Z</time>
      </trkpt>
      <trkpt lat="43.63227" lon="3.41819">
        <ele>173.60000610352</ele>
        <time>2019-12-12T14:38:05Z</time>
      </trkpt>
      <trkpt lat="43.63244" lon="3.41842">
        <ele>173.80000305176</ele>
        <time>2019-12-12T14:38:12Z</time>
      </trkpt>
      <trkpt lat="43.63261" lon="3.41869">
        <ele>174.80000305176</ele>
        <time>2019-12-12T14:38:19Z</time>
      </trkpt>
      <trkpt lat="43.63274" lon="3.41892">
        <ele>176</ele>
        <time>2019-12-12T14:38:25Z</time>
      </trkpt>
      <trkpt lat="43.63277" lon="3.41899">
        <ele>176.19999694824</ele>
        <time>2019-12-12T14:38:26Z</time>
      </trkpt>
      <trkpt lat="43.63283" lon="3.41913">
        <ele>177.19999694824</ele>
        <time>2019-12-12T14:38:30Z</time>
      </trkpt>
      <trkpt lat="43.63285" lon="3.41921">
        <ele>178.39999389648</ele>
        <time>2019-12-12T14:38:32Z</time>
      </trkpt>
      <trkpt lat="43.63285" lon="3.41924">
        <ele>178.80000305176</ele>
        <time>2019-12-12T14:38:33Z</time>
      </trkpt>
      <trkpt lat="43.63287" lon="3.4193">
        <ele>179.39999389648</ele>
        <time>2019-12-12T14:38:35Z</time>
      </trkpt>
      <trkpt lat="43.63288" lon="3.41944">
        <ele>180.80000305176</ele>
        <time>2019-12-12T14:38:39Z</time>
      </trkpt>
      <trkpt lat="43.63289" lon="3.41947">
        <ele>181</ele>
        <time>2019-12-12T14:38:40Z</time>
      </trkpt>
      <trkpt lat="43.63289" lon="3.41958">
        <ele>182</ele>
        <time>2019-12-12T14:38:43Z</time>
      </trkpt>
      <trkpt lat="43.63289" lon="3.41968">
        <ele>183</ele>
        <time>2019-12-12T14:38:46Z</time>
      </trkpt>
      <trkpt lat="43.63289" lon="3.41968">
        <ele>183.39999389648</ele>
        <time>2019-12-12T14:38:47Z</time>
      </trkpt>
      <trkpt lat="43.63288" lon="3.41977">
        <ele>184.39999389648</ele>
        <time>2019-12-12T14:38:50Z</time>
      </trkpt>
      <trkpt lat="43.63288" lon="3.41983">
        <ele>185</ele>
        <time>2019-12-12T14:38:52Z</time>
      </trkpt>
      <trkpt lat="43.63288" lon="3.41987">
        <ele>185.60000610352</ele>
        <time>2019-12-12T14:38:53Z</time>
      </trkpt>
      <trkpt lat="43.63288" lon="3.41998">
        <ele>186.60000610352</ele>
        <time>2019-12-12T14:38:56Z</time>
      </trkpt>
      <trkpt lat="43.63287" lon="3.42009">
        <ele>187.80000305176</ele>
        <time>2019-12-12T14:38:59Z</time>
      </trkpt>
      <trkpt lat="43.63287" lon="3.42013">
        <ele>188.60000610352</ele>
        <time>2019-12-12T14:39:00Z</time>
      </trkpt>
      <trkpt lat="43.63287" lon="3.4202">
        <ele>189</ele>
        <time>2019-12-12T14:39:01Z</time>
      </trkpt>
      <trkpt lat="43.63287" lon="3.4203">
        <ele>190.19999694824</ele>
        <time>2019-12-12T14:39:04Z</time>
      </trkpt>
      <trkpt lat="43.63286" lon="3.42037">
        <ele>191.19999694824</ele>
        <time>2019-12-12T14:39:07Z</time>
      </trkpt>
      <trkpt lat="43.63286" lon="3.4204">
        <ele>191.60000610352</ele>
        <time>2019-12-12T14:39:08Z</time>
      </trkpt>
      <trkpt lat="43.63286" lon="3.42047">
        <ele>192.39999389648</ele>
        <time>2019-12-12T14:39:10Z</time>
      </trkpt>
      <trkpt lat="43.63285" lon="3.42057">
        <ele>193.60000610352</ele>
        <time>2019-12-12T14:39:13Z</time>
      </trkpt>
      <trkpt lat="43.63286" lon="3.42063">
        <ele>194.19999694824</ele>
        <time>2019-12-12T14:39:15Z</time>
      </trkpt>
      <trkpt lat="43.63287" lon="3.42068">
        <ele>194.60000610352</ele>
        <time>2019-12-12T14:39:16Z</time>
      </trkpt>
      <trkpt lat="43.63286" lon="3.42072">
        <ele>195</ele>
        <time>2019-12-12T14:39:17Z</time>
      </trkpt>
      <trkpt lat="43.63284" lon="3.42076">
        <ele>195.39999389648</ele>
        <time>2019-12-12T14:39:18Z</time>
      </trkpt>
      <trkpt lat="43.63283" lon="3.4208">
        <ele>196</ele>
        <time>2019-12-12T14:39:19Z</time>
      </trkpt>
      <trkpt lat="43.6328" lon="3.4209">
        <ele>197</ele>
        <time>2019-12-12T14:39:22Z</time>
      </trkpt>
      <trkpt lat="43.6328" lon="3.42093">
        <ele>197.39999389648</ele>
        <time>2019-12-12T14:39:23Z</time>
      </trkpt>
      <trkpt lat="43.6328" lon="3.42102">
        <ele>198.39999389648</ele>
        <time>2019-12-12T14:39:27Z</time>
      </trkpt>
      <trkpt lat="43.6328" lon="3.42108">
        <ele>199.60000610352</ele>
        <time>2019-12-12T14:39:29Z</time>
      </trkpt>
      <trkpt lat="43.63279" lon="3.4211">
        <ele>200</ele>
        <time>2019-12-12T14:39:30Z</time>
      </trkpt>
      <trkpt lat="43.63277" lon="3.42114">
        <ele>201</ele>
        <time>2019-12-12T14:39:33Z</time>
      </trkpt>
      <trkpt lat="43.63276" lon="3.42115">
        <ele>201</ele>
        <time>2019-12-12T14:39:34Z</time>
      </trkpt>
      <trkpt lat="43.63274" lon="3.42119">
        <ele>201.39999389648</ele>
        <time>2019-12-12T14:39:36Z</time>
      </trkpt>
      <trkpt lat="43.63263" lon="3.4213">
        <ele>201.60000610352</ele>
        <time>2019-12-12T14:39:42Z</time>
      </trkpt>
      <trkpt lat="43.63252" lon="3.42153">
        <ele>201.80000305176</ele>
        <time>2019-12-12T14:39:48Z</time>
      </trkpt>
      <trkpt lat="43.63247" lon="3.42185">
        <ele>201.80000305176</ele>
        <time>2019-12-12T14:39:54Z</time>
      </trkpt>
      <trkpt lat="43.63237" lon="3.4224">
        <ele>200.60000610352</ele>
        <time>2019-12-12T14:40:02Z</time>
      </trkpt>
      <trkpt lat="43.63234" lon="3.42254">
        <ele>200</ele>
        <time>2019-12-12T14:40:04Z</time>
      </trkpt>
      <trkpt lat="43.6323" lon="3.42274">
        <ele>198.80000305176</ele>
        <time>2019-12-12T14:40:07Z</time>
      </trkpt>
      <trkpt lat="43.63227" lon="3.42287">
        <ele>198.39999389648</ele>
        <time>2019-12-12T14:40:09Z</time>
      </trkpt>
      <trkpt lat="43.63227" lon="3.42294">
        <ele>198.39999389648</ele>
        <time>2019-12-12T14:40:10Z</time>
      </trkpt>
      <trkpt lat="43.63227" lon="3.42328">
        <ele>197.80000305176</ele>
        <time>2019-12-12T14:40:15Z</time>
      </trkpt>
      <trkpt lat="43.63227" lon="3.42335">
        <ele>197.60000610352</ele>
        <time>2019-12-12T14:40:16Z</time>
      </trkpt>
      <trkpt lat="43.63225" lon="3.42377">
        <ele>196.80000305176</ele>
        <time>2019-12-12T14:40:22Z</time>
      </trkpt>
      <trkpt lat="43.63225" lon="3.42385">
        <ele>196.80000305176</ele>
        <time>2019-12-12T14:40:23Z</time>
      </trkpt>
      <trkpt lat="43.63226" lon="3.42394">
        <ele>196.60000610352</ele>
        <time>2019-12-12T14:40:24Z</time>
      </trkpt>
      <trkpt lat="43.63226" lon="3.42419">
        <ele>196.39999389648</ele>
        <time>2019-12-12T14:40:27Z</time>
      </trkpt>
      <trkpt lat="43.63226" lon="3.42444">
        <ele>195.39999389648</ele>
        <time>2019-12-12T14:40:30Z</time>
      </trkpt>
      <trkpt lat="43.63225" lon="3.42474">
        <ele>194.19999694824</ele>
        <time>2019-12-12T14:40:34Z</time>
      </trkpt>
      <trkpt lat="43.63225" lon="3.42481">
        <ele>193.80000305176</ele>
        <time>2019-12-12T14:40:35Z</time>
      </trkpt>
      <trkpt lat="43.63223" lon="3.42525">
        <ele>193.39999389648</ele>
        <time>2019-12-12T14:40:42Z</time>
      </trkpt>
      <trkpt lat="43.63223" lon="3.42549">
        <ele>193.60000610352</ele>
        <time>2019-12-12T14:40:47Z</time>
      </trkpt>
      <trkpt lat="43.63222" lon="3.42574">
        <ele>193.80000305176</ele>
        <time>2019-12-12T14:40:52Z</time>
      </trkpt>
      <trkpt lat="43.63221" lon="3.42605">
        <ele>194.80000305176</ele>
        <time>2019-12-12T14:40:58Z</time>
      </trkpt>
      <trkpt lat="43.63218" lon="3.42637">
        <ele>194.80000305176</ele>
        <time>2019-12-12T14:41:03Z</time>
      </trkpt>
      <trkpt lat="43.63218" lon="3.42643">
        <ele>194.80000305176</ele>
        <time>2019-12-12T14:41:04Z</time>
      </trkpt>
      <trkpt lat="43.63216" lon="3.42662">
        <ele>194.19999694824</ele>
        <time>2019-12-12T14:41:07Z</time>
      </trkpt>
      <trkpt lat="43.63213" lon="3.42674">
        <ele>193.60000610352</ele>
        <time>2019-12-12T14:41:09Z</time>
      </trkpt>
      <trkpt lat="43.63211" lon="3.4268">
        <ele>193.39999389648</ele>
        <time>2019-12-12T14:41:10Z</time>
      </trkpt>
      <trkpt lat="43.63207" lon="3.42692">
        <ele>193</ele>
        <time>2019-12-12T14:41:12Z</time>
      </trkpt>
      <trkpt lat="43.632" lon="3.42715">
        <ele>192.19999694824</ele>
        <time>2019-12-12T14:41:16Z</time>
      </trkpt>
      <trkpt lat="43.63197" lon="3.42721">
        <ele>191.80000305176</ele>
        <time>2019-12-12T14:41:17Z</time>
      </trkpt>
      <trkpt lat="43.63193" lon="3.42727">
        <ele>191.60000610352</ele>
        <time>2019-12-12T14:41:18Z</time>
      </trkpt>
      <trkpt lat="43.63176" lon="3.42756">
        <ele>190.60000610352</ele>
        <time>2019-12-12T14:41:22Z</time>
      </trkpt>
      <trkpt lat="43.63165" lon="3.42771">
        <ele>189.19999694824</ele>
        <time>2019-12-12T14:41:24Z</time>
      </trkpt>
      <trkpt lat="43.63161" lon="3.42779">
        <ele>188.60000610352</ele>
        <time>2019-12-12T14:41:25Z</time>
      </trkpt>
      <trkpt lat="43.63157" lon="3.42788">
        <ele>188.19999694824</ele>
        <time>2019-12-12T14:41:26Z</time>
      </trkpt>
      <trkpt lat="43.63147" lon="3.42807">
        <ele>186.60000610352</ele>
        <time>2019-12-12T14:41:28Z</time>
      </trkpt>
      <trkpt lat="43.63138" lon="3.42824">
        <ele>184.80000305176</ele>
        <time>2019-12-12T14:41:30Z</time>
      </trkpt>
      <trkpt lat="43.63134" lon="3.42832">
        <ele>183.80000305176</ele>
        <time>2019-12-12T14:41:31Z</time>
      </trkpt>
      <trkpt lat="43.63129" lon="3.4284">
        <ele>183</ele>
        <time>2019-12-12T14:41:32Z</time>
      </trkpt>
      <trkpt lat="43.63123" lon="3.42847">
        <ele>182.39999389648</ele>
        <time>2019-12-12T14:41:33Z</time>
      </trkpt>
      <trkpt lat="43.63118" lon="3.42852">
        <ele>181.39999389648</ele>
        <time>2019-12-12T14:41:35Z</time>
      </trkpt>
      <trkpt lat="43.63106" lon="3.42862">
        <ele>180.80000305176</ele>
        <time>2019-12-12T14:41:36Z</time>
      </trkpt>
      <trkpt lat="43.63101" lon="3.42866">
        <ele>180.19999694824</ele>
        <time>2019-12-12T14:41:37Z</time>
      </trkpt>
      <trkpt lat="43.63093" lon="3.4287">
        <ele>179.39999389648</ele>
        <time>2019-12-12T14:41:39Z</time>
      </trkpt>
      <trkpt lat="43.6309" lon="3.42871">
        <ele>179.19999694824</ele>
        <time>2019-12-12T14:41:40Z</time>
      </trkpt>
      <trkpt lat="43.63087" lon="3.42875">
        <ele>178</ele>
        <time>2019-12-12T14:41:42Z</time>
      </trkpt>
      <trkpt lat="43.63086" lon="3.42878">
        <ele>177.60000610352</ele>
        <time>2019-12-12T14:41:43Z</time>
      </trkpt>
      <trkpt lat="43.6309" lon="3.42883">
        <ele>177.19999694824</ele>
        <time>2019-12-12T14:41:46Z</time>
      </trkpt>
      <trkpt lat="43.63092" lon="3.42883">
        <ele>177</ele>
        <time>2019-12-12T14:41:47Z</time>
      </trkpt>
      <trkpt lat="43.63102" lon="3.42881">
        <ele>175.80000305176</ele>
        <time>2019-12-12T14:41:51Z</time>
      </trkpt>
      <trkpt lat="43.63106" lon="3.4288">
        <ele>175.60000610352</ele>
        <time>2019-12-12T14:41:52Z</time>
      </trkpt>
      <trkpt lat="43.63119" lon="3.42877">
        <ele>175.39999389648</ele>
        <time>2019-12-12T14:41:55Z</time>
      </trkpt>
      <trkpt lat="43.63127" lon="3.42873">
        <ele>174.80000305176</ele>
        <time>2019-12-12T14:41:58Z</time>
      </trkpt>
      <trkpt lat="43.6313" lon="3.42871">
        <ele>174.39999389648</ele>
        <time>2019-12-12T14:41:59Z</time>
      </trkpt>
      <trkpt lat="43.63136" lon="3.42867">
        <ele>173.19999694824</ele>
        <time>2019-12-12T14:42:01Z</time>
      </trkpt>
      <trkpt lat="43.63145" lon="3.42863">
        <ele>172</ele>
        <time>2019-12-12T14:42:04Z</time>
      </trkpt>
      <trkpt lat="43.63162" lon="3.42856">
        <ele>171.39999389648</ele>
        <time>2019-12-12T14:42:09Z</time>
      </trkpt>
      <trkpt lat="43.6317" lon="3.42853">
        <ele>170.80000305176</ele>
        <time>2019-12-12T14:42:12Z</time>
      </trkpt>
      <trkpt lat="43.63174" lon="3.42852">
        <ele>170.19999694824</ele>
        <time>2019-12-12T14:42:13Z</time>
      </trkpt>
      <trkpt lat="43.63178" lon="3.4285">
        <ele>169.80000305176</ele>
        <time>2019-12-12T14:42:14Z</time>
      </trkpt>
      <trkpt lat="43.63185" lon="3.42847">
        <ele>167.60000610352</ele>
        <time>2019-12-12T14:42:16Z</time>
      </trkpt>
      <trkpt lat="43.63189" lon="3.42845">
        <ele>166</ele>
        <time>2019-12-12T14:42:18Z</time>
      </trkpt>
      <trkpt lat="43.63195" lon="3.42842">
        <ele>164.80000305176</ele>
        <time>2019-12-12T14:42:20Z</time>
      </trkpt>
      <trkpt lat="43.63202" lon="3.42838">
        <ele>163.39999389648</ele>
        <time>2019-12-12T14:42:22Z</time>
      </trkpt>
      <trkpt lat="43.63206" lon="3.42837">
        <ele>163</ele>
        <time>2019-12-12T14:42:23Z</time>
      </trkpt>
      <trkpt lat="43.63211" lon="3.42833">
        <ele>162.19999694824</ele>
        <time>2019-12-12T14:42:25Z</time>
      </trkpt>
      <trkpt lat="43.63215" lon="3.42832">
        <ele>161.19999694824</ele>
        <time>2019-12-12T14:42:27Z</time>
      </trkpt>
      <trkpt lat="43.63217" lon="3.42831">
        <ele>160.80000305176</ele>
        <time>2019-12-12T14:42:28Z</time>
      </trkpt>
      <trkpt lat="43.63219" lon="3.42831">
        <ele>160.19999694824</ele>
        <time>2019-12-12T14:42:29Z</time>
      </trkpt>
      <trkpt lat="43.63229" lon="3.42827">
        <ele>159</ele>
        <time>2019-12-12T14:42:32Z</time>
      </trkpt>
      <trkpt lat="43.63232" lon="3.42825">
        <ele>158.39999389648</ele>
        <time>2019-12-12T14:42:33Z</time>
      </trkpt>
      <trkpt lat="43.63238" lon="3.42823">
        <ele>157.60000610352</ele>
        <time>2019-12-12T14:42:35Z</time>
      </trkpt>
      <trkpt lat="43.63244" lon="3.42818">
        <ele>156.60000610352</ele>
        <time>2019-12-12T14:42:38Z</time>
      </trkpt>
      <trkpt lat="43.63254" lon="3.42807">
        <ele>155.39999389648</ele>
        <time>2019-12-12T14:42:42Z</time>
      </trkpt>
      <trkpt lat="43.63262" lon="3.42803">
        <ele>154</ele>
        <time>2019-12-12T14:42:45Z</time>
      </trkpt>
      <trkpt lat="43.63262" lon="3.42803">
        <ele>153.80000305176</ele>
        <time>2019-12-12T14:42:46Z</time>
      </trkpt>
      <trkpt lat="43.63262" lon="3.42803">
        <ele>153.39999389648</ele>
        <time>2019-12-12T14:42:47Z</time>
      </trkpt>
      <trkpt lat="43.63263" lon="3.42804">
        <ele>151.19999694824</ele>
        <time>2019-12-12T14:43:04Z</time>
      </trkpt>
      <trkpt lat="43.63268" lon="3.42805">
        <ele>151.19999694824</ele>
        <time>2019-12-12T14:43:06Z</time>
      </trkpt>
      <trkpt lat="43.6328" lon="3.42814">
        <ele>151.19999694824</ele>
        <time>2019-12-12T14:43:09Z</time>
      </trkpt>
      <trkpt lat="43.63293" lon="3.42837">
        <ele>150.60000610352</ele>
        <time>2019-12-12T14:43:14Z</time>
      </trkpt>
      <trkpt lat="43.63301" lon="3.4285">
        <ele>150.39999389648</ele>
        <time>2019-12-12T14:43:17Z</time>
      </trkpt>
      <trkpt lat="43.6331" lon="3.42865">
        <ele>150.19999694824</ele>
        <time>2019-12-12T14:43:20Z</time>
      </trkpt>
      <trkpt lat="43.63314" lon="3.42868">
        <ele>150.19999694824</ele>
        <time>2019-12-12T14:43:22Z</time>
      </trkpt>
      <trkpt lat="43.63324" lon="3.42873">
        <ele>150.19999694824</ele>
        <time>2019-12-12T14:43:23Z</time>
      </trkpt>
      <trkpt lat="43.63329" lon="3.42874">
        <ele>150.60000610352</ele>
        <time>2019-12-12T14:43:24Z</time>
      </trkpt>
      <trkpt lat="43.63339" lon="3.42876">
        <ele>151.60000610352</ele>
        <time>2019-12-12T14:43:27Z</time>
      </trkpt>
      <trkpt lat="43.63353" lon="3.42873">
        <ele>152.60000610352</ele>
        <time>2019-12-12T14:43:29Z</time>
      </trkpt>
      <trkpt lat="43.63358" lon="3.42871">
        <ele>153</ele>
        <time>2019-12-12T14:43:30Z</time>
      </trkpt>
      <trkpt lat="43.63365" lon="3.42867">
        <ele>154</ele>
        <time>2019-12-12T14:43:32Z</time>
      </trkpt>
      <trkpt lat="43.63373" lon="3.42864">
        <ele>155.19999694824</ele>
        <time>2019-12-12T14:43:34Z</time>
      </trkpt>
      <trkpt lat="43.63379" lon="3.42861">
        <ele>156.39999389648</ele>
        <time>2019-12-12T14:43:37Z</time>
      </trkpt>
      <trkpt lat="43.63391" lon="3.42856">
        <ele>157</ele>
        <time>2019-12-12T14:43:40Z</time>
      </trkpt>
      <trkpt lat="43.63405" lon="3.42851">
        <ele>157</ele>
        <time>2019-12-12T14:43:44Z</time>
      </trkpt>
      <trkpt lat="43.63409" lon="3.42849">
        <ele>157</ele>
        <time>2019-12-12T14:43:45Z</time>
      </trkpt>
      <trkpt lat="43.63419" lon="3.42845">
        <ele>157</ele>
        <time>2019-12-12T14:43:47Z</time>
      </trkpt>
      <trkpt lat="43.63434" lon="3.42845">
        <ele>156.39999389648</ele>
        <time>2019-12-12T14:43:50Z</time>
      </trkpt>
      <trkpt lat="43.63447" lon="3.42854">
        <ele>155.19999694824</ele>
        <time>2019-12-12T14:43:53Z</time>
      </trkpt>
      <trkpt lat="43.63449" lon="3.4286">
        <ele>154.60000610352</ele>
        <time>2019-12-12T14:43:54Z</time>
      </trkpt>
      <trkpt lat="43.63445" lon="3.42874">
        <ele>153.80000305176</ele>
        <time>2019-12-12T14:43:56Z</time>
      </trkpt>
      <trkpt lat="43.63442" lon="3.42883">
        <ele>153.19999694824</ele>
        <time>2019-12-12T14:43:57Z</time>
      </trkpt>
      <trkpt lat="43.63438" lon="3.42892">
        <ele>152.80000305176</ele>
        <time>2019-12-12T14:43:58Z</time>
      </trkpt>
      <trkpt lat="43.63434" lon="3.429">
        <ele>152.39999389648</ele>
        <time>2019-12-12T14:43:59Z</time>
      </trkpt>
      <trkpt lat="43.63425" lon="3.42912">
        <ele>151.60000610352</ele>
        <time>2019-12-12T14:44:01Z</time>
      </trkpt>
      <trkpt lat="43.63411" lon="3.4293">
        <ele>150.19999694824</ele>
        <time>2019-12-12T14:44:04Z</time>
      </trkpt>
      <trkpt lat="43.63407" lon="3.42935">
        <ele>149.19999694824</ele>
        <time>2019-12-12T14:44:05Z</time>
      </trkpt>
      <trkpt lat="43.63403" lon="3.42941">
        <ele>148.19999694824</ele>
        <time>2019-12-12T14:44:06Z</time>
      </trkpt>
      <trkpt lat="43.634" lon="3.42945">
        <ele>146.80000305176</ele>
        <time>2019-12-12T14:44:07Z</time>
      </trkpt>
      <trkpt lat="43.63399" lon="3.4295">
        <ele>145.60000610352</ele>
        <time>2019-12-12T14:44:08Z</time>
      </trkpt>
      <trkpt lat="43.63398" lon="3.42954">
        <ele>143.80000305176</ele>
        <time>2019-12-12T14:44:10Z</time>
      </trkpt>
      <trkpt lat="43.63398" lon="3.42958">
        <ele>143.39999389648</ele>
        <time>2019-12-12T14:44:11Z</time>
      </trkpt>
      <trkpt lat="43.634" lon="3.42961">
        <ele>143.19999694824</ele>
        <time>2019-12-12T14:44:12Z</time>
      </trkpt>
      <trkpt lat="43.63406" lon="3.42967">
        <ele>142.60000610352</ele>
        <time>2019-12-12T14:44:14Z</time>
      </trkpt>
      <trkpt lat="43.63414" lon="3.42975">
        <ele>141</ele>
        <time>2019-12-12T14:44:16Z</time>
      </trkpt>
      <trkpt lat="43.63431" lon="3.42996">
        <ele>139.60000610352</ele>
        <time>2019-12-12T14:44:20Z</time>
      </trkpt>
      <trkpt lat="43.63437" lon="3.43007">
        <ele>138.60000610352</ele>
        <time>2019-12-12T14:44:22Z</time>
      </trkpt>
      <trkpt lat="43.63446" lon="3.43024">
        <ele>137.80000305176</ele>
        <time>2019-12-12T14:44:24Z</time>
      </trkpt>
      <trkpt lat="43.63449" lon="3.43029">
        <ele>137.60000610352</ele>
        <time>2019-12-12T14:44:25Z</time>
      </trkpt>
      <trkpt lat="43.63459" lon="3.43045">
        <ele>137.19999694824</ele>
        <time>2019-12-12T14:44:28Z</time>
      </trkpt>
      <trkpt lat="43.63466" lon="3.43056">
        <ele>137</ele>
        <time>2019-12-12T14:44:30Z</time>
      </trkpt>
      <trkpt lat="43.63477" lon="3.43075">
        <ele>137</ele>
        <time>2019-12-12T14:44:34Z</time>
      </trkpt>
      <trkpt lat="43.63483" lon="3.43085">
        <ele>136.60000610352</ele>
        <time>2019-12-12T14:44:37Z</time>
      </trkpt>
      <trkpt lat="43.63503" lon="3.43121">
        <ele>136.39999389648</ele>
        <time>2019-12-12T14:44:43Z</time>
      </trkpt>
      <trkpt lat="43.63507" lon="3.43139">
        <ele>136.19999694824</ele>
        <time>2019-12-12T14:44:47Z</time>
      </trkpt>
      <trkpt lat="43.63499" lon="3.43162">
        <ele>135.80000305176</ele>
        <time>2019-12-12T14:44:52Z</time>
      </trkpt>
      <trkpt lat="43.63499" lon="3.43162">
        <ele>135.60000610352</ele>
        <time>2019-12-12T14:44:53Z</time>
      </trkpt>
      <trkpt lat="43.63491" lon="3.43174">
        <ele>135</ele>
        <time>2019-12-12T14:44:57Z</time>
      </trkpt>
      <trkpt lat="43.6349" lon="3.43176">
        <ele>134.60000610352</ele>
        <time>2019-12-12T14:44:58Z</time>
      </trkpt>
      <trkpt lat="43.63489" lon="3.43187">
        <ele>133.39999389648</ele>
        <time>2019-12-12T14:45:01Z</time>
      </trkpt>
      <trkpt lat="43.63494" lon="3.43196">
        <ele>132.80000305176</ele>
        <time>2019-12-12T14:45:03Z</time>
      </trkpt>
      <trkpt lat="43.63501" lon="3.43201">
        <ele>132.39999389648</ele>
        <time>2019-12-12T14:45:05Z</time>
      </trkpt>
      <trkpt lat="43.63516" lon="3.43212">
        <ele>131.39999389648</ele>
        <time>2019-12-12T14:45:10Z</time>
      </trkpt>
      <trkpt lat="43.63529" lon="3.43219">
        <ele>131.19999694824</ele>
        <time>2019-12-12T14:45:12Z</time>
      </trkpt>
      <trkpt lat="43.63553" lon="3.43233">
        <ele>132</ele>
        <time>2019-12-12T14:45:20Z</time>
      </trkpt>
      <trkpt lat="43.63563" lon="3.43237">
        <ele>132.39999389648</ele>
        <time>2019-12-12T14:45:22Z</time>
      </trkpt>
      <trkpt lat="43.63582" lon="3.43249">
        <ele>133.80000305176</ele>
        <time>2019-12-12T14:45:28Z</time>
      </trkpt>
      <trkpt lat="43.63598" lon="3.43256">
        <ele>135</ele>
        <time>2019-12-12T14:45:33Z</time>
      </trkpt>
      <trkpt lat="43.63601" lon="3.43256">
        <ele>135.19999694824</ele>
        <time>2019-12-12T14:45:34Z</time>
      </trkpt>
      <trkpt lat="43.63609" lon="3.43257">
        <ele>136</ele>
        <time>2019-12-12T14:45:38Z</time>
      </trkpt>
      <trkpt lat="43.63613" lon="3.43257">
        <ele>136.60000610352</ele>
        <time>2019-12-12T14:45:40Z</time>
      </trkpt>
      <trkpt lat="43.63614" lon="3.43257">
        <ele>137</ele>
        <time>2019-12-12T14:45:41Z</time>
      </trkpt>
      <trkpt lat="43.63614" lon="3.43257">
        <ele>137</ele>
        <time>2019-12-12T14:45:42Z</time>
      </trkpt>
      <trkpt lat="43.63615" lon="3.43259">
        <ele>137.19999694824</ele>
        <time>2019-12-12T14:45:43Z</time>
      </trkpt>
      <trkpt lat="43.63614" lon="3.43262">
        <ele>137.19999694824</ele>
        <time>2019-12-12T14:45:45Z</time>
      </trkpt>
      <trkpt lat="43.63606" lon="3.43275">
        <ele>137.19999694824</ele>
        <time>2019-12-12T14:45:48Z</time>
      </trkpt>
      <trkpt lat="43.63603" lon="3.4328">
        <ele>137.19999694824</ele>
        <time>2019-12-12T14:45:49Z</time>
      </trkpt>
      <trkpt lat="43.63585" lon="3.43308">
        <ele>136.80000305176</ele>
        <time>2019-12-12T14:45:54Z</time>
      </trkpt>
      <trkpt lat="43.63581" lon="3.43314">
        <ele>136.39999389648</ele>
        <time>2019-12-12T14:45:55Z</time>
      </trkpt>
      <trkpt lat="43.63578" lon="3.43318">
        <ele>136</ele>
        <time>2019-12-12T14:45:56Z</time>
      </trkpt>
      <trkpt lat="43.63574" lon="3.43323">
        <ele>135.19999694824</ele>
        <time>2019-12-12T14:45:58Z</time>
      </trkpt>
      <trkpt lat="43.63574" lon="3.43324">
        <ele>134.80000305176</ele>
        <time>2019-12-12T14:45:59Z</time>
      </trkpt>
      <trkpt lat="43.63572" lon="3.43326">
        <ele>133.60000610352</ele>
        <time>2019-12-12T14:46:01Z</time>
      </trkpt>
      <trkpt lat="43.63572" lon="3.43326">
        <ele>132.19999694824</ele>
        <time>2019-12-12T14:46:03Z</time>
      </trkpt>
      <trkpt lat="43.63569" lon="3.43329">
        <ele>130.39999389648</ele>
        <time>2019-12-12T14:46:12Z</time>
      </trkpt>
      <trkpt lat="43.63565" lon="3.43334">
        <ele>130.39999389648</ele>
        <time>2019-12-12T14:46:17Z</time>
      </trkpt>
      <trkpt lat="43.63564" lon="3.43335">
        <ele>130.19999694824</ele>
        <time>2019-12-12T14:46:19Z</time>
      </trkpt>
      <trkpt lat="43.63559" lon="3.43341">
        <ele>127.40000152588</ele>
        <time>2019-12-12T14:46:33Z</time>
      </trkpt>
      <trkpt lat="43.63557" lon="3.43343">
        <ele>127.19999694824</ele>
        <time>2019-12-12T14:46:36Z</time>
      </trkpt>
      <trkpt lat="43.63557" lon="3.43343">
        <ele>127.19999694824</ele>
        <time>2019-12-12T14:46:37Z</time>
      </trkpt>
      <trkpt lat="43.63556" lon="3.43344">
        <ele>126.19999694824</ele>
        <time>2019-12-12T14:46:46Z</time>
      </trkpt>
      <trkpt lat="43.63556" lon="3.43347">
        <ele>126</ele>
        <time>2019-12-12T14:46:48Z</time>
      </trkpt>
      <trkpt lat="43.63562" lon="3.43355">
        <ele>126</ele>
        <time>2019-12-12T14:46:52Z</time>
      </trkpt>
      <trkpt lat="43.63564" lon="3.43355">
        <ele>126</ele>
        <time>2019-12-12T14:46:53Z</time>
      </trkpt>
      <trkpt lat="43.63572" lon="3.43356">
        <ele>125.80000305176</ele>
        <time>2019-12-12T14:46:57Z</time>
      </trkpt>
      <trkpt lat="43.63583" lon="3.43365">
        <ele>125.80000305176</ele>
        <time>2019-12-12T14:47:02Z</time>
      </trkpt>
      <trkpt lat="43.6359" lon="3.43369">
        <ele>125.80000305176</ele>
        <time>2019-12-12T14:47:03Z</time>
      </trkpt>
      <trkpt lat="43.63602" lon="3.43375">
        <ele>125.40000152588</ele>
        <time>2019-12-12T14:47:07Z</time>
      </trkpt>
      <trkpt lat="43.63615" lon="3.43379">
        <ele>125</ele>
        <time>2019-12-12T14:47:09Z</time>
      </trkpt>
      <trkpt lat="43.63623" lon="3.43381">
        <ele>124.59999847412</ele>
        <time>2019-12-12T14:47:11Z</time>
      </trkpt>
      <trkpt lat="43.63631" lon="3.43385">
        <ele>124.40000152588</ele>
        <time>2019-12-12T14:47:13Z</time>
      </trkpt>
      <trkpt lat="43.63639" lon="3.43389">
        <ele>124.19999694824</ele>
        <time>2019-12-12T14:47:15Z</time>
      </trkpt>
      <trkpt lat="43.63639" lon="3.43389">
        <ele>124</ele>
        <time>2019-12-12T14:47:16Z</time>
      </trkpt>
      <trkpt lat="43.63647" lon="3.43397">
        <ele>124</ele>
        <time>2019-12-12T14:47:17Z</time>
      </trkpt>
      <trkpt lat="43.63649" lon="3.43403">
        <ele>123.80000305176</ele>
        <time>2019-12-12T14:47:18Z</time>
      </trkpt>
      <trkpt lat="43.63651" lon="3.43416">
        <ele>123.40000152588</ele>
        <time>2019-12-12T14:47:21Z</time>
      </trkpt>
      <trkpt lat="43.63651" lon="3.43435">
        <ele>123.19999694824</ele>
        <time>2019-12-12T14:47:23Z</time>
      </trkpt>
      <trkpt lat="43.63651" lon="3.43442">
        <ele>123</ele>
        <time>2019-12-12T14:47:24Z</time>
      </trkpt>
      <trkpt lat="43.6365" lon="3.43492">
        <ele>122.19999694824</ele>
        <time>2019-12-12T14:47:32Z</time>
      </trkpt>
      <trkpt lat="43.63648" lon="3.43515">
        <ele>121.80000305176</ele>
        <time>2019-12-12T14:47:35Z</time>
      </trkpt>
      <trkpt lat="43.63644" lon="3.43572">
        <ele>121</ele>
        <time>2019-12-12T14:47:41Z</time>
      </trkpt>
      <trkpt lat="43.63643" lon="3.4358">
        <ele>120.80000305176</ele>
        <time>2019-12-12T14:47:43Z</time>
      </trkpt>
      <trkpt lat="43.63643" lon="3.43628">
        <ele>120.19999694824</ele>
        <time>2019-12-12T14:47:49Z</time>
      </trkpt>
      <trkpt lat="43.63644" lon="3.43675">
        <ele>119.80000305176</ele>
        <time>2019-12-12T14:47:54Z</time>
      </trkpt>
      <trkpt lat="43.63644" lon="3.43697">
        <ele>119.59999847412</ele>
        <time>2019-12-12T14:47:58Z</time>
      </trkpt>
      <trkpt lat="43.63646" lon="3.43748">
        <ele>118.59999847412</ele>
        <time>2019-12-12T14:48:04Z</time>
      </trkpt>
      <trkpt lat="43.63647" lon="3.43762">
        <ele>118.40000152588</ele>
        <time>2019-12-12T14:48:07Z</time>
      </trkpt>
      <trkpt lat="43.63649" lon="3.4379">
        <ele>118</ele>
        <time>2019-12-12T14:48:11Z</time>
      </trkpt>
      <trkpt lat="43.63653" lon="3.43802">
        <ele>117.59999847412</ele>
        <time>2019-12-12T14:48:13Z</time>
      </trkpt>
      <trkpt lat="43.63655" lon="3.43808">
        <ele>117.59999847412</ele>
        <time>2019-12-12T14:48:14Z</time>
      </trkpt>
      <trkpt lat="43.63658" lon="3.43813">
        <ele>117.40000152588</ele>
        <time>2019-12-12T14:48:15Z</time>
      </trkpt>
      <trkpt lat="43.63669" lon="3.43838">
        <ele>117.19999694824</ele>
        <time>2019-12-12T14:48:19Z</time>
      </trkpt>
      <trkpt lat="43.63671" lon="3.43845">
        <ele>117.19999694824</ele>
        <time>2019-12-12T14:48:20Z</time>
      </trkpt>
      <trkpt lat="43.6367" lon="3.4387">
        <ele>117.19999694824</ele>
        <time>2019-12-12T14:48:23Z</time>
      </trkpt>
      <trkpt lat="43.63668" lon="3.43875">
        <ele>117.19999694824</ele>
        <time>2019-12-12T14:48:24Z</time>
      </trkpt>
      <trkpt lat="43.63661" lon="3.43907">
        <ele>117</ele>
        <time>2019-12-12T14:48:30Z</time>
      </trkpt>
      <trkpt lat="43.6366" lon="3.43942">
        <ele>117</ele>
        <time>2019-12-12T14:48:33Z</time>
      </trkpt>
      <trkpt lat="43.6366" lon="3.43951">
        <ele>117</ele>
        <time>2019-12-12T14:48:35Z</time>
      </trkpt>
      <trkpt lat="43.63662" lon="3.44002">
        <ele>116.19999694824</ele>
        <time>2019-12-12T14:48:39Z</time>
      </trkpt>
      <trkpt lat="43.63662" lon="3.4401">
        <ele>115.40000152588</ele>
        <time>2019-12-12T14:48:41Z</time>
      </trkpt>
      <trkpt lat="43.63662" lon="3.44028">
        <ele>114.80000305176</ele>
        <time>2019-12-12T14:48:42Z</time>
      </trkpt>
      <trkpt lat="43.63662" lon="3.44037">
        <ele>114.19999694824</ele>
        <time>2019-12-12T14:48:43Z</time>
      </trkpt>
      <trkpt lat="43.63662" lon="3.44037">
        <ele>113.59999847412</ele>
        <time>2019-12-12T14:48:44Z</time>
      </trkpt>
      <trkpt lat="43.63659" lon="3.44054">
        <ele>112.59999847412</ele>
        <time>2019-12-12T14:48:46Z</time>
      </trkpt>
      <trkpt lat="43.63658" lon="3.44062">
        <ele>112.19999694824</ele>
        <time>2019-12-12T14:48:47Z</time>
      </trkpt>
      <trkpt lat="43.63657" lon="3.44071">
        <ele>112</ele>
        <time>2019-12-12T14:48:48Z</time>
      </trkpt>
      <trkpt lat="43.63658" lon="3.44096">
        <ele>111.59999847412</ele>
        <time>2019-12-12T14:48:51Z</time>
      </trkpt>
      <trkpt lat="43.63659" lon="3.44104">
        <ele>111.40000152588</ele>
        <time>2019-12-12T14:48:52Z</time>
      </trkpt>
      <trkpt lat="43.63666" lon="3.44134">
        <ele>110.40000152588</ele>
        <time>2019-12-12T14:48:56Z</time>
      </trkpt>
      <trkpt lat="43.63668" lon="3.4414">
        <ele>110.19999694824</ele>
        <time>2019-12-12T14:48:57Z</time>
      </trkpt>
      <trkpt lat="43.63684" lon="3.4419">
        <ele>109.40000152588</ele>
        <time>2019-12-12T14:49:05Z</time>
      </trkpt>
      <trkpt lat="43.63686" lon="3.44195">
        <ele>109.40000152588</ele>
        <time>2019-12-12T14:49:07Z</time>
      </trkpt>
      <trkpt lat="43.63688" lon="3.44204">
        <ele>109.19999694824</ele>
        <time>2019-12-12T14:49:09Z</time>
      </trkpt>
      <trkpt lat="43.63687" lon="3.44207">
        <ele>109.19999694824</ele>
        <time>2019-12-12T14:49:10Z</time>
      </trkpt>
      <trkpt lat="43.63684" lon="3.44212">
        <ele>109</ele>
        <time>2019-12-12T14:49:14Z</time>
      </trkpt>
      <trkpt lat="43.63684" lon="3.44212">
        <ele>108.80000305176</ele>
        <time>2019-12-12T14:49:15Z</time>
      </trkpt>
      <trkpt lat="43.63682" lon="3.44213">
        <ele>109</ele>
        <time>2019-12-12T14:49:24Z</time>
      </trkpt>
      <trkpt lat="43.63678" lon="3.44214">
        <ele>109</ele>
        <time>2019-12-12T14:49:26Z</time>
      </trkpt>
      <trkpt lat="43.63674" lon="3.44214">
        <ele>109</ele>
        <time>2019-12-12T14:49:28Z</time>
      </trkpt>
      <trkpt lat="43.63669" lon="3.4422">
        <ele>109.19999694824</ele>
        <time>2019-12-12T14:49:30Z</time>
      </trkpt>
      <trkpt lat="43.63666" lon="3.44228">
        <ele>109.19999694824</ele>
        <time>2019-12-12T14:49:33Z</time>
      </trkpt>
      <trkpt lat="43.63666" lon="3.44228">
        <ele>109.19999694824</ele>
        <time>2019-12-12T14:49:34Z</time>
      </trkpt>
      <trkpt lat="43.63666" lon="3.44229">
        <ele>109.40000152588</ele>
        <time>2019-12-12T14:49:35Z</time>
      </trkpt>
      <trkpt lat="43.63665" lon="3.4423">
        <ele>109.59999847412</ele>
        <time>2019-12-12T14:49:37Z</time>
      </trkpt>
      <trkpt lat="43.63662" lon="3.44236">
        <ele>109.80000305176</ele>
        <time>2019-12-12T14:49:39Z</time>
      </trkpt>
      <trkpt lat="43.6366" lon="3.44239">
        <ele>109.80000305176</ele>
        <time>2019-12-12T14:49:40Z</time>
      </trkpt>
      <trkpt lat="43.63654" lon="3.44241">
        <ele>110</ele>
        <time>2019-12-12T14:49:42Z</time>
      </trkpt>
      <trkpt lat="43.63646" lon="3.44242">
        <ele>110</ele>
        <time>2019-12-12T14:49:44Z</time>
      </trkpt>
      <trkpt lat="43.63638" lon="3.44243">
        <ele>110</ele>
        <time>2019-12-12T14:49:46Z</time>
      </trkpt>
      <trkpt lat="43.63629" lon="3.44246">
        <ele>110</ele>
        <time>2019-12-12T14:49:48Z</time>
      </trkpt>
      <trkpt lat="43.63604" lon="3.44256">
        <ele>109.80000305176</ele>
        <time>2019-12-12T14:49:53Z</time>
      </trkpt>
      <trkpt lat="43.63599" lon="3.44259">
        <ele>109.80000305176</ele>
        <time>2019-12-12T14:49:54Z</time>
      </trkpt>
      <trkpt lat="43.63588" lon="3.44281">
        <ele>108.80000305176</ele>
        <time>2019-12-12T14:49:58Z</time>
      </trkpt>
      <trkpt lat="43.63588" lon="3.44293">
        <ele>108.40000152588</ele>
        <time>2019-12-12T14:50:00Z</time>
      </trkpt>
      <trkpt lat="43.63586" lon="3.44306">
        <ele>108.19999694824</ele>
        <time>2019-12-12T14:50:02Z</time>
      </trkpt>
      <trkpt lat="43.63584" lon="3.44311">
        <ele>108</ele>
        <time>2019-12-12T14:50:03Z</time>
      </trkpt>
      <trkpt lat="43.63574" lon="3.44332">
        <ele>107.80000305176</ele>
        <time>2019-12-12T14:50:07Z</time>
      </trkpt>
      <trkpt lat="43.63566" lon="3.44348">
        <ele>107.59999847412</ele>
        <time>2019-12-12T14:50:10Z</time>
      </trkpt>
      <trkpt lat="43.63562" lon="3.44352">
        <ele>107.59999847412</ele>
        <time>2019-12-12T14:50:11Z</time>
      </trkpt>
      <trkpt lat="43.63553" lon="3.44357">
        <ele>107.40000152588</ele>
        <time>2019-12-12T14:50:13Z</time>
      </trkpt>
      <trkpt lat="43.63548" lon="3.44358">
        <ele>107.40000152588</ele>
        <time>2019-12-12T14:50:14Z</time>
      </trkpt>
      <trkpt lat="43.63543" lon="3.4436">
        <ele>107.19999694824</ele>
        <time>2019-12-12T14:50:15Z</time>
      </trkpt>
      <trkpt lat="43.63534" lon="3.44364">
        <ele>106.80000305176</ele>
        <time>2019-12-12T14:50:17Z</time>
      </trkpt>
      <trkpt lat="43.63531" lon="3.44369">
        <ele>106.59999847412</ele>
        <time>2019-12-12T14:50:19Z</time>
      </trkpt>
      <trkpt lat="43.63531" lon="3.44369">
        <ele>106.40000152588</ele>
        <time>2019-12-12T14:50:20Z</time>
      </trkpt>
    </trkseg>
  </trk>
</gpx>